     2              OBSERVATION DATA    GPS                 RINEX VERSION / TYPE
teqc 2000Jul20 Karen Wendt 20030617 23:22:53UTC             PGM / RUN BY / DATE
                                                            COMMENT
L2: 1 -> 1; 150 -> 5; 250 -> 9                              COMMENT
L2: 1 -> 1; 150 -> 5; 250 -> 9                              COMMENT
L2: 1 -> 1; 150 -> 5; 250 -> 9                              COMMENT
L2: 1 -> 1; 150 -> 5; 250 -> 9                              COMMENT
L2: 1 -> 1; 150 -> 5; 250 -> 9                              COMMENT
L2: 1 -> 1; 150 -> 5; 250 -> 9                              COMMENT
L2: 1 -> 1; 150 -> 5; 250 -> 9                              COMMENT
L2: 1 -> 1; 150 -> 5; 250 -> 9                              COMMENT
L2: 1 -> 1; 150 -> 5; 250 -> 9                              COMMENT
L2: 1 -> 1; 150 -> 5; 250 -> 9                              COMMENT
L2: 1 -> 1; 150 -> 5; 250 -> 9                              COMMENT
L2: 1 -> 1; 150 -> 5; 250 -> 9                              COMMENT
L2: 1 -> 1; 150 -> 5; 250 -> 9                              COMMENT
L2: 1 -> 1; 150 -> 5; 250 -> 9                              COMMENT
Original Marker Name: shos Shoshone_1933_USCGS              COMMENT
Campaign Name: USGS Death Valley 2003                       COMMENT
4-Character Station Name: SHOS                              COMMENT
6-Character Antenna Code: DMRCHT                            COMMENT
Vertical Measurement Point: BCR                             COMMENT
Vertical Offset to Rinex Ref. Point: 0.0348                 COMMENT
Radial Measurement Point: ECF                               COMMENT
Radial Offset to Rinex Ref. Point: 0.1897                   COMMENT
Antenna Height from Field Measurement: 1.3450 m             COMMENT
Additional Antenna Identification Info.:                    COMMENT
Turborogue and Ashtech Choke Ring                           COMMENT
Original XYZ: -2258962.3645 -4578554.1732 3813676.4951      COMMENT
New XYZ position is based on association with SCEC monument COMMENT
E1G0L0K7+0011. Position of that monument is believed to be  COMMENT
valid to within 1 m horizontally; vertical accuracy         COMMENT
should be no worse than 3-times this value.                 COMMENT
                                                            COMMENT
Revised Rinex header created by UCSD GPS archive for        COMMENT
GSAC on 20-Apr-2005 (2005:110) 16:33:14 GMT                 COMMENT
For assistance contact dagnew@ucsd.edu                      COMMENT
or anderson@python.ucsd.edu                                 COMMENT
                                                            COMMENT
SHOSHONE 1933                                               MARKER NAME
JMS US GEOLOGICAL SURVEY                                    OBSERVER / AGENCY
LP00108.707 ASHTECH Z-XII3 CD00                             REC # / TYPE / VERS
CR519993702 DORNE-MARGOL. TYPE T                            ANT # / TYPE
 -2258981.0000 -4578520.0000  3813650.0000                  APPROX POSITION XYZ
        1.2968        0.0000        0.0000                  ANTENNA: DELTA H/E/N
     1     1     0                                          WAVELENGTH FACT L1/2
     5    C1    L1    L2    P1    P2                        # / TYPES OF OBSERV
    30                                                      INTERVAL
  2003     6    10     0     0   30.000000                  TIME OF FIRST OBS
  2003     6    10    23    59   30.000000                  TIME OF LAST OBS
                                                            END OF HEADER
 03  6 10  0  0 30.0000000  0  7G30G14G16G25G 1G20G11
  24436655.180    -4252074.63649  -3304055.12245  24436654.916    24436664.891
  23422736.132    16344242.22649  12733152.21246  23422735.278    23422743.123
  24494538.746    -5111327.59449  -3973583.44945  24494537.635    24494554.423
  20688973.740   -18615988.11449 -14494427.99848  20688973.232    20688979.862
  23674692.195    -9504901.93949  -6784551.82345  23674691.413    23674705.876
  22310667.611   -15061862.95449 -11728238.87246  22310666.547    22310674.870
  21742987.033   -15582383.40149 -12129109.69147  21742986.414    21742994.171
 03  6 10  0  1  0.0000000  0  7G30G14G16G25G 1G20G11
  24442023.226    -4223864.54149  -3282073.27745  24442023.109    24442033.344
  23437135.901    16419913.69149  12792116.99946  23437135.119    23437142.966
  24476996.942    -5203509.04749  -4045412.66945  24476995.929    24477012.357
  20693820.781   -18590516.78649 -14474580.19448  20693820.276    20693826.895
  23661389.473    -9574807.04049  -6839022.97645  23661388.622    23661403.036
  22294845.052   -15145010.45149 -11793029.02246  22294843.991    22294852.294
  21750081.517   -15545101.71549 -12100059.05547  21750080.882    21750088.707
 03  6 10  0  1 30.0000000  0  7G30G14G16G25G 1G20G11
  24447492.490    -4195124.35049  -3259678.33345  24447492.444    24447502.479
  23451541.786    16495616.92949  12851106.52146  23451540.996    23451548.850
  24459448.503    -5295724.38749  -4117268.29245  24459447.598    24459463.908
  20698756.874   -18564577.32649 -14454367.60848  20698756.359    20698762.989
  23648110.497    -9644587.20249  -6893396.78045  23648109.615    23648124.045
  22279053.956   -15227992.58749 -11857690.33146  22279052.923    22279061.221
  21757269.001   -15507331.42049 -12070627.69547  21757268.356    21757276.170
 03  6 10  0  2  0.0000000  0  7G30G14G16G25G 1G20G11
  24453062.313    -4165854.42349  -3236870.64145  24453062.187    24453072.294
  23465953.775    16571351.89049  12910120.76346  23465952.968    23465960.762
  24441894.085    -5387970.61449  -4189147.98945  24441893.400    24441909.567
  20703781.795   -18538171.24449 -14433791.42248  20703781.271    20703787.906
  23634855.356    -9714242.21849  -6947673.07245  23634854.472    23634868.758
  22263294.754   -15310807.31349 -11922221.18846  22263293.703    22263302.007
  21764549.220   -15469073.54749 -12040816.39647  21764548.587    21764556.458
 03  6 10  0  2 30.0000000  0  7G30G14G16G25G 1G20G11
  24458732.945    -4136055.67149  -3213650.85645  24458732.782    24458742.981
  23480371.600    16647117.60349  12969158.97446  23480370.718    23480378.534
  24424334.643    -5480245.14449  -4261049.74645  24424333.836    24424349.646
  20708895.120   -18511300.12949 -14412852.87648  20708894.631    20708901.288
  23621623.947    -9783772.30549  -7001852.00045  23621623.101    23621637.262
  22247567.820   -15393452.62549 -11986620.02946  22247566.770    22247575.059
  21771921.908   -15430330.16649 -12010626.78147  21771921.262    21771929.113
 03  6 10  0  3  0.0000000  0  7G30G14G16G25G 1G20G11
  24464504.069    -4105727.86549  -3190018.84545  24464503.937    24464514.318
  23494795.115    16722914.38049  13028221.38446  23494794.302    23494802.116
  24406770.478    -5572544.49049  -4332970.84145  24406769.536    24406785.194
  20714096.873   -18483964.94249 -14391552.70748  20714096.360    20714102.994
  23608416.410    -9853177.07449  -7055933.27645  23608415.535    23608429.596
  22231873.642   -15475925.89949 -12050884.81646  22231872.595    22231880.785
  21779386.669   -15391102.62249 -11980059.89547  21779386.055    21779393.913
 03  6 10  0  3 30.0000000  0  6G14G16G25G 1G20G11
  23509224.388    16798740.52149  13087306.66546  23509223.593    23509231.328
  24389201.558    -5664867.41949  -4404910.33445  24389200.618    24389216.370
  20719386.285   -18456168.64949 -14369893.24148  20719385.798    20719392.446
  23595232.366    -9922458.07549  -7109918.13145  23595231.482    23595245.482
  22216212.358   -15558226.46349 -12115015.03046  22216211.317    22216219.422
  21786943.016   -15351393.90149 -11949118.06547  21786942.384    21786950.249
 03  6 10  0  4  0.0000000  0  6G14G16G25G 1G20G11
  23523659.177    16874595.51449  13146414.43646  23523658.331    23523666.035
  24371628.661    -5757211.23649  -4476866.09945  24371627.874    24371643.481
  20724763.251   -18427912.69349 -14347875.59548  20724762.725    20724769.333
  23582071.844    -9991615.32249  -7163806.52845  23582071.072    23582084.887
  22200584.188   -15640352.52549 -12179009.26546  22200583.146    22200591.217
  21794590.532   -15311206.04149 -11917802.88647  21794589.919    21794597.795
 03  6 10  0  4 30.0000000  0  6G14G16G25G 1G20G11
  23538099.650    16950481.13249  13205546.06245  23538098.874    23538106.584
  24354052.835    -5849570.48349  -4548833.89445  24354052.171    24354067.619
  20730227.723   -18399196.51149 -14325499.34348  20730227.212    20730233.832
  23568935.418   -10060646.76449  -7217596.91145  23568934.547    23568948.350
  22184990.037   -15722299.77449 -12242864.16346  22184989.012    22184997.098
  21802329.343   -15270538.62849 -11886114.02647  21802328.702    21802336.575
 03  6 10  0  5  0.0000000  0  6G14G16G25G 1G20G11
  23552545.855    17026396.70749  13264701.02945  23552545.053    23552552.829
  24336474.594    -5941942.44249  -4620811.58245  24336474.051    24336489.316
  20735779.570   -18370021.58049 -14302765.62348  20735779.039    20735785.651
  23555822.801   -10129552.68849  -7271289.47645  23555821.954    23555835.706
  22169430.365   -15804066.05249 -12306578.05147  22169429.344    22169437.382
  21810159.015   -15229393.40149 -11854052.84647  21810158.401    21810166.256
 03  6 10  0  5 30.0000000  0  6G14G16G25G 1G20G11
  23566997.729    17102341.77649  13323878.96645  23566996.908    23567004.730
  24318894.589    -6034324.49749  -4692797.14345  24318893.921    24318909.050
  20741418.267   -18340389.71949 -14279675.85648  20741417.755    20741424.359
  23542733.910   -10198333.39149  -7324884.49345  23542733.086    23542746.723
  22153905.430   -15885649.87149 -12370149.76447  22153904.382    22153912.406
  21818079.236   -15187772.77649 -11821621.22647  21818078.598    21818086.440
 03  6 10  0  6  0.0000000  0  6G14G16G25G 1G20G11
  23581454.960    17178315.22149  13383079.01145  23581454.149    23581462.080
  24301313.066    -6126714.39749  -4764788.82245  24301312.253    24301327.445
  20747143.575   -18310303.15949 -14256231.77248  20747143.052    20747149.665
  23529668.912   -10266989.71149  -7378382.57745  23529668.041    23529681.544
  22138415.437   -15967049.56649 -12433577.99847  22138414.425    22138422.469
  21826089.452   -15145679.07649 -11788820.97447  21826088.813    21826096.674
 03  6 10  0  6 30.0000000  0  6G14G16G25G 1G20G11
  23595917.583    17254316.93449  13442301.07945  23595916.817    23595924.785
  24283730.360    -6219109.20549  -4836784.35345  24283729.734    24283744.754
  20752955.133   -18279762.96149 -14232434.21148  20752954.638    20752961.250
  23516627.436   -10335521.46749  -7431783.61846  23516626.589    23516640.111
  22122960.939   -16048262.85849 -12496860.98147  22122959.924    22122968.021
  21834189.310   -15103114.05949 -11755653.46747  21834188.656    21834196.556
 03  6 10  0  7  0.0000000  0  6G14G16G25G 1G20G11
  23610385.668    17330346.74749  13501545.04045  23610384.831    23610392.779
  24266147.455    -6311505.80249  -4908781.27645  24266147.037    24266161.705
  20758852.778   -18248770.65549 -14208284.35048  20758852.256    20758858.874
  23503609.833   -10403928.49549  -7485087.46046  23503609.001    23503622.260
  22107542.477   -16129287.32649 -12559996.83847  22107541.428    22107549.528
  21842378.531   -15060079.41949 -11722120.02647  21842377.896    21842385.823
 03  6 10  0  7 30.0000000  0  6G14G16G25G 1G20G11
  23624858.801    17406403.53649  13560810.03245  23624858.010    23624865.974
  24248564.921    -6403901.90649  -4980777.80545  24248564.169    24248578.978
  20764835.931   -18217328.81449 -14183784.20248  20764835.433    20764842.051
  23490615.713   -10472211.52949  -7538294.70646  23490614.826    23490628.131
  22092160.145   -16210121.67049 -12622984.54947  22092159.067    22092167.217
  21850656.647   -15016577.62049 -11688222.56547  21850656.006    21850663.962
 03  6 10  0  8  0.0000000  0  6G14G16G25G 1G20G11
  23639337.202    17482487.27149  13620095.99945  23639336.378    23639344.313
  24230982.870    -6496294.38449  -5052771.52945  24230982.111    24230996.811
  20770904.411   -18185438.96549 -14158934.95248  20770903.883    20770910.478
  23477645.276   -10540370.49749  -7591405.26146  23477644.366    23477657.509
  22076814.372   -16290763.81749 -12685822.49547  22076813.301    22076821.435
  21859023.368   -14972610.47349 -11653962.49847  21859022.713    21859030.667
 03  6 10  0  8 30.0000000  0  6G14G16G25G 1G20G11
  23653820.519    17558597.42049  13679402.55445  23653819.751    23653827.591
  24213402.067    -6588680.41449  -5124760.22645  24213401.333    24213415.949
  20777057.820   -18153102.38849 -14133737.60948  20777057.323    20777063.927
  23464698.408   -10608405.59549  -7644419.31846  23464697.558    23464710.530
  22061505.614   -16371211.66549 -12748509.04447  22061504.548    22061512.610
  21867478.190   -14928180.14249 -11619341.50347  21867477.550    21867485.518
 03  6 10  0  9  0.0000000  0  6G14G16G25G 1G20G11
  23668308.909    17634734.07249  13738729.75845  23668308.131    23668315.936
  24195822.923    -6681056.65349  -5196741.29445  24195822.332    24195836.796
  20783296.012   -18120320.46249 -14108193.23848  20783295.484    20783302.081
  23451775.167   -10676316.71649  -7697336.77546  23451774.235    23451787.165
  22046234.312   -16451462.66649 -12811042.20047  22046233.220    22046241.274
  21876020.887   -14883288.20749 -11584360.81647  21876020.226    21876028.238
 03  6 10  0  9 30.0000000  0  6G14G16G25G 1G20G11
  23682802.176    17710896.44649  13798077.00945  23682801.447    23682809.240
  24178246.366    -6773420.33449  -5268712.58445  24178245.750    24178260.256
  20789618.592   -18087095.00349 -14082303.26248  20789618.077    20789624.660
  23438875.432   -10744104.00949  -7750157.72946  23438874.535    23438887.347
  22031000.859   -16531514.75649 -12873420.36247  22030999.756    22031007.824
  21884650.995   -14837936.88849 -11549022.17147  21884650.352    21884658.303
 03  6 10  0 10  0.0000000  0  6G14G16G25G 1G20G11
  23697300.328    17787084.33249  13857444.12445  23697299.561    23697307.281
  24160673.100    -6865768.78849  -5340672.01245  24160672.096    24160686.460
  20796025.268   -18053427.65349 -14056068.95148  20796024.752    20796031.332
  23425999.257   -10811767.68249  -7802882.38646  23425998.269    23426011.107
  22015805.546   -16611366.06149 -12935642.06847  22015804.456    22015812.541
  21893368.108   -14792128.19649 -11513327.12747  21893367.467    21893375.449
 03  6 10  0 10 30.0000000  0  6G14G16G25G 1G20G11
  23711803.147    17863297.12649  13916830.68645  23711802.361    23711810.181
  24143102.821    -6958099.31649  -5412617.49445  24143101.869    24143116.051
  20802515.576   -18019320.53349 -14029491.96848  20802515.059    20802521.656
  23413146.540   -10879308.13249  -7855511.00546  23413145.547    23413158.228
  22000648.821   -16691014.70049 -12997705.85447  22000647.739    22000655.819
  21902171.848   -14745864.32249 -11477277.40047  21902171.222    21902179.172
 03  6 10  0 11  0.0000000  0  6G14G16G25G 1G20G11
  23726310.852    17939535.38549  13976237.06045  23726310.077    23726317.898
  24125536.535    -7050407.87149  -5484545.85045  24125535.780    24125549.995
  20809089.541   -17984774.12349 -14002572.67748  20809089.018    20809095.606
  23400317.203   -10946724.72849  -7908043.12746  23400316.328    23400328.953
  21985531.273   -16770457.63649 -13059609.35447  21985530.204    21985538.205
  21911061.958   -14699146.66849 -11440874.07547  21911061.318    21911069.264
 03  6 10  0 11 30.0000000  0  6G14G16G25G 1G20G11
  23740823.205    18015798.36449  14035662.70345  23740822.431    23740830.362
  24107975.254    -7142692.07749  -5556455.21045  24107974.527    24107988.538
  20815746.648   -17949790.74449 -13975312.89248  20815746.139    20815752.733
  23387511.593   -11014017.80849  -7960479.00346  23387510.704    23387523.222
  21970453.257   -16849692.96949 -13121351.08247  21970452.182    21970460.102
  21920037.989   -14651977.53649 -11404118.95647  21920037.344    21920045.273
 03  6 10  0 12  0.0000000  0  6G14G16G25G 1G20G11
  23755340.181    18092085.06349  14095106.83345  23755339.431    23755347.350
  24090418.998    -7234949.50149  -5628343.72445  24090418.122    24090432.044
  20822486.459   -17914372.77149 -13947714.46248  20822485.933    20822492.521
  23374729.196   -11081188.05249  -8012819.18246  23374728.383    23374740.869
  21955415.003   -16928719.31049 -13182929.96447  21955413.933    21955421.817
  21929099.438   -14604359.55249 -11367014.08247  21929098.801    21929106.749
 03  6 10  0 12 30.0000000  0  6G14G16G25G 1G20G11
  23769861.694    18168395.88149  14154569.74545  23769860.907    23769868.826
  24072868.404    -7327176.82249  -5700208.78645  24072867.591    24072881.460
  20829308.786   -17878521.20549 -13919778.16448  20829308.260    20829314.842
  23361970.420   -11148234.99749  -8065063.27446  23361969.566    23361981.974
  21940416.981   -17007533.98249 -13244343.90647  21940415.906    21940423.784
  21938246.039   -14556294.25249 -11329560.65747  21938245.379    21938253.322
 03  6 10  0 13  0.0000000  0  6G14G16G25G 1G20G11
  23784387.796    18244730.31349  14214051.07145  23784387.001    23784394.943
  24055324.075    -7419371.07449  -5772048.07845  24055323.267    24055337.063
  20836213.151   -17842238.37949 -13891505.82348  20836212.640    20836219.226
  23349235.024   -11215159.04649  -8117211.61446  23349234.141    23349246.463
  21925459.632   -17086134.99249 -13305591.35947  21925458.571    21925466.425
  21947477.208   -14507784.08449 -11291760.57347  21947476.588    21947484.576
 03  6 10  0 13 30.0000000  0  6G14G16G25G 1G20G11
  23798918.110    18321087.81849  14273550.37045  23798917.353    23798925.254
  24037786.675    -7511529.37949  -5843859.36445  24037785.968    24037799.594
  20843199.316   -17805525.75049 -13862898.56748  20843198.804    20843205.395
  23336523.040   -11281960.44449  -8169264.38546  23336522.102    23336534.277
  21910543.370   -17164520.22949 -13366670.67247  21910542.297    21910550.076
  21956792.719   -14458831.14149 -11253615.47647  21956792.069    21956800.104
 03  6 10  0 14  0.0000000  0  6G14G16G25G 1G20G11
  23813452.817    18397468.18449  14333067.49645  23813452.150    23813459.843
  24020256.778    -7603648.74449  -5915640.31245  24020255.864    24020269.474
  20850267.018   -17768384.60949 -13833957.40848  20850266.501    20850273.083
  23323834.184   -11348638.93749  -8221221.39446  23323833.327    23323845.465
  21895668.618   -17242687.31749 -13427580.00247  21895667.545    21895675.298
  21966191.990   -14409437.54849 -11215127.01747  21966191.392    21966199.434
 03  6 10  0 14 30.0000000  0  7G14G16G25G 1G20G11G 2
  23827991.513    18473869.60849  14392601.02145  23827990.806    23827998.699
  24002734.488    -7695727.91849  -5987389.93245  24002733.534    24002747.071
  20857415.556   -17730818.77849 -13804685.31948  20857415.032    20857421.631
  23311168.474   -11415196.67949  -8273084.31546  23311167.616    23311179.739
  21880835.397   -17320636.07849 -13488319.21547  21880834.334    21880842.031
  21975674.466   -14359607.11649 -11176298.16147  21975673.808    21975681.913
  24472766.663    -3484432.36449  -2558840.95745  24472765.548    24472786.509
 03  6 10  0 15  0.0000000  0  7G14G16G25G 1G20G11G 2
  23842534.145    18550291.33549  14452150.37045  23842533.447    23842541.301
  23985220.385    -7787764.15149  -6059106.10245  23985219.408    23985232.832
  20864644.530   -17692830.18649 -13775083.80948  20864644.018    20864650.600
  23298525.660   -11481634.04349  -8324853.43146  23298524.747    23298536.838
  21866044.116   -17398364.60049 -13548886.80647  21866043.044    21866050.709
  21985239.520   -14309342.43649 -11137130.92847  21985238.906    21985247.027
  24456219.072    -3571389.28549  -2626598.99845  24456217.763    24456238.532
 03  6 10  0 15 30.0000000  0  7G14G16G25G 1G20G11G 2
  23857081.280    18626736.83349  14511718.22745  23857080.507    23857088.252
  23967715.401    -7879750.89149  -6130783.72345  23967714.647    23967727.839
  20871954.323   -17654416.88249 -13745151.35348  20871953.817    20871960.400
  23285906.367   -11547947.37649  -8376525.90246  23285905.543    23285917.555
  21851295.850   -17475866.85149 -13609278.08747  21851294.794    21851302.450
  21994887.579   -14258641.87149 -11097624.04847  21994886.927    21994895.032
  24439664.058    -3658383.97049  -2694386.48945  24439662.705    24439683.342
 03  6 10  0 16  0.0000000  0  7G14G16G25G 1G20G11G 2
  23871632.888    18703206.00649  14571304.54545  23871632.163    23871640.060
  23950220.722    -7971684.90049  -6202420.23445  23950219.959    23950232.982
  20879344.599   -17615580.77349 -13714889.44648  20879344.091    20879350.672
  23273310.765   -11614136.84249  -8428101.85646  23273309.943    23273321.844
  21836591.074   -17553140.63249 -13669491.33147  21836590.024    21836597.692
  22004618.120   -14207507.62549 -11057779.22847  22004617.480    22004625.589
  24423102.283    -3745413.82949  -2762201.36845  24423101.129    24423121.335
 03  6 10  0 16 30.0000000  0  7G14G16G25G 1G20G11G 2
  23886188.752    18779697.16749  14630907.99845  23886187.966    23886195.927
  23932736.487    -8063564.49449  -6274014.34345  23932735.502    23932748.584
  20886814.707   -17576325.04449 -13684300.55148  20886814.199    20886820.739
  23260738.374   -11680203.88749  -8479582.42946  23260737.587    23260749.396
  21821929.972   -17630184.88949 -13729525.73847  21821928.923    21821936.560
  22014430.507   -14155943.24349 -11017599.23647  22014429.887    22014437.980
  24406534.233    -3832477.69149  -2830042.74545  24406533.000    24406553.178
 03  6 10  0 17  0.0000000  0  7G14G16G25G 1G20G11G 2
  23900748.621    18856209.93449  14690528.28245  23900747.887    23900755.894
  23915262.662    -8155386.89249  -6345563.91045  23915261.959    23915274.891
  20894364.337   -17536651.42949 -13653386.03848  20894363.823    20894370.376
  23248189.312   -11746148.75849  -8530967.79746  23248188.464    23248200.279
  21807312.866   -17706997.90149 -13789379.95647  21807311.822    21807319.442
  22024324.395   -14103950.68049 -10977085.60047  22024323.738    22024331.879
  24389960.195    -3919573.36749  -2897908.88045  24389958.794    24389978.913
 03  6 10  0 17 30.0000000  0  7G14G16G25G 1G20G11G 2
  23915312.653    18932743.89249  14750165.08245  23915311.904    23915319.875
  23897800.790    -8247149.29149  -6417066.70145  23897799.888    23897812.762
  20901993.162   -17496561.89749 -13622147.43248  20901992.662    20901999.190
  23235663.412   -11811971.56449  -8582258.06646  23235662.596    23235674.375
  21792740.234   -17783577.11249 -13849051.99547  21792739.181    21792746.819
  22034299.229   -14051532.64749 -10936240.43247  22034298.593    22034306.737
  24373380.435    -4006698.22049  -2965797.74945  24373379.012    24373398.984
 03  6 10  0 18  0.0000000  0  7G14G16G25G 1G20G11G 2
  23929880.553    19009298.92549  14809818.30245  23929879.849    23929887.833
  23880350.649    -8338848.66049  -6488520.40245  23880349.778    23880362.538
  20909700.739   -17456058.18849 -13590586.09548  20909700.236    20909706.747
  23223160.784   -11877672.39549  -8633453.28746  23223160.021    23223171.799
  21778212.441   -17859920.70449 -13908540.43647  21778211.398    21778219.017
  22044354.546   -13998691.63349 -10895065.66447  22044353.941    22044362.109
  24356795.378    -4093849.81049  -3033707.45545  24356794.114    24356813.990
 03  6 10  0 18 30.0000000  0  7G14G16G25G 1G20G11G 2
  23944452.530    19085874.70549  14869487.68345  23944451.831    23944459.834
  23862913.027    -8430481.74549  -6559922.45145  23862912.340    23862925.020
  20917486.806   -17415142.02149 -13558703.36248  20917486.315    20917492.848
  23210681.303   -11943251.43349  -8684553.61046  23210680.491    23210692.258
  21763729.981   -17936026.41749 -13967843.51847  21763728.944    21763736.543
  22054490.075   -13945429.58149 -10853562.82047  22054489.434    22054497.583
  24340205.743    -4181025.70249  -3101636.10045  24340204.578    24340224.462
 03  6 10  0 19  0.0000000  0  7G14G16G25G 1G20G11G 2
  23959028.268    19162471.12149  14929173.15645  23959027.480    23959035.659
  23845488.818    -8522045.73549  -6631270.65645  23845487.982    23845500.619
  20925351.052   -17373815.24549 -13526500.66948  20925350.531    20925357.066
  23198225.061   -12008708.68049  -8735559.02246  23198224.254    23198235.837
  21749293.233   -18011891.92249 -14026959.42947  21749292.178    21749299.789
  22064705.185   -13891748.90049 -10811733.76647  22064704.563    22064712.768
  24323612.161    -4268223.46049  -3169581.78045  24323611.026    24323630.581
 03  6 10  0 19 30.0000000  0  7G14G16G25G 1G20G11G 2
  23973607.967    19239087.19149  14988873.90045  23973607.158    23973615.255
  23828078.079    -8613538.09949  -6702563.05745  23828077.317    23828089.885
  20933292.826   -17332080.58549 -13493980.14448  20933292.333    20933298.898
  23185791.774   -12074044.95049  -8786470.17646  23185790.952    23185802.481
  21734902.455   -18087515.57949 -14085886.88447  21734901.391    21734909.039
  22074999.500   -13837652.16649 -10769580.51547  22074998.846    22075007.116
  24307014.917    -4355441.10249  -3237542.95845  24307013.536    24307033.050
 03  6 10  0 20  0.0000000  0  7G14G16G25G 1G20G11G 2
  23988191.285    19315722.93349  15048590.00145  23988190.431    23988198.655
  23810681.732    -8704955.45549  -6773796.99545  23810680.899    23810693.375
  20941312.078   -17289939.09549 -13461142.60548  20941311.572    20941318.159
  23173381.536   -12139260.15949  -8837286.98646  23173380.713    23173392.182
  21720558.209   -18162894.67549 -14144623.77247  21720557.161    21720564.822
  22085372.530   -13783141.56249 -10727104.77347  22085371.915    22085380.179
  24290414.269    -4442675.71949  -3305517.35745  24290412.918    24290432.282
 03  6 10  0 20 30.0000000  0  7G14G16G25G 1G20G11G 2
  24002778.375    19392378.77349  15108321.74145  24002777.562    24002785.778
  23793300.175    -8796294.47549  -6844969.92945  23793299.492    23793311.747
  20949408.393   -17247392.49949 -13427989.41148  20949407.887    20949414.505
  23160994.389   -12204353.92449  -8888009.18046  23160993.588    23161004.933
  21706260.958   -18238026.95849 -14203168.34847  21706259.919    21706267.500
  22095824.000   -13728219.04949 -10684308.06147  22095823.370    22095831.658
  24273810.587    -4529924.66449  -3373502.95545  24273809.692    24273828.791
 03  6 10  0 21  0.0000000  0  7G14G16G25G 1G20G11G 2
  24017369.456    19469054.50649  15168068.99945  24017368.641    24017376.727
  23775934.177    -8887551.92149  -6916079.29645  23775933.454    23775945.588
  20957581.529   -17204442.54949 -13394521.90948  20957581.029    20957587.604
  23148630.414   -12269326.23049  -8938636.72846  23148629.667    23148640.916
  21692011.205   -18312909.89349 -14261518.63247  21692010.144    21692017.657
  22106353.436   -13672886.78349 -10641192.07047  22106352.800    22106361.100
  24257204.904    -4617185.18849  -3441497.55845  24257204.158    24257222.938
 03  6 10  0 21 30.0000000  0  7G14G16G25G 1G20G11G 2
  24031963.975    19545748.92149  15227830.82745  24031963.158    24031971.197
  23758584.264    -8978725.77649  -6987123.51345  23758583.375    23758595.462
  20965830.790   -17161092.30349 -13360742.49048  20965830.268    20965836.849
  23136289.378   -12334178.38049  -8989170.64546  23136288.571    23136299.697
  21677809.035   -18387542.49349 -14319673.84447  21677807.966    21677815.459
  22116960.105   -13617148.43549 -10597759.64647  22116959.487    22116967.795
  24240597.510    -4704456.01949  -3509500.19145  24240596.555    24240615.293
 03  6 10  0 22  0.0000000  0  7G14G16G25G 1G20G11G 2
  24046562.043    19622462.60449  15287607.63745  24046561.272    24046569.413
  23741250.719    -9069812.04349  -7058099.51645  23741249.946    23741261.975
  20974156.094   -17117342.52749 -13326651.75048  20974155.584    20974162.171
  23123971.300   -12398909.48549  -9039610.25046  23123970.568    23123981.541
  21663655.154   -18461921.24749 -14377631.25847  21663654.095    21663661.578
  22127643.920   -13561005.18449 -10554011.72447  22127643.261    22127651.567
  24223988.777    -4791733.31149  -3577507.88045  24223987.753    24224006.358
 03  6 10  0 22 30.0000000  0  7G14G16G25G 1G20G11G 2
  24061163.930    19699194.87249  15347398.90545  24061163.183    24061171.219
  23723934.392    -9160808.47149  -7129005.51345  23723933.643    23723945.588
  20982556.918   -17073195.77649 -13292251.68448  20982556.398    20982562.979
  23111676.139   -12463520.19349  -9089956.05346  23111675.320    23111686.303
  21649549.954   -18536044.53949 -14435389.60747  21649548.889    21649556.374
  22138404.135   -13504460.05149 -10509950.64447  22138403.472    22138411.805
  24207379.120    -4879014.97549  -3645518.99945  24207378.002    24207396.654
 03  6 10  0 23  0.0000000  0  7G14G16G25G 1G20G11G 2
  24075769.072    19775945.82949  15407204.78745  24075768.402    24075776.471
  23706635.948    -9251711.66749  -7199838.85245  23706635.108    23706646.931
  20991033.023   -17028653.53849 -13257543.44248  20991032.501    20991039.095
  23099403.826   -12528010.51049  -9140208.03046  23099403.066    23099413.972
  21635493.799   -18609910.05049 -14492947.08647  21635492.730    21635500.203
  22149240.466   -13447515.04049 -10465577.97647  22149239.790    22149248.117
  24190769.388    -4966298.36449  -3713531.44545  24190768.141    24190786.569
 03  6 10  0 23 30.0000000  0  7G14G16G25G 1G20G11G 2
  24090377.911    19852715.23149  15467025.02045  24090377.139    24090385.228
  23689355.762    -9342518.41849  -7270597.05945  23689354.892    23689366.590
  20999583.958   -16983718.09949 -13222528.81048  20999583.451    20999590.014
  23087154.526   -12592380.48649  -9190366.24846  23087153.736    23087164.565
  21621487.078   -18683515.44849 -14550301.87747  21621486.007    21621493.484
  22160152.372   -13390172.93449 -10420895.88147  22160151.716    22160159.984
  24174159.885    -5053580.90949  -3781543.24345  24174158.429    24174176.642
 03  6 10  0 24  0.0000000  0  7G14G16G25G 1G20G11G 2
  24104990.117    19929502.80449  15526859.43145  24104989.273    24104997.597
  23672094.242    -9433225.92149  -7341277.92845  23672093.581    23672105.133
  21008209.382   -16938391.24749 -13187209.18748  21008208.860    21008215.420
  23074928.099   -12656630.31249  -9240430.85146  23074927.271    23074938.055
  21607530.272   -18756858.57149 -14607452.29947  21607529.209    21607536.731
  22171139.390   -13332435.87249 -10375906.03247  22171138.740    22171147.040
  24157550.751    -5140860.16249  -3849552.47945  24157549.277    24157567.320
 03  6 10  0 24 30.0000000  0  7G14G16G25G 1G20G11G 2
  24119605.871    20006308.74349  15586708.12845  24119605.065    24119613.500
  23654852.484    -9523830.92949  -7411878.93645  23654851.858    23654863.223
  21016908.949   -16892674.47049 -13151585.73048  21016908.447    21016915.004
  23062724.438   -12720759.90849  -9290401.77046  23062723.619    23062734.401
  21593623.855   -18829936.80549 -14664396.31547  21593622.796    21593630.324
  22182201.121   -13274306.21349 -10330610.26547  22182200.472    22182208.802
  24140942.590    -5228133.42249  -3917557.07445  24140941.345    24140959.201
 03  6 10  0 25  0.0000000  0  7G14G16G25G 1G20G11G 2
  24134224.828    20083132.26049  15646570.54845  24134224.094    24134232.569
  23637630.816    -9614330.92649  -7482398.12145  23637629.970    23637641.290
  21025682.332   -16846570.20449 -13115660.33848  21025681.833    21025688.364
  23050543.665   -12784769.90049  -9340279.49346  23050542.762    23050553.496
  21579768.189   -18902748.45949 -14721132.61047  21579767.138    21579774.634
  22193337.075   -13215786.52949 -10285010.59547  22193336.443    22193344.791
  24124336.363    -5315398.71849  -3985555.44845  24124334.921    24124352.654
 03  6 10  0 25 30.0000000  0  7G14G16G25G 1G20G11G 2
  24148847.354    20159973.79749  15706446.98745  24148846.651    24148855.009
  23620429.571    -9704721.99649  -7552832.44945  23620428.928    23620440.222
  21034529.147   -16800079.98549 -13079434.19748  21034528.629    21034535.150
  23038385.651   -12848659.79049  -9390063.63446  23038384.708    23038395.494
  21565963.820   -18975290.58849 -14777658.88447  21565962.765    21565970.245
  22204546.857   -13156878.88649 -10239108.60547  22204546.262    22204554.615
  24107732.140    -5402652.81349  -4053545.11445  24107730.547    24107748.120
 03  6 10  0 26  0.0000000  0  7G14G16G25G 1G20G11G 2
  24163473.219    20236832.67249  15766336.93945  24163472.387    24163480.804
  23603249.918    -9795001.36649  -7623179.71745  23603249.081    23603260.330
  21043448.966   -16753205.92849 -13042908.96548  21043448.464    21043454.977
  23026250.497   -12912430.06149  -9439754.55646  23026249.529    23026260.265
  21552211.057   -19047561.44149 -14833973.77347  21552209.996    21552217.523
  22215830.034   -13097586.20649 -10192906.59447  22215829.381    22215837.703
  24091130.008    -5489893.51449  -4121524.35845  24091128.690    24091146.218
 03  6 10  0 26 30.0000000  0  7G14G16G25G 1G20G11G 2
  24178102.361    20313709.33349  15826240.74945  24178101.559    24178109.953
  23586091.972    -9885165.87649  -7693437.50945  23586091.109    23586102.321
  21052441.537   -16705949.70349 -13006085.94048  21052441.028    21052447.512
  23014138.005   -12976080.44149  -9489352.07546  23014137.055    23014147.763
  21538510.450   -19119558.25249 -14890075.12747  21538509.400    21538516.924
  22227185.926   -13037910.66949 -10146406.25247  22227185.290    22227193.644
  24074531.100    -5577117.85249  -4189490.84545  24074530.020    24074547.411
 03  6 10  0 27  0.0000000  0  7G14G16G25G 1G20G11G 2
  24192734.778    20390602.90249  15886157.74445  24192734.069    24192742.401
  23568956.305    -9975212.87949  -7763603.72345  23568955.511    23568966.646
  21061506.367   -16658313.70049 -12968966.98948  21061505.863    21061512.368
  23002048.293   -13039611.67349  -9538856.74646  23002047.364    23002057.942
  21524862.347   -19191279.33949 -14945961.63247  21524861.299    21524868.782
  22238614.184   -12977855.25049 -10099609.89647  22238613.508    22238621.856
  24057936.060    -5664324.00949  -4257443.15745  24057934.899    24057951.993
 03  6 10  0 27 30.0000000  0  7G14G16G25G 1G20G11G 2
  24207370.464    20467513.51949  15946088.02245  24207369.746    24207378.128
  23551843.681   -10065139.23649  -7833675.92845  23551842.859    23551853.958
  21070643.096   -16610299.84449 -12931553.59848  21070642.608    21070649.095
  22989981.272   -13103023.59149  -9588268.45346  22989980.318    22989990.834
  21511267.145   -19262722.29149 -15001631.40647  21511266.120    21511273.521
  22250114.264   -12917422.05349 -10052519.17247  22250113.627    22250121.984
  24041344.937    -5751508.94849  -4325378.95345  24041343.734    24041360.771
 03  6 10  0 28  0.0000000  0  7G14G16G25G 1G20G11G 2
  24222009.327    20544441.16349  16006031.56045  24222008.683    24222017.081
  23534754.708   -10154941.48149  -7903651.42045  23534753.849    23534764.899
  21079851.455   -16561909.77749 -12893847.06248  21079850.943    21079857.446
  22977936.803   -13166316.36749  -9637587.30746  22977935.926    22977946.452
  21497725.399   -19333884.65549 -15057082.54247  21497724.365    21497731.717
  22261685.816   -12856613.51249 -10005135.97347  22261685.146    22261693.505
  24024758.272    -5838670.02749  -4393296.16145  24024757.128    24024774.033
 03  6 10  0 28 30.0000000  0  7G14G16G25G 1G20G11G 2
  24236651.488    20621385.51549  16065988.12545  24236650.757    24236659.092
  23517689.788   -10244616.67549  -7973527.93645  23517688.973    23517699.983
  21089131.021   -16513145.33449 -12855848.79948  21089130.519    21089136.961
  22965915.056   -13229489.99349  -9686813.34146  22965914.249    22965924.677
  21484237.489   -19404764.11149 -15112313.22847  21484236.453    21484243.780
  22273328.303   -12795432.06749  -9957462.19946  22273327.676    22273336.014
  24008176.910    -5925804.88649  -4461192.92645  24008175.537    24008192.343
 03  6 10  0 29  0.0000000  0  7G14G16G25G 1G20G11G 2
  24251296.838    20698346.60949  16125957.73245  24251296.097    24251304.403
  23500649.674   -10334161.66949  -8043303.00145  23500648.930    23500659.896
  21098481.456   -16464008.60649 -12817560.44348  21098480.936    21098487.420
  22953915.981   -13292544.62349  -9735946.64546  22953915.195    22953925.618
  21470803.765   -19475358.48649 -15167321.76947  21470802.733    21470810.031
  22285041.236   -12733880.50349  -9909500.01846  22285040.637    22285048.941
  23991600.638    -6012910.96949  -4529067.29245  23991599.332    23991616.093
 03  6 10  0 29 30.0000000  0  7G14G16G25G 1G20G11G 2
  24265945.172    20775324.42449  16185940.38545  24265944.376    24265952.968
  23483635.068   -10423573.36149  -8112974.19345  23483634.299    23483645.189
  21107902.347   -16414501.50149 -12778983.48148  21107901.844    21107908.296
  22941939.669   -13355480.15249  -9784987.15046  22941938.886    22941949.232
  21457424.831   -19545665.19949 -15222106.15647  21457423.775    21457431.058
  22296824.119   -12671961.13949  -9861251.24746  22296823.540    22296831.854
  23975030.059    -6099985.25549  -4596916.89245  23975029.204    23975045.833
 03  6 10  0 30  0.0000000  0  7G14G16G25G 1G20G11G 2
  24280596.815    20852318.75149  16245935.89445  24280596.023    24280604.585
  23466646.277   -10512848.80049  -8182539.22446  23466645.549    23466656.410
  21117393.327   -16364626.18349 -12740119.60148  21117392.813    21117399.238
  22929985.886   -13418296.96249  -9833935.14446  22929985.122    22929995.345
  21444101.030   -19615682.18249 -15276664.77747  21444099.959    21444107.226
  22308676.558   -12609676.53649  -9812717.87446  22308675.935    22308684.282
  23958466.605    -6187025.32549  -4664739.83345  23958465.641    23958482.206
 03  6 10  0 30 30.0000000  0  7G14G16G25G 1G20G11G 2
  24295251.435    20929329.26649  16305944.03745  24295250.628    24295259.238
  23449683.977   -10601985.03649  -8251995.78146  23449683.332    23449694.109
  21126953.929   -16314384.86349 -12700970.52748  21126953.414    21126959.855
  22918054.674   -13480995.32149  -9882790.84846  22918053.911    22918064.114
  21430832.771   -19685407.14449 -15330995.84947  21430831.684    21430838.901
  22320597.934   -12547029.60949  -9763902.17046  22320597.312    22320605.655
  23941910.171    -6274028.96749  -4732534.39745  23941909.033    23941925.503
 03  6 10  0 31  0.0000000  0  7G14G16G25G 1G20G11G 2
  24309909.167    21006355.85849  16365964.67045  24309908.300    24309916.994
  23432749.018   -10690978.80949  -8321341.33446  23432748.196    23432758.882
  21136583.832   -16263779.45949 -12661537.75248  21136583.328    21136589.755
  22906146.023   -13543575.11949  -9931554.16446  22906145.226    22906155.450
  21417620.452   -19754837.96949 -15385097.72047  21417619.381    21417626.601
  22332587.891   -12484022.47649  -9714805.78246  22332587.261    22332595.602
  23925360.857    -6360993.39249  -4800298.39945  23925359.830    23925376.152
 03  6 10  0 31 30.0000000  0  7G14G16G25G 1G20G11G 2
  24324569.972    21083398.16349  16425997.56945  24324569.082    24324577.693
  23415841.446   -10779827.27049  -8390573.65046  23415840.662    23415851.339
  21146282.554   -16212812.18549 -12621822.99647  21146282.044    21146288.476
  22894259.785   -13606036.85749  -9980225.47946  22894258.995    22894269.110
  21404464.521   -19823972.48449 -15438968.70347  21404463.448    21404470.678
  22344645.750   -12420658.37049  -9665431.24046  22344645.124    22344653.503
  23908819.562    -6447916.38249  -4868030.13845  23908818.520    23908834.730
 03  6 10  0 32  0.0000000  0  7G14G16G25G 1G20G11G 2
  24339233.719    21160456.70449  16486043.13245  24339232.900    24339241.533
  23398962.187   -10868527.05649  -8459690.12546  23398961.436    23398972.060
  21156049.936   -16161484.40549 -12581827.32948  21156049.452    21156055.891
  22882396.087   -13668380.17849 -10028804.53446  22882395.298    22882405.483
  21391365.523   -19892807.79749 -15492606.54347  21391364.457    21391371.706
  22356771.187   -12356939.36249  -9615780.15746  22356770.530    22356778.881
  23892286.838    -6534794.60049  -4935726.99645  23892285.806    23892301.907
 03  6 10  0 32 30.0000000  0  7G14G16G25G 1G20G11G 2
  24353900.476    21237530.80549  16546100.83845  24353899.556    24353908.433
  23382111.835   -10957075.36049  -8528688.57346  23382111.011    23382121.598
  21165885.479   -16109798.42249 -12541552.54747  21165884.953    21165891.419
  22870554.928   -13730605.64749 -10077291.75746  22870554.105    22870564.256
  21378323.891   -19961342.21549 -15546009.92547  21378322.805    21378329.955
  22368963.499   -12292868.46149  -9565854.86546  22368962.849    22368971.229
  23875762.843    -6621626.15149  -5003387.48245  23875761.905    23875777.922
 03  6 10  0 33  0.0000000  0  7G14G16G25G 1G20G11G 2
  24368570.281    21314620.80849  16606170.94145  24368569.380    24368578.152
  23365290.871   -11045468.74149  -8597566.31246  23365290.126    23365300.646
  21175788.795   -16057755.80749 -12500999.87347  21175788.297    21175794.782
  22858736.130   -13792712.81549 -10125686.78446  22858735.397    22858745.447
  21365339.973   -20029572.95249 -15599176.66947  21365338.864    21365345.992
  22381222.438   -12228447.50549  -9515656.81246  22381221.762    22381230.241
  23859248.529    -6708407.84549  -5071009.12045  23859247.587    23859263.466
 03  6 10  0 33 30.0000000  0  7G14G16G25G 1G20G11G 2
  24383242.929    21391726.48049  16666253.23545  24383242.093    24383250.879
  23348500.047   -11133704.17049  -8666320.97146  23348499.370    23348509.731
  21185759.636   -16005358.99249 -12460171.19347  21185759.134    21185765.602
  22846939.946   -13854701.95749 -10173989.85046  22846939.154    22846949.124
  21352414.164   -20097497.95549 -15652105.17647  21352413.072    21352420.244
  22393547.417   -12163679.26449  -9465188.15146  22393546.770    22393555.288
  23842744.117    -6795137.14249  -5138589.94545  23842743.164    23842759.037
 03  6 10  0 34  0.0000000  0  7G14G16G25G 1G20G11G 2
  24397918.636    21468847.89349  16726347.81345  24397917.843    24397926.705
  23331740.039   -11221778.24549  -8734949.90346  23331739.284    23331749.636
  21195797.534   -15952609.54549 -12419067.74247  21195797.015    21195803.520
  22835166.098   -13916573.01649 -10222200.89946  22835165.364    22835175.370
  21339547.112   -20165114.66949 -15704793.46747  21339546.020    21339553.170
  22405938.109   -12098566.30249  -9414450.88646  22405937.432    22405946.010
  23826250.119    -6881811.22649  -5206127.75345  23826249.281    23826265.045
 03  6 10  0 34 30.0000000  0  7G14G16G25G 1G20G11G 2
  24412597.430    21545984.38849  16786454.10045  24412596.551    24412605.299
  23315011.149   -11309688.60349  -8803451.26046  23315010.344    23315020.611
  21205901.915   -15899510.41849 -12377691.80847  21205901.410    21205907.943
  22823414.693   -13978326.61349 -10270320.43246  22823413.950    22823423.830
  21326739.056   -20232421.28649 -15757240.12247  21326737.957    21326745.085
  22418393.619   -12033112.36049  -9363447.92046  22418392.969    22418401.573
  23809767.263    -6968428.14949  -5273621.02245  23809766.283    23809781.929
 03  6 10  0 35  0.0000000  0  7G14G16G25G 1G20G11G 2
  24427278.744    21623136.09749  16846572.25845  24427277.947    24427286.822
  23298313.852   -11397432.03149  -8871822.56646  23298313.084    23298323.334
  21216072.606   -15846063.26149 -12336044.67947  21216072.099    21216078.622
  22811685.605   -14039962.73449 -10318348.41446  22811684.800    22811694.663
  21313990.489   -20299415.23249 -15809443.14047  21313989.392    21313996.496
  22430913.626   -11967319.53049  -9312180.88646  22430912.972    22430921.616
  23793295.838    -7054985.20449  -5341067.64345  23793294.746    23793310.186
 03  6 10  0 35 30.0000000  0  7G14G16G25G 1G20G11G 2
  24441963.262    21700302.87549  16906702.11545  24441962.431    24441971.233
  23281649.186   -11485005.06549  -8940061.07246  23281648.300    23281658.531
  21226309.118   -15792270.16049 -12294127.97747  21226308.582    21226315.128
  22799978.837   -14101481.41049 -10366284.87946  22799978.064    22799987.948
  21301301.809   -20366094.31349 -15861400.80747  21301300.717    21301307.798
  22443497.702   -11901190.24649  -9260651.67346  22443497.040    22443505.724
  23776836.190    -7141479.80749  -5408465.59545  23776835.020    23776850.410
 03  6 10  0 36  0.0000000  0  7G14G16G25G 1G20G11G 2
  24456650.423    21777484.73949  16966843.80145  24456649.753    24456658.512
  23265017.335   -11572404.91749  -9008164.63846  23265016.485    23265026.639
  21236610.997   -15738133.14849 -12251943.29547  21236610.491    21236617.057
  22788294.418   -14162882.75949 -10414129.92346  22788293.583    22788303.496
  21288673.511   -20432456.23849 -15913111.33947  21288672.439    21288679.495
  22456145.293   -11834727.10249  -9208862.31946  22456144.634    22456153.324
  23760388.957    -7227909.31449  -5475812.83945  23760387.717    23760402.897
 03  6 10  0 36 30.0000000  0  7G14G16G25G 1G20G11G 2
  24471340.643    21854681.82449  17026997.31745  24471339.953    24471348.726
  23248419.072   -11659628.17749  -9076130.60846  23248418.305    23248428.380
  21246978.013   -15683653.99849 -12209492.00647  21246977.504    21246984.088
  22776632.298   -14224166.76649 -10461883.54046  22776631.526    22776641.384
  21276106.027   -20498498.59549 -15964572.85647  21276104.949    21276112.024
  22468856.004   -11767932.58449  -9156814.73946  22468855.315    22468863.984
  23743954.390    -7314271.05049  -5543107.27945  23743953.284    23743968.352
 03  6 10  0 37  0.0000000  0  7G14G16G25G 1G20G11G 2
  24486033.609    21931894.10049  17087162.69445  24486033.102    24486041.847
  23231855.153   -11746671.65149  -9143956.48746  23231854.342    23231864.286
  21257409.781   -15628834.67549 -12166775.64747  21257409.262    21257415.865
  22764992.512   -14285333.54249 -10509545.79746  22764991.754    22765001.599
  21263599.830   -20564218.80449 -16015783.34947  21263598.747    21263605.832
  22481629.196   -11700809.30849  -9104510.99146  22481628.562    22481637.219
  23727533.286    -7400562.09849  -5610346.65845  23727532.421    23727547.256
 03  6 10  0 37 30.0000000  0  7G14G16G25G 1G20G11G 2
  24500729.551    22009121.12549  17147339.52845  24500729.078    24500737.758
  23215325.864   -11833532.53649  -9211640.09346  23215325.095    23215334.950
  21267905.801   -15573677.67149 -12123796.16547  21267905.306    21267911.904
  22753375.097   -14346383.54249 -10557117.07646  22753374.227    22753384.027
  21251155.259   -20629615.15149 -16066741.48647  21251154.192    21251161.263
  22494464.408   -11633360.59049  -9051953.64746  22494463.737    22494472.428
  23711126.462    -7486780.34349  -5677529.29145  23711125.350    23711139.963
 03  6 10  0 38  0.0000000  0  7G14G16G25G 1G20G11G 2
  24515428.078    22086362.55849  17207527.59045  24515427.483    24515436.422
  23198831.927   -11920207.97249  -9279179.18546  23198831.134    23198841.019
  21278465.698   -15518184.98049 -12080555.10247  21278465.195    21278471.809
  22741779.692   -14407316.88849 -10604597.44346  22741778.854    22741788.647
  21238772.757   -20694685.37549 -16117445.50047  21238771.694    21238778.737
  22507360.871   -11565589.26149  -8999144.92346  22507360.239    22507368.970
  23694733.864    -7572923.29849  -5744653.27445  23694732.599    23694747.131
 03  6 10  0 38 30.0000000  0  7G14G16G25G 1G20G11G 2
  24530129.527    22163619.14049  17267727.42145  24530128.995    24530137.683
  23182373.982   -12006694.40549  -9346571.01346  23182373.158    23182382.930
  21289089.136   -15462358.43749 -12037053.90147  21289088.631    21289095.252
  22730206.624   -14468133.05649 -10651986.50346  22730205.806    22730215.547
  21226452.883   -20759426.48449 -16167893.06247  21226451.853    21226458.858
  22520318.425   -11497497.32349  -8946086.36546  22520317.788    22520326.545
  23678355.888    -7658987.64149  -5811716.01245  23678354.797    23678369.237
 03  6 10  0 39  0.0000000  0  7G14G16G25G 1G20G11G 2
  24544833.840    22240890.71749  17327938.93645  24544833.275    24544842.133
  23165952.516   -12092988.67149  -9413813.10146  23165951.755    23165961.469
  21299775.747   -15406199.91049 -11993294.01247  21299775.252    21299781.836
  22718655.883   -14528832.15249 -10699284.34746  22718655.043    22718664.737
  21214196.055   -20823836.37249 -16218082.52847  21214195.028    21214202.024
  22533336.525   -11429087.41349  -8892780.04946  22533335.876    22533344.605
  23661993.364    -7744970.74149  -5878715.44845  23661992.405    23662006.775
 03  6 10  0 39 30.0000000  0  7G14G16G25G 1G20G11G 2
  24559540.945    22318176.44049  17388161.46945  24559540.334    24559549.234
  23149568.152   -12179088.46249  -9480903.64446  23149567.348    23149577.041
  21310524.997   -15349712.05549 -11949277.50847  21310524.531    21310531.109
  22707127.273   -14589415.03549 -10746491.63546  22707126.424    22707136.066
  21202002.621   -20887913.21049 -16268012.48247  21202001.580    21202008.560
  22546414.360   -11360363.07849  -8839228.73246  22546413.722    22546422.477
  23645646.841    -7830870.77949  -5945650.17645  23645645.850    23645660.189
 03  6 10  0 40  0.0000000  0  7G14G16G25G 1G20G11G 2
  24574250.656    22395476.44549  17448395.15645  24574250.100    24574258.800
  23133221.390   -12264990.22249  -9547839.88446  23133220.605    23133230.255
  21321336.733   -15292896.54549 -11905005.69247  21321336.236    21321342.825
  22695620.819   -14649881.51149 -10793608.22546  22695619.930    22695629.546
  21189872.974   -20951654.70049 -16317681.12147  21189871.947    21189878.896
  22559551.661   -11291326.64549  -8785434.21446  22559551.018    22559559.789
  23629316.808    -7916684.84249  -6012517.89745  23629315.726    23629329.905
 03  6 10  0 40 30.0000000  0  7G14G16G25G 1G20G11G 2
  24588963.454    22472791.68849  17508640.69845  24588962.865    24588971.533
  23116913.107   -12350690.07249  -9614618.78946  23116912.285    23116921.868
  21332210.417   -15235754.75949 -11860479.62847  21332209.908    21332216.503
  22684136.500   -14710230.87849 -10840633.55446  22684135.710    22684145.243
  21177807.780   -21015057.48649 -16367085.84147  21177806.740    21177813.647
  22572747.977   -11221979.86849  -8731397.86146  22572747.332    22572756.133
  23613003.580    -8002409.34549  -6079315.84545  23613002.629    23613016.734
 03  6 10  0 41  0.0000000  0  7G14G16G25G 1G20G11G 2
  24603678.720    22550120.40249  17568896.74145  24603678.018    24603686.991
  23100643.425   -12436186.73949  -9681239.36246  23100642.658    23100652.205
  21343145.518   -15178290.53349 -11815702.30747  21343145.028    21343151.565
  22672674.238   -14770464.96749 -10887569.06146  22672673.435    22672682.981
  21165807.130   -21078121.18649 -16416226.34147  21165806.087    21165813.009
  22586002.470   -11152327.56949  -8677123.44646  22586001.806    22586010.639
  23596707.424    -8088043.55049  -6146043.44445  23596706.690    23596720.729
 03  6 10  0 41 30.0000000  0  7G14G16G25G 1G20G11G 2
  24618396.746    22627463.89749  17629164.29845  24618396.038    24618405.040
  23084413.415   -12521475.68649  -9747698.09246  23084412.574    23084422.072
  21354141.872   -15120504.45449 -11770674.19047  21354141.376    21354147.874
  22661234.175   -14830582.43849 -10934413.71546  22661233.335    22661242.869
  21153871.686   -21140842.01749 -16465099.67147  21153870.650    21153877.583
  22599314.812   -11082370.97049  -8622611.91246  22599314.131    22599323.013
  23580429.616    -8173583.44249  -6212697.53745  23580428.690    23580442.593
 03  6 10  0 42  0.0000000  0  7G14G16G25G 1G20G11G 2
  24633117.524    22704821.70849  17689443.02545  24633116.878    24633125.892
  23068223.275   -12606554.40049  -9813993.00246  23068222.522    23068231.958
  21365198.957   -15062398.95549 -11725397.17647  21365198.451    21365205.010
  22649816.162   -14890583.97549 -10981168.01946  22649815.299    22649824.755
  21142001.855   -21203218.19949 -16513704.45147  21142000.817    21142007.723
  22612684.481   -11012113.30249  -8567865.77446  22612683.845    22612692.738
  23564170.099    -8259026.96049  -6279276.53545  23564169.056    23564182.792
 03  6 10  0 42 30.0000000  0  7G14G16G25G 1G20G11G 2
  24647841.167    22782194.30649  17749733.25845  24647840.395    24647849.431
  23052073.947   -12691419.09449  -9880121.13946  23052073.172    23052082.545
  21376316.536   -15003975.59549 -11679872.48447  21376316.054    21376322.637
  22638420.234   -14950469.04949 -11027831.57646  22638419.389    22638428.843
  21130198.191   -21265246.69749 -16562038.31147  21130197.149    21130204.012
  22626111.099   -10941556.71749  -8512886.73046  22626110.420    22626119.348
  23547929.374    -8344370.79849  -6345777.87845  23547928.329    23547942.032
 03  6 10  0 43  0.0000000  0  7G14G16G25G 1G20G11G 2
  24662567.609    22859581.51649  17810034.89245  24662566.870    24662575.821
  23035965.796   -12776066.82049  -9946080.22646  23035965.133    23035974.493
  21387494.232   -14945236.75949 -11634101.95147  21387493.736    21387500.243
  22627046.485   -15010237.88449 -11074404.56446  22627045.653    22627055.154
  21118461.061   -21326925.55949 -16610099.72147  21118460.014    21118466.890
  22639593.924   -10870704.08749  -8457676.99146  22639593.296    22639602.272
  23531708.136    -8429612.55049  -6412199.67445  23531707.149    23531720.657
 03  6 10  0 43 30.0000000  0  7G14G16G25G 1G20G11G 2
  24677296.680    22936982.99249  17870347.60645  24677295.963    24677304.748
  23019899.564   -12860494.81349 -10011868.08846  23019898.916    23019908.178
  21398731.421   -14886184.87349 -11588087.49647  21398730.907    21398737.440
  22615694.812   -15069890.80249 -11120887.23046  22615693.991    22615703.443
  21106790.862   -21388252.81449 -16657887.15347  21106789.794    21106796.678
  22653132.562   -10799558.65649  -8402239.10646  22653131.923    22653140.901
  23515506.788    -8514749.91449  -6478540.12545  23515505.744    23515519.154
 03  6 10  0 44  0.0000000  0  7G14G16G25G 1G20G11G 2
  24692028.393    23014398.30749  17930671.12045  24692027.745    24692036.610
  23003875.674   -12944700.25649 -10077482.52346  23003875.019    23003884.260
  21410027.782   -14826821.94749 -11541830.67147  21410027.287    21410033.831
  22604365.117   -15129428.04549 -11167279.75146  22604364.294    22604373.670
  21095187.984   -21449226.16549 -16705398.81147  21095186.916    21095193.796
  22666726.371   -10728123.15449  -8346575.18246  22666725.762    22666734.726
  23499325.774    -8599780.35549  -6544797.26745  23499324.747    23499338.132
 03  6 10  0 44 30.0000000  0  7G14G16G25G 1G20G11G 2
  24706762.965    23091828.38449  17991006.10845  24706762.204    24706771.128
  22987894.807   -13028679.45549 -10142920.67146  22987894.093    22987903.365
  21421383.024   -14767149.68649 -11495332.80147  21421382.526    21421389.050
  22593057.580   -15188849.03449 -11213581.69146  22593056.782    22593066.111
  21083652.983   -21509842.96849 -16752632.64047  21083651.902    21083658.770
  22680374.971   -10656399.62649  -8290686.83746  22680374.324    22680383.362
  23483165.760    -8684700.52649  -6610968.48345  23483164.734    23483178.034
 03  6 10  0 45  0.0000000  0  7G14G16G25G 1G20G11G 2
  24721500.224    23169272.50849  18051352.05245  24721499.472    24721508.257
  22971957.547   -13112429.66449 -10208180.37946  22971956.836    22971966.033
  21432796.714   -14707170.53749 -11448595.80147  21432796.194    21432802.697
  22581772.017   -15248154.50549 -11259793.61946  22581771.215    22581780.505
  21072186.162   -21570101.29349 -16799587.12647  21072185.090    21072191.976
  22694077.608   -10584391.80349  -8234576.95446  22694076.998    22694086.066
  23467027.042    -8769508.51049  -6677052.27845  23467025.957    23467039.163
 03  6 10  0 45 30.0000000  0  7G14G16G25G 1G20G11G 2
  24736240.048    23246730.75849  18111709.04145  24736239.208    24736248.157
  22956064.471   -13195947.97049 -10273259.39446  22956063.688    22956072.861
  21444268.369   -14646886.40349 -11401621.15747  21444267.842    21444274.384
  22570508.451   -15307344.53349 -11305915.59446  22570507.623    22570516.799
  21060787.943   -21629998.90749 -16846260.54047  21060786.881    21060793.778
  22707833.956   -10512102.21249  -8178247.51646  22707833.334    22707842.391
  23450910.048    -8854201.73549  -6743046.67645  23450909.094    23450922.204
 03  6 10  0 46  0.0000000  0  6G16G25G 1G20G11G 2
  22940215.690   -13279232.66349 -10338156.36346  22940215.000    22940224.166
  21455797.366   -14586300.81349 -11354411.60847  21455796.881    21455803.454
  22559266.550   -15366420.40449 -11351948.62846  22559265.736    22559274.917
  21049458.616   -21689534.74749 -16892652.04947  21049457.564    21049464.430
  22721643.140   -10439534.99449  -8121701.75246  22721642.484    22721651.547
  23434815.305    -8938778.90449  -6808950.63445  23434814.296    23434827.415
 03  6 10  0 46 30.0000000  0  6G16G25G 1G20G11G 2
  22924412.367   -13362279.21749 -10402867.78346  22924411.621    22924420.694
  21467383.650   -14525414.65349 -11306967.84847  21467383.150    21467389.694
  22548046.644   -15425380.94949 -11397891.78046  22548045.823    22548054.966
  21038198.806   -21748705.31049 -16938758.92447  21038197.739    21038204.600
  22735504.850   -10366691.77549  -8064940.90346  22735504.158    22735513.243
  23418743.354    -9023236.00249  -6874761.02345  23418742.352    23418755.412
 03  6 10  0 47  0.0000000  0  6G16G25G 1G20G11G 2
  22908655.207   -13445082.54449 -10467389.67546  22908654.479    22908663.500
  21479027.183   -14464227.67649 -11259289.68147  21479026.689    21479033.180
  22536849.115   -15484223.90149 -11443743.31046  22536848.325    22536857.412
  21027009.324   -21807506.01549 -16984577.59847  21027008.275    21027015.138
  22749418.959   -10293573.02549  -8007965.36846  22749418.265    22749427.428
  23402695.139    -9107568.01749  -6940473.96845  23402694.302    23402707.224
 03  6 10  0 47 30.0000000  0  6G16G25G 1G20G11G 2
  22892944.709   -13527640.70649 -10531720.53646  22892944.025    22892952.992
  21490727.186   -14402743.55749 -11211379.98047  21490726.670    21490733.207
  22525673.664   -15542950.76249 -11489504.38146  22525672.861    22525681.965
  21015890.423   -21865935.97149 -17030107.37947  21015889.383    21015896.225
  22763384.733   -10220182.74249  -7950778.24946  22763384.057    22763393.257
  23386671.277    -9191773.59249  -7006088.37345  23386670.226    23386683.073
 03  6 10  0 48  0.0000000  0  6G16G25G 1G20G11G 2
  22877281.645   -13609950.35149 -10595857.73946  22877280.868    22877289.810
  21502483.461   -14340963.89649 -11163239.98747  21502482.981    21502489.514
  22514520.400   -15601561.29949 -11535174.81246  22514519.573    22514528.620
  21004842.592   -21923992.64949 -17075346.28947  21004841.541    21004848.352
  22777401.742   -10146523.55149  -7893381.57946  22777401.034    22777410.269
  23370671.761    -9275850.06649  -7071602.17945  23370670.762    23370683.460
 03  6 10  0 48 30.0000000  0  6G16G25G 1G20G11G 2
  22861666.231   -13692009.32949 -10659799.63246  22861665.439    22861674.311
  21514295.484   -14278891.68349 -11114872.02947  21514294.964    21514301.468
  22503389.069   -15660056.43149 -11580755.31246  22503388.239    22503397.223
  20993866.006   -21981674.82049 -17120293.38147  20993864.940    20993871.733
  22791469.110   -10072599.25549  -7835778.34246  22791468.464    22791477.685
  23354697.186    -9359795.73849  -7137014.07246  23354696.201    23354708.807
 03  6 10  0 49  0.0000000  0  6G16G25G 1G20G11G 2
  22846099.095   -13773814.42849 -10723543.69346  22846098.326    22846107.148
  21526162.753   -14216528.71649 -11066277.51147  21526162.208    21526168.708
  22492279.699   -15718436.08049 -11626245.82346  22492278.859    22492287.876
  20982961.191   -22038979.88849 -17164946.62647  20982960.119    20982966.889
  22805586.547    -9998412.29049  -7777970.43246  22805585.821    22805595.117
  23338748.149    -9443607.68849  -7202321.75746  23338747.022    23338759.594
 03  6 10  0 49 30.0000000  0  6G16G25G 1G20G11G 2
  22830580.852   -13855362.51849 -10787087.50346  22830580.069    22830588.815
  21538084.919   -14153877.02549 -11017458.01647  21538084.414    21538090.925
  22481192.234   -15776700.31349 -11671646.41846  22481191.415    22481200.426
  20972128.527   -22095905.69749 -17209304.34647  20972127.458    20972134.258
  22819753.239    -9923965.96049  -7719960.41146  22819752.584    22819761.905
  23322824.855    -9527283.42249  -7267523.31546  23322823.795    23322836.293
 03  6 10  0 50  0.0000000  0  6G16G25G 1G20G11G 2
  22815111.991   -13936650.98749 -10850429.00746  22815111.277    22815119.954
  21550061.655   -14090938.94349 -10968415.36347  21550061.143    21550067.664
  22470126.723   -15834849.45249 -11716957.32546  22470125.906    22470134.853
  20961368.396   -22152450.22949 -17253364.97047  20961367.327    20961374.108
  22833968.877    -9849262.98249  -7661750.41746  22833968.202    22833977.489
  23306927.985    -9610820.44249  -7332616.78646  23306926.961    23306939.446
 03  6 10  0 50 30.0000000  0  6G16G25G 1G20G11G 2
  22799693.251   -14017676.77549 -10913565.82446  22799692.481    22799701.110
  21562092.491   -14027716.58249 -10919151.18847  21562091.964    21562098.490
  22459083.142   -15892883.60849 -11762178.63946  22459082.331    22459091.268
  20950681.249   -22208611.32449 -17297126.81347  20950680.186    20950686.960
  22848232.750    -9774306.33949  -7603342.76046  22848232.068    22848241.370
  23291058.090    -9694216.33649  -7397600.29546  23291056.957    23291069.463
 03  6 10  0 51  0.0000000  0  6G16G25G 1G20G11G 2
  22784324.990   -14098437.05649 -10976495.75846  22784324.181    22784332.794
  21574176.883   -13964212.36249 -10869667.38847  21574176.388    21574182.898
  22448061.389   -15950802.95049 -11807310.48646  22448060.571    22448069.480
  20940067.521   -22264386.53249 -17340587.96247  20940066.454    20940073.235
  22862544.268    -9699098.89649  -7544739.66046  22862543.611    22862552.971
  23275215.436    -9777468.60749  -7462471.90146  23275214.315    23275226.807
 03  6 10  0 51 30.0000000  0  6G16G25G 1G20G11G 2
  22769007.913   -14178928.21149 -11039215.98446  22769007.104    22769015.695
  21586314.646   -13900427.89949 -10819965.21847  21586314.136    21586320.700
  22437061.500   -16008607.03749 -11852352.52646  22437060.686    22437069.575
  20929527.715   -22319773.54249 -17383746.62647  20929526.670    20929533.393
  22876903.137    -9623643.25449  -7485943.18446  22876902.431    22876911.825
  23259400.686    -9860574.30049  -7527229.29046  23259399.643    23259412.013
 03  6 10  0 52  0.0000000  0  6G16G25G 1G20G11G 2
  22753742.681   -14259147.08449 -11101724.04846  22753741.863    22753750.386
  21598505.415   -13836365.03149 -10770046.11047  21598504.896    21598511.521
  22426083.622   -16066295.66349 -11897304.60546  22426082.796    22426091.628
  20919062.201   -22374769.94349 -17426600.91847  20919061.146    20919067.872
  22891308.664    -9547942.02549  -7426955.33646  22891307.957    22891317.427
  23243614.547    -9943530.43549  -7591870.14146  23243613.421    23243625.684
 03  6 10  0 52 30.0000000  0  6G16G25G 1G20G11G 2
  22738529.562   -14339091.53849 -11164018.28046  22738528.814    22738537.284
  21610748.536   -13772026.91749 -10719912.52147  21610748.040    21610754.609
  22415127.494   -16123869.95449 -11942167.59546  22415126.671    22415135.495
  20908671.242   -22429374.37349 -17469149.78147  20908670.209    20908676.945
  22905760.228    -9471998.97549  -7367779.05646  22905759.542    22905769.058
  23227857.190   -10026335.40549  -7656393.20946  23227855.990    23227868.140
 03  6 10  0 53  0.0000000  0  6G16G25G 1G20G11G 2
  22723369.530   -14418758.19449 -11226096.05346  22723368.670    22723377.082
  21623043.864   -13707414.78549 -10669565.41047  21623043.339    21623049.897
  22404193.210   -16181329.34849 -11986941.05646  22404192.431    22404201.250
  20898355.453   -22483584.16349 -17511391.13847  20898354.391    20898361.094
  22920257.290    -9395816.52049  -7308416.21746  22920256.656    22920266.214
  23212129.031   -10108986.01149  -7720795.99846  23212127.889    23212139.959
 03  6 10  0 53 30.0000000  0  6G16G25G 1G20G11G 2
  22708262.635   -14498144.12649 -11287955.08546  22708261.878    22708270.298
  21635390.764   -13642531.23749 -10619006.81047  21635390.271    21635396.812
  22393280.833   -16238673.93949 -12031625.05646  22393280.045    22393288.824
  20888115.108   -22537397.18449 -17553323.32147  20888114.050    20888120.788
  22934799.486    -9319397.69349  -7248869.20146  22934798.769    22934808.345
  23196430.724   -10191479.80949  -7785076.60046  23196429.576    23196441.618
 03  6 10  0 54  0.0000000  0  6G16G25G 1G20G11G 2
  22693209.848   -14577246.62649 -11349593.25046  22693209.079    22693217.493
  21647788.881   -13577378.52049 -10568238.47247  21647788.408    21647794.985
  22382390.219   -16295904.15749 -12076219.94746  22382389.414    22382398.155
  20877950.641   -22590811.58249 -17594944.89147  20877949.576    20877956.336
  22949385.945    -9242745.49749  -7189140.33846  22949385.301    22949394.939
  23180762.662   -10273814.61649  -7849233.30746  23180761.583    23180773.543
 03  6 10  0 54 30.0000000  0  6G16G25G 1G20G11G 2
  22678211.565   -14656062.46749 -11411008.05846  22678210.831    22678219.186
  21660237.996   -13511958.45749 -10517261.81547  21660237.489    21660244.068
  22371521.387   -16353019.75349 -12120725.51246  22371520.619    22371529.331
  20867862.562   -22643824.73449 -17636253.80647  20867861.480    20867868.232
  22964016.401    -9165862.72849  -7129231.80046  22964015.752    22964025.342
  23165125.541   -10355987.60949  -7913263.94746  23165124.328    23165136.302
 03  6 10  0 55  0.0000000  0  6G16G25G 1G20G11G 2
  22663268.563   -14734588.33549 -11472196.90746  22663267.786    22663276.084
  21672737.468   -13446273.14049 -10466078.46847  21672736.947    21672743.553
  22360674.412   -16410020.67349 -12165141.72546  22360673.618    22360682.296
  20857851.185   -22696434.45449 -17677248.35947  20857850.121    20857856.874
  22978690.164    -9088751.99249  -7069145.63346  22978689.505    22978699.144
  23149519.687   -10437995.91249  -7977166.25346  23149518.482    23149530.349
 03  6 10  0 55 30.0000000  0  6G16G25G 1G20G11G 2
  22648381.155   -14812821.30749 -11533157.53446  22648380.452    22648388.683
  21685287.151   -13380324.20149 -10414689.70047  21685286.648    21685293.243
  22349849.301   -16466906.82649 -12209468.51346  22349848.522    22349857.121
  20847917.076   -22748638.57649 -17717926.86247  20847916.008    20847922.753
  22993406.708    -9011416.24449  -7008884.12546  22993406.056    22993415.747
  23133945.621   -10519836.85049  -8040938.13946  23133944.464    23133956.245
 03  6 10  0 56  0.0000000  0  6G16G25G 1G20G11G 2
  22633550.060   -14890758.53349 -11593887.72046  22633549.400    22633557.600
  21697886.530   -13314114.15649 -10363097.47347  21697886.026    21697892.606
  22339046.018   -16523678.32349 -12253705.96546  22339045.181    22339053.778
  20838060.550   -22800434.83649 -17758287.54947  20838059.482    20838066.206
  23008165.568    -8933858.41949  -6948449.58546  23008164.879    23008174.627
  23118403.994   -10601507.92749  -8104577.68746  23118402.773    23118414.434
 03  6 10  0 56 30.0000000  0  6G16G25G 1G20G11G 2
  22618775.830   -14968397.14049 -11654385.21146  22618775.148    22618783.306
  21710535.194   -13247645.11049 -10311303.43447  21710534.689    21710541.271
  22328264.456   -16580335.44449 -12297854.28846  22328263.645    22328272.236
  20828281.980   -22851821.32949 -17798328.94148  20828280.941    20828287.616
  23022966.155    -8856081.45049  -6887844.26146  23022965.462    23022975.248
  23102894.934   -10683006.97149  -8168083.19246  23102893.800    23102905.429
 03  6 10  0 57  0.0000000  0  6G16G25G 1G20G11G 2
  22604059.049   -15045734.15649 -11714647.69946  22604058.307    22604066.429
  21723232.782   -13180918.84049 -10259308.95247  21723232.269    21723238.881
  22317504.792   -16636877.90649 -12341913.27046  22317503.964    22317512.494
  20818581.879   -22902795.71649 -17838049.20748  20818580.826    20818587.499
  23037807.870    -8778088.20749  -6827070.43246  23037807.207    23037816.959
  23087419.224   -10764331.18749  -8231452.47246  23087418.144    23087429.627
 03  6 10  0 57 30.0000000  0  6G16G25G 1G20G11G 2
  22589400.272   -15122765.82249 -11774672.24746  22589399.564    22589407.619
  21735978.875   -13113937.53649 -10207115.75747  21735978.385    21735985.021
  22306766.892   -16693305.35049 -12385882.63246  22306766.077    22306774.576
  20808960.649   -22953355.37649 -17877446.31648  20808959.617    20808966.248
  23052690.260    -8699881.11349  -6766129.97246  23052689.665    23052699.384
  23071977.392   -10845477.46849  -8294683.13846  23071976.333    23071987.732
 03  6 10  0 58  0.0000000  0  6G16G25G 1G20G11G 2
  22574800.167   -15199489.52949 -11834456.83246  22574799.432    22574807.421
  21748773.195   -13046702.98649 -10154725.22147  21748772.698    21748779.326
  22296050.911   -16749617.93349 -12429762.48346  22296050.106    22296058.575
  20799418.764   -23003498.40049 -17916518.77448  20799417.723    20799424.309
  23067612.759    -8621463.36449  -6705025.35046  23067612.154    23067621.908
  23056569.835   -10926443.39349  -8357773.23146  23056568.810    23056580.186
 03  6 10  0 58 30.0000000  0  6G16G25G 1G20G11G 2
  22560259.206   -15275902.37949 -11893999.18946  22560258.438    22560266.420
  21761615.316   -12979217.34549 -10102139.02647  21761614.788    21761621.434
  22285356.788   -16805815.63449 -12473552.82646  22285355.949    22285364.441
  20789956.534   -23053222.53049 -17955264.81748  20789955.473    20789962.090
  23082574.839    -8542837.85049  -6643758.83446  23082574.206    23082584.001
  23041197.137   -11007226.36849  -8420720.76146  23041196.102    23041207.502
 03  6 10  0 59  0.0000000  0  6G16G25G 1G20G11G 2
  22545777.938   -15352001.34449 -11953296.96446  22545777.193    22545785.154
  21774504.803   -12911482.59549 -10049358.71847  21774504.284    21774510.930
  22274684.470   -16861898.50549 -12517253.69246  22274683.648    22274692.149
  20780574.440   -23102525.62749 -17993682.78648  20780573.398    20780579.980
  23097575.906    -8464006.91449  -6582332.26046  23097575.311    23097585.117
  23025859.826   -11087823.83549  -8483523.74146  23025858.760    23025870.053
 03  6 10  0 59 30.0000000  0  6G16G25G 1G20G11G 2
  22531356.932   -15427783.66649 -12012348.01146  22531356.157    22531364.177
  21787441.293   -12843500.95049  -9996386.02947  21787440.769    21787447.419
  22264033.988   -16917866.83549 -12560865.29846  22264033.151    22264041.671
  20771272.844   -23151405.80449 -18031771.20948  20771271.798    20771278.356
  23112615.456    -8384974.25549  -6520748.49446  23112614.759    23112624.655
  23010558.164   -11168233.49849  -8546180.40446  23010557.163    23010568.315
 03  6 10  1  0  0.0000000  0  6G16G25G 1G20G11G 2
  22516996.755   -15503246.41549 -12071150.03446  22516995.988    22517003.989
  21800424.321   -12775274.46849  -9943222.55947  21800423.830    21800430.531
  22253405.299   -16973720.35649 -12604387.44446  22253404.459    22253412.997
  20762052.155   -23199860.70449 -18069528.24548  20762051.111    20762057.685
  23127692.845    -8305742.27349  -6459009.43646  23127692.191    23127702.111
  22995292.767   -11248452.55349  -8608688.54346  22995291.791    22995302.852
 03  6 10  1  0 30.0000000  0  6G16G25G 1G20G11G 2
  22502698.040   -15578386.08349 -12129700.30746  22502697.257    22502705.212
  21813453.719   -12706804.97349  -9889869.72047  21813453.211    21813459.904
  22242798.596   -17029458.53549 -12647819.71547  22242797.801    22242806.253
  20752912.868   -23247887.80249 -18106951.93248  20752911.818    20752918.403
  23142807.780    -8226313.68149  -6397117.15446  23142807.058    23142817.042
  22980064.299   -11328478.03149  -8671045.84846  22980063.304    22980074.316
 03  6 10  1  1  0.0000000  0  6G16G25G 1G20G11G 2
  22488461.122   -15653201.14749 -12187997.65146  22488460.333    22488468.239
  21826528.718   -12638095.72249  -9836330.06847  21826528.179    21826534.861
  22232213.636   -17085082.78349 -12691163.21147  22232212.829    22232221.210
  20743855.135   -23295486.27749 -18144041.62948  20743854.089    20743860.658
  23157959.295    -8146692.37649  -6335074.72246  23157958.648    23157968.549
  22964872.808   -11408308.53349  -8733251.23046  22964871.891    22964882.820
 03  6 10  1  1 30.0000000  0  6G16G25G 1G20G11G 2
  22474286.749   -15727687.25649 -12246038.66346  22474285.986    22474293.894
  21839649.129   -12569147.35249  -9782604.08647  21839648.626    21839655.329
  22221650.627   -17140591.73349 -12734416.86347  22221649.792    22221658.167
  20734879.660   -23342652.74549 -18180794.69348  20734878.612    20734885.204
  23173147.078    -8066880.22949  -6272883.58946  23173146.514    23173156.392
  22949719.260   -11487940.27449  -8795301.73646  22949718.281    22949729.179
 03  6 10  1  2  0.0000000  0  6G16G25G 1G20G11G 2
  22460175.517   -15801841.90249 -12303821.39646  22460174.745    22460182.644
  21852814.682   -12499962.05949  -9728693.48747  21852814.181    21852820.880
  22211109.469   -17195985.56049 -12777580.80247  22211108.650    22211116.985
  20725986.687   -23389385.32049 -18217209.66148  20725985.639    20725992.255
  23188370.738    -7986880.31049  -6210546.15846  23188370.086    23188380.007
  22934603.849   -11567371.10649  -8857195.69146  22934602.955    22934613.799
 03  6 10  1  2 30.0000000  0  6G16G25G 1G20G11G 2
  22446127.749   -15875662.70049 -12361343.99246  22446126.990    22446134.904
  21866024.846   -12430542.26349  -9674600.15347  21866024.316    21866031.013
  22200590.129   -17251264.90249 -12820655.53847  22200589.312    22200597.638
  20717176.605   -23435682.48549 -18253285.35548  20717175.568    20717182.137
  23203629.305    -7906696.10349  -6148065.09546  23203628.712    23203638.704
  22919527.326   -11646599.05849  -8918931.55946  22919526.283    22919536.988
 03  6 10  1  3  0.0000000  0  6G16G25G 1G20G11G 2
  22432144.301   -15949145.93449 -12418603.55046  22432143.520    22432151.415
  21879279.289   -12360889.65449  -9620325.40647  21879278.780    21879285.463
  22190092.686   -17306428.84849 -12863640.35247  22190091.889    22190100.206
  20708449.915   -23481541.46549 -18289019.60048  20708448.859    20708455.431
  23218922.612    -7826329.81949  -6085442.18546  23218922.025    23218931.975
  22904489.923   -11725620.75949  -8980506.72446  22904488.833    22904499.490
 03  6 10  1  3 30.0000000  0  6G16G25G 1G20G11G 2
  22418225.618   -16022288.66349 -12475597.78446  22418224.856    22418232.720
  21892577.698   -12291006.11049  -9565870.71047  21892577.184    21892583.861
  22179617.233   -17361477.45649 -12906535.30247  22179616.431    22179624.776
  20699807.040   -23526960.15349 -18324410.76648  20699805.992    20699812.543
  23234250.057    -7745784.29849  -6022679.59446  23234249.423    23234259.414
  22889492.122   -11804433.61349  -9041919.16346  22889491.146    22889501.708
 03  6 10  1  4  0.0000000  0  6G16G25G 1G20G11G 2
  22404372.263   -16095088.25049 -12532324.63946  22404371.466    22404379.275
  21905919.588   -12220893.98649  -9511237.90847  21905919.098    21905925.787
  22169163.743   -17416410.86049 -12949340.47547  22169162.938    22169171.204
  20691248.251   -23571936.73749 -18359457.43848  20691247.198    20691253.710
  23249610.870    -7665063.04349  -5959780.06846  23249610.309    23249620.336
  22874534.619   -11883035.43049  -9103167.14346  22874533.570    22874544.079
 03  6 10  1  4 30.0000000  0  6G16G25G 1G20G11G 2
  22390584.668   -16167542.12849 -12588782.11846  22390583.882    22390591.702
  21919304.552   -12150555.41449  -9456428.64447  21919304.071    21919310.768
  22158732.111   -17471229.19149 -12992055.98647  22158731.300    22158739.562
  20682773.971   -23616469.25149 -18394158.07748  20682772.934    20682779.480
  23265004.739    -7584168.54149  -5896745.55046  23265004.132    23265014.184
  22859617.611   -11961423.74249  -9164248.76746  22859616.627    22859627.107
 03  6 10  1  5  0.0000000  0  6G16G25G 1G20G11G 2
  22376863.440   -16239647.37149 -12644967.92446  22376862.660    22376870.424
  21932732.264   -12079992.21649  -9401444.35747  21932731.796    21932738.540
  22148322.369   -17525932.23249 -13034681.66247  22148321.546    22148329.860
  20674384.584   -23660555.58349 -18428511.04248  20674383.552    20674390.083
  23280430.985    -7503103.73549  -5833578.32646  23280430.323    23280440.420
  22844741.912   -12039595.79649  -9225161.88046  22844740.856    22844751.280
 03  6 10  1  5 30.0000000  0  6G16G25G 1G20G11G 2
  22363209.046   -16311401.23949 -12700879.94946  22363208.333    22363215.995
  21946202.315   -12009206.98049  -9346287.03647  21946201.821    21946208.528
  22137934.596   -17580520.23949 -13077217.70347  22137933.787    22137942.041
  20666080.467   -23704193.95349 -18462514.94848  20666079.431    20666085.944
  23295889.067    -7421871.74449  -5770280.81946  23295888.372    23295898.466
  22829907.623   -12117549.32849  -9285904.73346  22829906.674    22829917.055
 03  6 10  1  6  0.0000000  0  6G16G25G 1G20G11G 2
  22349622.217   -16382800.68449 -12756515.78746  22349621.419    22349629.005
  21959714.205   -11938201.44049  -9290958.06047  21959713.716    21959720.437
  22127568.733   -17634993.06549 -13119663.98647  22127567.914    22127576.130
  20657861.998   -23747382.26149 -18496168.15148  20657860.961    20657867.480
  23311378.427    -7340475.39249  -5706855.25246  23311377.759    23311387.818
  22815115.639   -12195281.77749  -9346475.29746  22815114.516    22815124.893
 03  6 10  1  6 30.0000000  0  6G16G25G 1G20G11G 2
  22336103.353   -16453841.97049 -12811872.55546  22336102.668    22336110.234
  21973267.739   -11866977.00349  -9235458.51847  21973267.254    21973274.003
  22117224.879   -17689349.91549 -13162019.90647  22117224.045    22117232.269
  20649729.711   -23790117.54049 -18529468.34848  20649728.670    20649735.166
  23326898.516    -7258917.14649  -5643303.53546  23326897.914    23326908.005
  22800366.175   -12272789.87449  -9406871.05146  22800365.096    22800375.440
 03  6 10  1  7  0.0000000  0  6G16G25G 1G20G11G 2
  22322653.293   -16524522.97549 -12866948.57746  22322652.429    22322659.995
  21986862.535   -11795535.90549  -9179790.14447  21986862.072    21986868.779
  22106903.080   -17743590.94449 -13204285.57647  22106902.270    22106910.518
  20641683.959   -23832398.29349 -18562414.37148  20641682.930    20641689.382
  23342448.975    -7177199.83649  -5579627.88146  23342448.329    23342458.411
  22785659.789   -12350071.51249  -9467090.35246  22785658.746    22785669.029
 03  6 10  1  7 30.0000000  0  6G16G25G 1G20G11G 2
  22309272.028   -16594840.89949 -12921741.68546  22309271.323    22309278.869
  22000498.200   -11723880.25049  -9123954.58647  22000497.712    22000504.452
  22096603.311   -17797716.32449 -13246461.13947  22096602.481    22096610.724
  20633724.993   -23874222.73249 -18595004.82348  20633723.970    20633730.421
  23358029.006    -7095326.50549  -5515830.64745  23358028.354    23358038.523
  22770997.075   -12427124.11349  -9527131.18046  22770995.977    22771006.229
 03  6 10  1  8  0.0000000  0  6G16G25G 1G20G11G 2
  22295960.525   -16664793.50249 -12976250.12546  22295959.738    22295967.231
  22014174.210   -11652012.39149  -9067953.67147  22014173.715    22014180.503
  22086325.441   -17851726.57049 -13288546.97547  22086324.636    22086332.855
  20625853.203   -23915589.29249 -18627238.48848  20625852.180    20625858.574
  23373638.149    -7013300.74549  -5451914.63545  23373637.407    23373647.613
  22756378.207   -12503945.69749  -9586992.00846  22756377.168    22756387.395
 03  6 10  1  8 30.0000000  0  6G16G25G 1G20G11G 2
  22282719.103   -16734377.08849 -13030471.02246  22282718.365    22282725.814
  22027890.349   -11579933.53249  -9011788.35047  22027889.859    22027896.694
  22076069.701   -17905620.47049 -13330542.16447  22076068.876    22076077.119
  20618069.098   -23956494.95249 -18659113.00648  20618068.078    20618074.500
  23389275.862    -6931124.48049  -5387881.36845  23389275.152    23389285.417
  22741804.002   -12580532.86849  -9646670.16546  22741802.978    22741813.199
 03  6 10  1  9  0.0000000  0  6G16G25G 1G20G11G 2
  22269548.359   -16803589.57149 -13084402.75246  22269547.554    22269555.037
  22041646.192   -11507646.18249  -8955460.55847  22041645.716    22041652.568
  22065835.922   -17959398.89449 -13372447.36547  22065835.130    22065843.345
  20610372.935   -23996938.55149 -18690627.47648  20610371.906    20610378.329
  23404941.505    -6848801.57649  -5323733.82845  23404940.786    23404951.101
  22727274.729   -12656884.02249  -9706164.42246  22727273.726    22727283.931
 03  6 10  1  9 30.0000000  0  6G16G25G 1G20G11G 2
  22256448.744   -16872427.62649 -13138042.71446  22256448.022    22256455.500
  22055441.344   -11435152.21249  -8898971.76847  22055440.856    22055447.700
  22055624.306   -18013061.13349 -13414262.02947  22055623.510    22055631.659
  20602765.158   -24036917.63049 -18721779.98248  20602764.113    20602770.533
  23420634.602    -6766334.27449  -5259473.78845  23420633.952    23420644.321
  22712790.998   -12732996.21849  -9765472.48046  22712789.943    22712800.098
 03  6 10  1 10  0.0000000  0  7G13G16G25G 1G20G11G 2
  24651739.786    -2795254.63349  -2026831.04745  24651739.356    24651751.282
  22243420.901   -16940889.28049 -13191389.38146  22243420.111    22243427.563
  22069275.298   -11362454.62249  -8842324.30547  22069274.789    22069281.590
  22045434.643   -18066607.95649 -13455986.76347  22045433.834    22045441.971
  20595245.964   -24076431.14549 -18752569.70948  20595244.939    20595251.355
  23436354.497    -6683726.16149  -5195104.00145  23436353.870    23436364.360
  22698353.017   -12808867.64049  -9824592.91546  22698351.998    22698362.102
 03  6 10  1 10 30.0000000  0  7G13G16G25G 1G20G11G 2
  24636793.235    -2873796.82249  -2088032.48045  24636792.874    24636804.708
  22230464.211   -17008976.68149 -13244444.42146  22230463.460    22230470.852
  22083146.725   -11289559.88949  -8785523.23747  22083146.226    22083152.986
  22035266.111   -18120043.88149 -13497625.09247  22035265.293    22035273.394
  20587814.877   -24115481.73349 -18782998.71348  20587813.843    20587820.248
  23452099.683    -6600984.94249  -5130630.52245  23452099.080    23452109.699
  22683960.497   -12884500.52749  -9883527.47946  22683959.402    22683969.469
 03  6 10  1 11  0.0000000  0  7G13G16G25G 1G20G11G 2
  24621852.434    -2952311.23049  -2149212.27845  24621851.958    24621863.792
  22217580.985   -17076678.27349 -13297198.83246  22217580.219    22217587.584
  22097056.982   -11216461.17449  -8728563.21747  22097056.456    22097063.205
  22025120.305   -18173360.18849 -13539170.20247  22025119.497    22025127.544
  20580473.841   -24154058.93049 -18813058.84248  20580472.815    20580479.194
  23467871.366    -6518104.93649  -5066048.90045  23467870.800    23467881.418
  22669615.388   -12959883.63249  -9942267.41846  22669614.363    22669624.349
 03  6 10  1 11 30.0000000  0  7G13G16G25G 1G20G11G 2
  24606916.235    -3030799.48249  -2210371.69545  24606915.837    24606927.571
  22204771.316   -17143993.16549 -13349651.92546  22204770.617    22204777.932
  22111005.280   -11143162.33249  -8671447.26047  22111004.750    22111011.529
  22014996.906   -18226558.75549 -13580623.57047  22014996.075    22015004.115
  20573222.935   -24192162.67349 -18842750.04548  20573221.915    20573228.275
  23483668.621    -6435090.71649  -5001362.69545  23483668.064    23483678.674
  22655317.918   -13035016.59949 -10000812.44346  22655316.921    22655326.822
 03  6 10  1 12  0.0000000  0  7G13G16G25G 1G20G11G 2
  24591984.986    -3109261.72549  -2271510.86345  24591984.653    24591996.361
  22192035.791   -17210918.63149 -13401801.56046  22192035.064    22192042.336
  22124991.267   -11069665.39849  -8614176.93447  22124990.778    22124997.510
  22004895.865   -18279639.56449 -13621985.18347  22004895.048    22004903.111
  20566062.457   -24229791.12349 -18872070.88848  20566061.432    20566067.783
  23499490.843    -6351945.53849  -4936574.44645  23499490.221    23499500.845
  22641068.656   -13109897.26149 -10059160.85646  22641067.475    22641077.380
 03  6 10  1 12 30.0000000  0  7G13G16G25G 1G20G11G 2
  24577058.667    -3187699.10349  -2332630.65445  24577058.466    24577070.087
  22179374.611   -17277453.03749 -13453646.47947  22179373.949    22179381.193
  22139014.377   -10995973.76849  -8556754.90547  22139013.870    22139020.575
  21994817.122   -18332603.47049 -13663255.69347  21994816.315    21994824.358
  20558992.633   -24266943.48349 -18901020.75548  20558991.596    20558997.913
  23515337.089    -6268673.44049  -4871687.29945  23515336.510    23515347.134
  22626867.470   -13184523.92649 -10117311.36846  22626866.396    22626876.250
 03  6 10  1 13  0.0000000  0  7G13G16G25G 1G20G11G 2
  24562137.263    -3266110.90049  -2393730.52445  24562136.977    24562148.361
  22166788.506   -17343593.45849 -13505184.39647  22166787.782    22166795.008
  22153074.280   -10922088.88349  -8499182.27647  22153073.746    22153080.460
  21984760.763   -18385449.93149 -13704434.69247  21984759.928    21984767.956
  20552013.771   -24303617.50549 -18929597.89048  20552012.718    20552019.061
  23531207.172    -6185276.40949  -4806702.79945  23531206.604    23531217.261
  22612715.310   -13258893.68349 -10175261.67646  22612714.174    22612723.998
 03  6 10  1 13 30.0000000  0  7G13G16G25G 1G20G11G 2
  24547220.419    -3344498.34349  -2454811.40745  24547220.103    24547231.452
  22154277.635   -17409338.14949 -13556413.94347  22154276.894    22154284.105
  22167170.306   -10848013.69749  -8441461.37647  22167169.798    22167176.497
  21974726.555   -18438179.83449 -13745522.87047  21974725.714    21974733.720
  20545126.082   -24339812.49349 -18957801.75648  20545125.036    20545131.351
  23547100.337    -6101758.63649  -4741624.24145  23547099.572    23547110.305
  22598612.117   -13333005.39849 -10233010.92746  22598611.037    22598620.840
 03  6 10  1 14  0.0000000  0  7G13G16G25G 1G20G11G 2
  24532308.509    -3422860.39249  -2515872.50545  24532308.115    24532319.501
  22141842.660   -17474683.60949 -13607332.40947  22141841.962    22141849.204
  22181302.366   -10773749.26249  -8383593.01247  22181301.854    22181308.528
  21964714.687   -18490792.20149 -13786519.46047  21964713.875    21964721.856
  20538330.074   -24375525.57149 -18985630.10848  20538329.051    20538335.362
  23563015.939    -6018122.26849  -4676453.25145  23563015.224    23563026.021
  22584558.775   -13406855.71949 -10290556.49446  22584557.676    22584567.445
 03  6 10  1 14 30.0000000  0  7G13G16G25G 1G20G11G 2
  24517401.155    -3501197.52349  -2576914.17945  24517400.907    24517412.161
  22129484.182   -17539627.75249 -13657938.15347  22129483.408    22129490.683
  22195469.976   -10699297.80049  -8325578.89947  22195469.496    22195476.184
  21954725.191   -18543287.23549 -13827424.62047  21954724.351    21954732.307
  20531626.071   -24410755.25749 -19013081.79048  20531625.042    20531631.350
  23578953.431    -5934370.66849  -4611192.48345  23578952.681    23578963.655
  22570555.554   -13480442.44849 -10347896.66746  22570554.470    22570564.168
 03  6 10  1 15  0.0000000  0  7G13G16G25G 1G20G11G 2
  24502498.714    -3579509.62649  -2637936.35245  24502498.495    24502509.494
  22117202.556   -17604167.57149 -13708228.85247  22117201.830    22117209.125
  22209672.832   -10624661.49149  -8267420.76447  22209672.364    22209679.057
  21944758.020   -18595664.81949 -13868238.26147  21944757.201    21944765.152
  20525014.457   -24445499.55649 -19040155.25448  20525013.419    20525019.690
  23594912.430    -5850506.54249  -4545844.04445  23594911.662    23594922.707
  22556602.969   -13553763.05749 -10405029.48046  22556601.920    22556611.587
 03  6 10  1 15 30.0000000  0  7G13G16G25G 1G20G11G 2
  24487601.027    -3657796.43549  -2698938.79945  24487600.737    24487611.761
  22104998.486   -17668300.26449 -13758202.30647  22104997.719    22105004.999
  22223910.524   -10549842.27249  -8209120.09447  22223910.037    22223916.706
  21934813.239   -18647924.68449 -13908960.18047  21934812.455    21934820.343
  20518495.474   -24479756.84649 -19066849.22848  20518494.432    20518500.685
  23610892.231    -5766532.32849  -4480409.81245  23610891.599    23610902.740
  22542701.481   -13626815.23749 -10461953.12946  22542700.413    22542710.065
 03  6 10  1 16  0.0000000  0  7G13G16G25G 1G20G11G 2
  24472708.074    -3736058.00649  -2759921.58545  24472707.877    24472718.848
  22092872.253   -17732023.63849 -13807856.80647  22092871.494    22092878.754
  22238182.704   -10474841.61549  -8150678.03647  22238182.207    22238188.831
  21924890.855   -18700066.84049 -13949590.37647  21924890.075    21924897.954
  20512069.590   -24513525.14849 -19093162.17048  20512068.530    20512074.785
  23626892.582    -5682451.33249  -4414892.39245  23626891.873    23626903.072
  22528851.524   -13699596.63549 -10518665.78346  22528850.472    22528860.164
 03  6 10  1 16 30.0000000  0  7G13G16G25G 1G20G11G 2
  24457820.006    -3814294.19049  -2820884.58145  24457819.674    24457830.851
  22080824.535   -17795334.35749 -13857189.76047  22080823.814    22080831.065
  22252488.986   -10399661.53749  -8092096.17747  22252488.473    22252495.126
  21914990.983   -18752090.72649 -13990128.40947  21914990.198    21914998.098
  20505737.066   -24546802.45149 -19119092.52148  20505736.034    20505742.311
  23642912.530    -5598266.14049  -4349293.75745  23642911.982    23642923.108
  22515053.640   -13772104.40549 -10575165.22346  22515052.594    22515062.282
 03  6 10  1 17  0.0000000  0  7G13G16G25G 1G20G11G 2
  24442936.847    -3892504.97849  -2881827.80245  24442936.329    24442947.618
  22068855.752   -17858230.64049 -13906199.76547  22068854.970    22068862.221
  22266828.947   -10324304.35249  -8033376.30647  22266828.465    22266835.131
  21905113.556   -18803996.79649 -14030574.63747  21905112.766    21905120.661
  20499498.247   -24579587.63249 -19144639.39648  20499497.213    20499503.506
  23658951.987    -5513980.23749  -4283616.66445  23658951.208    23658962.414
  22501308.151   -13844336.99849 -10631450.23746  22501307.069    22501316.741
 03  6 10  1 17 30.0000000  0  7G13G16G25G 1G20G11G 2
  24428058.469    -3970690.74549  -2942751.50645  24428057.997    24428069.062
  22056966.244   -17920710.01649 -13954884.92147  22056965.491    22056972.710
  22281202.326   -10248771.94949  -7974519.90947  22281201.845    22281208.458
  21895258.575   -18855785.14549 -14070929.13947  21895257.749    21895265.599
  20493353.367   -24611878.98649 -19169801.47448  20493352.357    20493358.651
  23675009.735    -5429596.55549  -4217863.38245  23675009.102    23675020.303
  22487615.438   -13916291.97449 -10687518.93646  22487614.399    22487624.048
 03  6 10  1 18  0.0000000  0  7G13G16G25G 1G20G11G 2
  24413184.822    -4048851.12649  -3003655.42745  24413184.385    24413195.382
  22045156.719   -17982769.32049 -14003242.74347  22045155.956    22045163.152
  22295608.709   -10173066.26349  -7915528.48947  22295608.192    22295614.766
  21885426.041   -18907455.05449 -14111191.34647  21885425.216    21885433.040
  20487302.898   -24643674.32349 -19194577.04548  20487301.866    20487308.173
  23691085.774    -5345117.77349  -4152036.01145  23691085.033    23691096.312
  22473976.114   -13987966.61649 -10743369.19146  22473975.051    22473984.689
 03  6 10  1 18 30.0000000  0  7G13G16G25G 1G20G11G 2
  24398316.079    -4126985.55149  -3064539.13345  24398315.718    24398326.870
  22033427.591   -18044405.91349 -14051271.17747  22033426.846    22033434.038
  22310047.779   -10097188.49149  -7856402.97847  22310047.285    22310053.853
  21875616.131   -18959005.92349 -14151360.80047  21875615.347    21875623.156
  20481347.203   -24674971.68049 -19218964.57848  20481346.179    20481352.498
  23707179.312    -5260545.95249  -4086136.10345  23707178.722    23707190.023
  22460390.585   -14059358.12549 -10798998.82146  22460389.606    22460399.210
 03  6 10  1 19  0.0000000  0  7G13G16G25G 1G20G11G 2
  24383452.356    -4205094.01549  -3125402.63045  24383451.978    24383462.967
  22021779.437   -18105617.23449 -14098968.24147  22021778.650    22021785.835
  22324519.155   -10021141.14849  -7797145.32447  22324518.667    22324525.273
  21865828.931   -19010437.88749 -14191437.60047  21865828.152    21865835.910
  20475486.580   -24705769.47349 -19242962.84648  20475485.546    20475491.844
  23723290.156    -5175884.25949  -4020166.20345  23723289.477    23723300.843
  22446859.417   -14130464.36349 -10854406.16046  22446858.434    22446868.039
 03  6 10  1 19 30.0000000  0  7G13G16G25G 1G20G11G 2
  24368593.580    -4283177.09949  -3186246.31345  24368593.185    24368603.896
  22010212.531   -18166401.29349 -14146332.36947  22010211.798    22010218.931
  22339022.389    -9944926.24949  -7737757.11247  22339021.867    22339028.541
  21856064.398   -19061750.85649 -14231421.67247  21856063.592    21856071.330
  20469721.262   -24736066.26149 -19266570.71348  20469720.248    20469726.549
  23739417.401    -5091136.01749  -3954128.84645  23739416.804    23739428.063
  22433382.948   -14201283.18749 -10909589.54546  22433381.953    22433391.545
 03  6 10  1 20  0.0000000  0  7G13G16G25G 1G20G11G 2
  24353739.486    -4361233.87549  -3247069.52945  24353739.068    24353749.969
  21998727.648   -18226754.63849 -14193360.88147  21998726.868    21998733.998
  22353557.207    -9868545.09849  -7678239.36147  22353556.685    22353563.450
  21846322.584   -19112944.18849 -14271312.52947  21846321.776    21846329.515
  20464051.733   -24765859.83449 -19289786.46848  20464050.703    20464057.011
  23755560.707    -5006303.50649  -3888025.84445  23755560.097    23755571.464
  22419961.674   -14271811.81949 -10964546.80046  22419960.744    22419970.290
 03  6 10  1 20 30.0000000  0  7G13G16G25G 1G20G11G 2
  24338890.633    -4439264.74649  -3307872.53045  24338890.405    24338900.800
  21987325.018   -18286675.47049 -14240052.36547  21987324.262    21987331.367
  22368123.232    -9791999.82449  -7618593.72447  22368122.761    22368129.568
  21836603.458   -19164018.14449 -14311110.35947  21836602.675    21836610.419
  20458478.186   -24795148.97549 -19312609.16048  20458477.161    20458483.457
  23771719.463    -4921389.95549  -3821859.67345  23771718.792    23771730.212
  22406596.058   -14342048.27749 -11019276.39746  22406595.087    22406604.588
 03  6 10  1 21  0.0000000  0  7G13G16G25G 1G20G11G 2
  24324046.801    -4517269.25649  -3368655.01645  24324046.344    24324056.473
  21976005.267   -18346160.78649 -14286404.48347  21976004.539    21976011.633
  22382720.231    -9715292.20749  -7558821.57347  22382719.765    22382726.526
  21826907.140   -19214972.26249 -14350814.81547  21826906.367    21826914.103
  20453001.095   -24823931.39249 -19335036.99948  20453000.073    20453006.357
  23787892.977    -4836397.83949  -3755632.29945  23787892.414    23787903.916
  22393286.560   -14411989.80749 -11073776.16946  22393285.551    22393295.010
 03  6 10  1 21 30.0000000  0  7G13G16G25G 1G20G11G 2
  24309207.563    -4595247.45549  -3429417.00245  24309207.496    24309217.606
  21964768.879   -18405208.31549 -14332415.47347  21964768.107    21964775.145
  22397347.747    -9638424.28249  -7498924.51347  22397347.259    22397353.993
  21817233.706   -19265806.50349 -14390425.85647  21817232.914    21817240.654
  20447620.585   -24852206.06449 -19357069.19748  20447619.568    20447625.815
  23804081.037    -4751330.52549  -3689346.32945  23804080.448    23804091.973
  22380033.576   -14481634.32749 -11128044.51746  22380032.586    22380041.997
 03  6 10  1 22  0.0000000  0  7G13G16G25G 1G20G11G 2
  24294373.734    -4673199.33849  -3490158.46245  24294373.456    24294383.512
  21953616.220   -18463815.55549 -14378083.39247  21953615.478    21953622.464
  22412005.417    -9561397.76649  -7438903.88247  22412004.932    22412011.685
  21807583.137   -19316520.46149 -14429943.17247  21807582.335    21807590.110
  20442337.048   -24879971.16549 -19378704.32148  20442336.015    20442342.274
  23820282.776    -4666190.54249  -3623003.72345  23820282.211    23820293.873
  22366837.525   -14550979.69449 -11182079.76146  22366836.501    22366845.889
 03  6 10  1 22 30.0000000  0  7G13G16G25G 1G20G11G 2
  24279544.692    -4751125.20449  -3550879.66845  24279544.422    24279554.384
  21942547.771   -18521980.45149 -14423406.61947  21942547.011    21942554.000
  22426692.865    -9484214.96549  -7378761.46947  22426692.384    22426699.114
  21797955.339   -19367114.55849 -14469367.09447  21797954.530    21797962.297
  20437150.682   -24907225.53249 -19399941.47748  20437149.666    20437155.919
  23836497.765    -4580981.31349  -3556607.17645  23836497.147    23836508.854
  22353698.739   -14620023.91049 -11235880.33946  22353697.747    22353707.096
 03  6 10  1 23  0.0000000  0  7G13G16G25G 1G20G11G 2
  24264720.859    -4829024.51749  -3611580.19345  24264720.494    24264730.518
  21931563.974   -18579700.12049 -14468382.91547  21931563.245    21931570.237
  22441409.713    -9406877.47549  -7318498.50947  22441409.226    22441415.977
  21788350.512   -19417587.89649 -14508696.91447  21788349.699    21788357.510
  20432061.918   -24933967.01749 -19420778.98348  20432060.889    20432067.115
  23852725.488    -4495705.03649  -3490158.37945  23852724.742    23852736.558
  22340617.850   -14688764.15249 -11289444.05546  22340616.853    22340626.150
 03  6 10  1 23 30.0000000  0  7G13G16G25G 1G20G11G 2
  24249902.086    -4906896.85549  -3672259.67845  24249901.902    24249911.544
  21920665.427   -18636972.09949 -14513010.36047  21920664.690    21920671.646
  22456155.751    -9329386.65549  -7258116.08147  22456155.237    22456162.050
  21778768.744   -19467940.06049 -14547932.32047  21778767.943    21778775.749
  20427071.137   -24960193.80849 -19441215.42748  20427070.104    20427076.341
  23868965.382    -4410364.11149  -3423659.20445  23868964.749    23868976.707
  22327595.316   -14757197.93249 -11342768.97547  22327594.268    22327603.519
 03  6 10  1 24  0.0000000  0  7G13G16G25G 1G20G11G 2
  24235088.370    -4984742.60949  -3732918.47245  24235088.198    24235097.871
  21909852.386   -18693794.53649 -14557287.51647  21909851.676    21909858.626
  22470930.406    -9251744.99149  -7197616.10947  22470929.919    22470936.751
  21769210.056   -19518171.37249 -14587073.54847  21769209.250    21769216.992
  20422178.461   -24985904.80149 -19461249.95348  20422177.421    20422183.654
  23885217.094    -4324962.06849  -3357112.40945  23885216.388    23885228.473
  22314631.314   -14825323.61049 -11395853.82147  22314630.313    22314639.511
 03  6 10  1 24 30.0000000  0  7G13G16G25G 1G20G11G 2
  24220279.699    -5062561.28449  -3793556.17645  24220279.690    24220289.396
  21899125.602   -18750164.08849 -14601211.77647  21899124.842    21899131.800
  22485733.584    -9173953.83949  -7136999.65147  22485733.111    22485739.943
  21759674.489   -19568281.20449 -14626120.11947  21759673.671    21759681.367
  20417384.282   -25011098.26449 -19480881.20248  20417383.260    20417389.511
  23901479.832    -4239501.47849  -3290519.99545  23901479.250    23901491.317
  22301726.526   -14893138.51149 -11448696.49747  22301725.477    22301734.654
 03  6 10  1 25  0.0000000  0  7G13G16G25G 1G20G11G 2
  24205476.346    -5140352.95149  -3854172.82045  24205476.159    24205485.713
  21888485.311   -18806078.81149 -14644781.62347  21888484.568    21888491.510
  22500564.889    -9096015.24649  -7076268.31047  22500564.403    22500571.178
  21750161.985   -19618269.41249 -14665071.91647  21750161.157    21750168.874
  20412688.940   -25035772.55149 -19500107.90748  20412687.910    20412694.115
  23917753.193    -4153985.31549  -3223884.28345  23917752.634    23917764.735
  22288881.214   -14960640.35649 -11501295.23747  22288880.209    22288889.358
 03  6 10  1 25 30.0000000  0  7G13G16G25G 1G20G11G 2
  24190677.866    -5218117.41049  -3914768.27245  24190677.813    24190687.545
  21877931.941   -18861536.61349 -14687995.42947  21877931.224    21877938.195
  22515423.896    -9017930.83249  -7015423.34447  22515423.397    22515430.168
  21740672.675   -19668135.68049 -14703928.70447  21740671.856    21740679.582
  20408092.664   -25059926.15349 -19518928.88148  20408091.622    20408097.846
  23934036.539    -4068416.38949  -3157207.45145  23934036.031    23934048.204
  22276095.960   -15027826.95249 -11553648.33247  22276094.940    22276104.099
 03  6 10  1 26  0.0000000  0  7G13G16G25G 1G20G11G 2
  24175885.007    -5295854.15649  -3975342.14345  24175884.714    24175894.552
  21867466.243   -18916534.48849 -14730850.84247  21867465.469    21867472.406
  22530310.237    -8939702.37049  -6954466.12447  22530309.741    22530316.521
  21731206.783   -19717879.35649 -14742689.96247  21731205.959    21731213.646
  20403595.807   -25083557.30649 -19537342.75248  20403594.775    20403600.964
  23950329.440    -3982797.14549  -3090491.41045  23950329.002    23950341.170
  22263371.187   -15094695.53849 -11605753.62547  22263370.180    22263379.324
 03  6 10  1 26 30.0000000  0  7G13G16G25G 1G20G11G 2
  24161097.201    -5373563.78349  -4035894.86545  24161096.841    24161106.521
  21857088.214   -18971070.68049 -14773346.51547  21857087.493    21857094.408
  22545223.547    -8861332.28949  -6893398.56446  22545223.067    22545229.895
  21721764.117   -19767500.96549 -14781356.10647  21721763.256    21721770.936
  20399198.496   -25106665.16449 -19555348.86548  20399197.479    20399203.635
  23966631.359    -3897130.96749  -3023738.79445  23966630.857    23966643.149
  22250707.282   -15161244.60349 -11657609.94447  22250706.267    22250715.368
 03  6 10  1 27  0.0000000  0  7G13G16G25G 1G20G11G 2
  24146314.715    -5451245.71149  -4096426.01345  24146314.285    24146324.047
  21846798.612   -19025142.85349 -14815480.61947  21846797.877    21846804.745
  22560163.553    -8782822.01749  -6832221.75546  22560163.094    22560169.984
  21712344.774   -19816999.72549 -14819926.52647  21712343.927    21712351.589
  20394901.136   -25129247.83449 -19572945.73748  20394900.104    20394906.275
  23982941.752    -3811420.32249  -2956951.51045  23982941.314    23982953.611
  22238104.632   -15227471.55349 -11709215.26447  22238103.621    22238112.699
 03  6 10  1 27 30.0000000  0  7G13G16G25G 1G20G11G 2
  24131537.346    -5528899.80349  -4156935.49045  24131536.995    24131546.845
  21836597.749   -19078748.57749 -14857251.25047  21836596.998    21836603.806
  22575129.913    -8704173.12049  -6770936.93046  22575129.433    22575136.400
  21702948.846   -19866375.49049 -14858401.10947  21702948.022    21702955.647
  20390703.939   -25151304.06749 -19590132.40148  20390702.950    20390709.107
  23999260.114    -3725668.02149  -2890131.79745  23999259.638    23999271.963
  22225563.704   -15293374.36049 -11760568.00447  22225562.663    22225571.691
 03  6 10  1 28  0.0000000  0  7G13G16G25G 1G20G11G 2
  24116765.447    -5606525.86749  -4217423.08445  24116765.091    24116774.649
  21826486.140   -19131885.29749 -14898656.42847  21826485.379    21826492.149
  22590122.256    -8625387.55949  -6709545.60746  22590121.784    22590128.794
  21693576.374   -19915627.89149 -14896779.56147  21693575.540    21693583.141
  20386607.260   -25172832.20249 -19606907.56248  20386606.256    20386612.416
  24015585.896    -3639876.88249  -2823281.82345  24015585.376    24015597.770
  22213084.884   -15358950.56449 -11811666.25547  22213083.902    22213092.874
 03  6 10  1 28 30.0000000  0  7G13G16G25G 1G20G11G 2
  24101998.819    -5684123.97049  -4277888.92145  24101998.425    24102008.149
  21816464.073   -19184551.25149 -14939694.77547  21816463.347    21816470.095
  22605140.312    -8546467.27049  -6648049.29846  22605139.867    22605146.872
  21684227.397   -19964756.90449 -14935061.86847  21684226.592    21684234.150
  20382611.303   -25193831.09449 -19623270.32848  20382610.293    20382616.453
  24031918.549    -3554049.59949  -2756403.68045  24031917.869    24031930.509
  22200668.659   -15424198.22849 -11862508.50247  22200667.638    22200676.534
 03  6 10  1 29  0.0000000  0  7G13G16G25G 1G20G11G 2
  24087237.521    -5761693.42349  -4338332.40745  24087237.253    24087246.916
  21806532.178   -19236743.65749 -14980364.11747  21806531.452    21806538.147
  22620183.736    -8467413.65949  -6586449.10046  22620183.263    22620190.274
  21674902.083   -20013761.56949 -14973247.28147  21674901.278    21674908.792
  20378716.459   -25214298.74149 -19639219.13248  20378715.439    20378721.599
  24048257.461    -3468188.71349  -2689499.36345  24048256.818    24048269.516
  22188315.337   -15489114.70649 -11913092.68347  22188314.390    22188323.228
 03  6 10  1 29 30.0000000  0  7G13G16G25G 1G20G11G 2
  24072481.818    -5839234.70849  -4398753.96145  24072481.449    24072490.928
  21796690.696   -19288460.70149 -15020663.05447  21796689.966    21796696.648
  22635252.113    -8388229.01549  -6524746.80846  22635251.621    22635258.597
  21665600.385   -20062642.19549 -15011336.04047  21665599.578    21665607.075
  20374922.818   -25234234.43849 -19654753.43648  20374921.775    20374927.911
  24064602.245    -3382297.76249  -2622571.63345  24064601.542    24064614.125
  22176025.480   -15553698.48049 -11963417.61147  22176024.468    22176033.242
 03  6 10  1 30  0.0000000  0  7G13G16G25G 1G20G11G 2
  24057731.557    -5916747.45049  -4459153.28845  24057731.150    24057740.732
  21786940.179   -19339699.73049 -15060589.51147  21786939.456    21786946.115
  22650345.260    -8308914.50449  -6462943.30846  22650344.773    22650351.709
  21656322.387   -20111398.23349 -15049327.72347  21656321.561    21656329.054
  20371230.695   -25253636.62349 -19669872.01348  20371229.661    20371235.790
  24080952.125    -3296378.99949  -2555622.21245  24080951.494    24080964.188
  22163799.289   -15617947.13549 -12013481.41847  22163798.282    22163807.006
 03  6 10  1 30 30.0000000  0  7G13G16G25G 1G20G11G 2
  24042986.583    -5994231.42949  -4519530.19345  24042986.217    24042995.681
  21777280.924   -19390459.10149 -15100142.20747  21777280.233    21777286.869
  22665462.601    -8229472.60249  -6401040.54246  22665462.107    22665469.061
  21647068.082   -20160029.63449 -15087222.28147  21647067.267    21647074.743
  20367640.353   -25272504.00249 -19684573.85148  20367639.327    20367645.453
  24097306.779    -3210435.79249  -2488653.74945  24097305.982    24097318.996
  22151637.240   -15681858.71349 -12063282.56547  22151636.231    22151644.926
 03  6 10  1 31  0.0000000  0  7G13G16G25G 1G20G11G 2
  24028247.400    -6071686.17649  -4579884.32745  24028246.951    24028256.272
  21767713.499   -19440736.13949 -15139319.06747  21767712.766    21767719.399
  22680603.984    -8149904.10849  -6339039.13846  22680603.495    22680610.486
  21637837.720   -20208535.47849 -15125019.00947  21637836.907    21637844.326
  20364152.133   -25290834.63749 -19698857.45648  20364151.121    20364157.230
  24113665.806    -3124469.83849  -2421667.54845  24113665.006    24113678.038
  22139539.876   -15745430.45149 -12112818.90347  22139538.866    22139547.536
 03  6 10  1 31 30.0000000  0  7G13G16G25G 1G20G11G 2
  24013513.713    -6149111.55549  -4640215.58245  24013513.322    24013522.603
  21758238.210   -19490528.55949 -15178118.29147  21758237.516    21758244.170
  22695769.011    -8070211.21649  -6276940.79646  22695768.526    22695775.570
  21628631.277   -20256915.86749 -15162717.97647  21628630.451    21628637.805
  20360766.282   -25308627.50649 -19712722.01548  20360765.256    20360771.371
  24130028.298    -3038484.37249  -2354666.14945  24130027.689    24130040.704
  22127507.496   -15808660.52849 -12162089.00847  22127506.466    22127515.144
 03  6 10  1 32  0.0000000  0  7G13G16G25G 1G20G11G 2
  23998785.531    -6226507.73649  -4700524.09145  23998785.067    23998794.247
  21748855.562   -19539834.63349 -15216538.55147  21748854.851    21748861.512
  22710957.359    -7990395.93849  -6214747.08446  22710956.862    22710963.951
  21619448.721   -20305170.51849 -15200318.97347  21619447.868    21619455.167
  20357482.928   -25325881.48549 -19726166.66348  20357481.889    20357488.021
  24146394.301    -2952482.24849  -2287651.77645  24146393.799    24146406.459
  22115540.535   -15871546.77249 -12211091.19847  22115539.541    22115548.197
 03  6 10  1 32 30.0000000  0  7G13G16G25G 1G20G11G 2
  23984063.043    -6303874.44049  -4760809.62245  23984062.669    23984071.578
  21739565.917   -19588651.99349 -15254577.99647  21739565.182    21739571.833
  22726168.718    -7910459.65349  -6152459.08746  22726168.251    22726175.343
  21610290.112   -20353298.96849 -15237821.63147  21610289.278    21610296.583
  20354302.381   -25342595.14249 -19739190.27948  20354301.370    20354307.503
  24162762.767    -2866465.98049  -2220626.37645  24162762.297    24162775.130
  22103639.453   -15934087.00149 -12259823.75947  22103638.450    22103647.113
 03  6 10  1 33  0.0000000  0  7G13G16G25G 1G20G11G 2
  23969346.080    -6381211.00849  -4821071.70245  23969345.698    23969354.829
  21730369.642   -19636978.45249 -15292234.91547  21730368.919    21730375.536
  22741402.800    -7830403.82949  -6090077.93546  22741402.345    22741409.493
  21601155.672   -20401300.52249 -15275225.40947  21601154.852    21601162.178
  20351224.975   -25358767.16049 -19751791.83848  20351223.941    20351230.093
  24179133.497    -2780438.33649  -2153592.11645  24179133.044    24179145.786
  22091804.637   -15996278.99349 -12308284.97347  22091803.653    22091812.322
 03  6 10  1 33 30.0000000  0  7G13G16G25G 1G20G11G 2
  23954634.936    -6458517.37449  -4881310.20845  23954634.632    23954643.560
  21721267.243   -19684811.79749 -15329507.59047  21721266.500    21721273.085
  22756659.343    -7750230.35649  -6027605.11646  22756658.913    22756666.056
  21592045.417   -20449174.86649 -15312530.06247  21592044.609    21592051.968
  20348250.871   -25374396.09449 -19763970.21748  20348249.830    20348255.963
  24195505.976    -2694401.92249  -2086551.03045  24195505.449    24195518.515
  22080036.533   -16058120.60949 -12356473.16147  22080035.520    22080044.163
 03  6 10  1 34  0.0000000  0  7G13G16G25G 1G20G11G 2
  23939929.576    -6535793.89449  -4941525.49645  23939929.242    23939938.070
  21712258.963   -19732150.37549 -15366394.74147  21712258.226    21712264.804
  22771937.882    -7669941.41149  -5965042.32346  22771937.426    22771944.508
  21582959.317   -20496922.28149 -15349735.80847  21582958.529    21582965.913
  20345380.231   -25389481.42449 -19775725.00648  20345379.207    20345385.361
  24211879.312    -2608360.21949  -2019505.81945  24211878.705    24211891.858
  22068335.275   -16119610.49249 -12404387.26947  22068334.280    22068342.929
 03  6 10  1 34 30.0000000  0  7G13G16G25G 1G20G11G 2
  23925229.851    -6613039.73449  -5001716.88545  23925229.629    23925238.694
  21703345.311   -19778991.79149 -15402894.48847  21703344.587    21703351.117
  22787238.195    -7589538.03949  -5902390.36646  22787237.734    22787244.789
  21573897.647   -20544541.60349 -15386841.74247  21573896.842    21573904.232
  20342613.366   -25404021.24249 -19787054.72548  20342612.343    20342618.481
  24228253.489    -2522315.07949  -1952457.94945  24228252.760    24228265.917
  22056701.531   -16180745.80149 -12452025.09547  22056700.534    22056709.202
 03  6 10  1 35  0.0000000  0  7G13G16G25G 1G20G11G 2
  23910536.154    -6690255.40249  -5061884.75845  23910535.771    23910544.689
  21694526.548   -19825334.50449 -15439005.63447  21694525.822    21694532.279
  22802559.889    -7509022.48249  -5839650.98746  22802559.396    22802566.388
  21564860.281   -20592033.21949 -15423848.16547  21564859.458    21564866.815
  20339950.433   -25418014.98549 -19797958.92848  20339949.416    20339955.578
  24244627.369    -2436270.04549  -1885410.14545  24244626.674    24244639.927
  22045135.583   -16241525.14249 -12499385.53647  22045134.541    22045143.168
 03  6 10  1 35 30.0000000  0  7G13G16G25G 1G20G11G 2
  23895848.276    -6767440.19349  -5122028.56145  23895847.869    23895856.689
  21685803.178   -19871176.01649 -15474726.23147  21685802.451    21685808.904
  22817902.581    -7428396.22449  -5776825.35446  22817902.075    22817909.098
  21555847.364   -20639396.42349 -15460754.52047  21555846.558    21555853.855
  20337391.694   -25431461.21549 -19808436.49948  20337390.667    20337396.806
  24261000.979    -2350227.45049  -1818364.24145  24261000.248    24261013.733
  22033637.788   -16301946.11949 -12546466.73547  22033636.751    22033645.364
 03  6 10  1 36  0.0000000  0  7G13G16G25G 1G20G11G 2
  23881166.247    -6844593.89749  -5182148.15645  23881165.983    23881174.860
  21677175.475   -19916514.46249 -15510054.83247  21677174.754    21677181.220
  22833266.078    -7347660.76149  -5713914.61746  22833265.559    22833272.593
  21546858.940   -20686630.74749 -15497560.44847  21546858.131    21546865.388
  20334937.397   -25444358.69449 -19818486.47148  20334936.367    20334942.518
  24277373.710    -2264189.98649  -1751322.33545  24277372.804    24277386.414
  22022208.616   -16362006.62249 -12593267.04547  22022207.543    22022216.133
 03  6 10  1 36 30.0000000  0  7G13G16G25G 1G20G11G 2
  23866490.329    -6921716.03449  -5242243.17145  23866490.023    23866498.677
  21668644.006   -19961347.52449 -15544989.62647  21668643.271    21668649.711
  22848649.966    -7266817.68049  -5650920.03946  22848649.459    22848656.518
  21537895.164   -20733735.56449 -15534265.46447  21537894.366    21537901.618
  20332587.770   -25456706.01149 -19828107.74648  20332586.743    20332592.874
  24293744.573    -2178160.12249  -1684286.36645  24293744.090    24293757.656
  22010848.388   -16421704.45149 -12639784.75547  22010847.388    22010855.958
 03  6 10  1 37  0.0000000  0  7G13G16G25G 1G20G11G 2
  23851820.348    -6998806.35849  -5302313.37345  23851820.089    23851828.725
  21660208.972   -20005673.52749 -15579529.31347  21660208.240    21660214.696
  22864054.044    -7185868.78849  -5587842.99246  22864053.545    22864060.579
  21528956.023   -20780710.68149 -15570869.41447  21528955.224    21528962.488
  20330342.980   -25468502.35249 -19837299.69048  20330341.947    20330348.076
  24310113.890    -2092140.53249  -1617258.40145  24310113.289    24310127.047
  21999557.612   -16481037.79849 -12686018.44747  21999556.564    21999565.155
 03  6 10  1 37 30.0000000  0  7G13G16G25G 1G20G11G 2
  23837156.400    -7075865.06049  -5362358.96445  23837156.160    23837164.836
  21651870.799   -20049490.82649 -15613672.61047  21651870.042    21651876.508
  22879477.911    -7104815.85549  -5524684.89246  22879477.407    22879484.458
  21520041.641   -20827555.98649 -15607372.21147  21520040.836    21520048.127
  20328203.200   -25479746.77049 -19846061.56748  20328202.169    20328208.299
  24326480.544    -2006134.49249  -1550240.99845  24326479.818    24326493.867
  21988336.440   -16540005.07349 -12731966.89247  21988335.422    21988344.001
 03  6 10  1 38  0.0000000  0  7G13G16G25G 1G20G11G 2
  23822498.671    -7152891.36549  -5422379.29945  23822498.448    23822507.066
  21643629.855   -20092796.83949 -15647417.50147  21643629.128    21643635.566
  22894921.289    -7023660.38449  -5461446.89746  22894920.796    22894927.847
  21511152.122   -20874270.47049 -15643773.06947  21511151.310    21511158.630
  20326168.804   -25490437.59649 -19854392.07248  20326167.797    20326173.891
  24342843.937    -1920144.11549  -1483235.79445  24342843.530    24342857.526
  21977185.453   -16598603.51049 -12777627.93047  21977184.442    21977193.003
 03  6 10  1 38 30.0000000  0  7G13G16G25G 1G20G11G 2
  23807847.005    -7229885.30549  -5482374.41545  23807846.751    23807855.299
  21635486.536   -20135590.03249 -15680762.79847  21635485.805    21635492.237
  22910383.820    -6942404.32049  -5398130.50346  22910383.362    22910390.349
  21502287.527   -20920854.03149 -15680071.90447  21502286.717    21502294.037
  20324239.823   -25500574.42849 -19862290.89248  20324238.792    20324244.901
  24359204.380    -1834172.23149  -1416245.01245  24359203.762    24359217.773
  21966104.984   -16656831.55249 -12823000.34147  21966103.963    21966112.493
 03  6 10  1 39  0.0000000  0  7G13G16G25G 1G20G11G 2
  23793201.735    -7306846.62549  -5542344.12745  23793201.450    23793210.031
  21627441.202   -20177868.53949 -15713707.02847  21627440.445    21627446.860
  22925865.211    -6861049.14149  -5334736.87646  22925864.724    22925871.703
  21493447.944   -20967306.11349 -15716268.29347  21493447.146    21493454.448
  20322416.525   -25510155.93149 -19869756.99348  20322415.505    20322421.591
  24375560.499    -1748221.42249  -1349270.64145  24375559.880    24375573.863
  21955095.368   -16714687.09149 -12868082.50247  21955094.355    21955102.867
 03  6 10  1 39 30.0000000  0  8G13G16G25G 1G 4G20G11G 2
  23778562.322    -7383776.33449  -5602289.21645  23778562.055    23778570.551
  21619493.882   -20219631.48549 -15746249.53847  21619493.176    21619499.571
  22941364.971    -6779597.24749  -5271267.89746  22941364.494    22941371.487
  21484633.236   -21013627.49749 -15752362.83447  21484632.448    21484639.726
  24763305.242    -3816701.78149  -2834448.24145  24763305.091    24763314.321
  20320698.859   -25519182.26449 -19876790.48948  20320697.844    20320703.934
  24391911.675    -1662295.76449  -1282315.89245  24391911.202    24391925.142
  21944156.807   -16772169.48349 -12912873.89147  21944155.757    21944164.265
 03  6 10  1 40  0.0000000  0  8G13G16G25G 1G 4G20G11G 2
  23763929.221    -7460672.79949  -5662208.39145  23763928.995    23763937.358
  21611645.300   -20260875.95949 -15778388.04547  21611644.570    21611650.914
  22956883.042    -6698049.32549  -5207724.09046  22956882.571    22956889.556
  21475843.729   -21059816.60549 -15788354.30447  21475842.943    21475850.195
  24755963.032    -3855285.34249  -2864513.32245  24755962.655    24755972.096
  20319087.229   -25527651.36449 -19883389.78148  20319086.219    20319092.282
  24408258.205    -1576396.75849  -1215381.92745  24408257.474    24408271.426
  21933289.794   -16829275.63949 -12957372.11947  21933288.780    21933297.258
 03  6 10  1 40 30.0000000  0  8G13G16G25G 1G 4G20G11G 2
  23749302.844    -7537535.27849  -5722101.08545  23749302.460    23749310.854
  21603895.769   -20301599.94049 -15810120.96747  21603895.045    21603901.372
  22972419.129    -6616406.60549  -5144106.40946  22972418.695    22972425.657
  21467079.544   -21105872.68349 -15824242.11347  21467078.751    21467085.985
  24748714.137    -3893378.49249  -2894196.25345  24748713.632    24748723.293
  20317581.926   -25535561.80449 -19889553.75648  20317580.911    20317586.982
  24424598.833    -1490526.42149  -1148470.26045  24424598.193    24424612.323
  21922494.888   -16886003.21449 -13001575.34447  21922493.843    21922502.277
 03  6 10  1 41  0.0000000  0  8G13G16G25G 1G 4G20G11G 2
  23734682.691    -7614363.34549  -5781966.99145  23734682.352    23734690.764
  21596245.655   -20341801.17149 -15841446.55947  21596244.971    21596251.273
  22987973.026    -6534670.54549  -5080415.99946  22987972.568    22987979.520
  21458340.783   -21151795.00949 -15860025.70147  21458339.970    21458347.226
  24741558.765    -3930979.75749  -2923495.92445  24741558.335    24741568.176
  20316183.142   -25542912.45749 -19895281.53348  20316182.110    20316188.190
  24440933.512    -1404687.29849  -1081582.93745  24440933.084    24440947.191
  21911772.345   -16942350.07649 -13045481.91247  21911771.327    21911779.745
 03  6 10  1 41 30.0000000  0  8G13G16G25G 1G 4G20G11G 2
  23720069.156    -7691157.35849  -5841806.33845  23720068.848    23720077.122
  21588695.372   -20381478.20449 -15872363.68447  21588694.638    21588700.937
  23003544.315    -6452842.88049  -5016654.20846  23003543.858    23003550.791
  21449627.541   -21197583.32249 -15895704.86847  21449626.713    21449633.982
  24734497.160    -3968088.54449  -2952411.84045  24734496.694    24734506.417
  20314891.029   -25549702.65249 -19900572.58948  20314889.994    20314896.089
  24457262.257    -1318882.29249  -1014722.20045  24457261.540    24457275.657
  21901122.555   -16998314.61849 -13089090.57047  21901121.549    21901129.962
 03  6 10  1 42  0.0000000  0  8G13G16G25G 1G 4G20G11G 2
  23705462.260    -7767916.90349  -5901618.82645  23705461.901    23705470.224
  21581245.014   -20420629.79949 -15902871.37847  21581244.305    21581250.579
  23019132.642    -6370925.72549  -4952822.69446  23019132.176    23019139.093
  21440939.734   -21243237.83949 -15931279.77847  21440938.897    21440946.171
  24727529.178    -4004704.64649  -2980943.83845  24727528.888    24727538.538
  20313705.561   -25555932.01349 -19905426.63348  20313704.535    20313710.644
  24473583.385    -1233114.82749   -947890.71545  24473582.781    24473596.968
  21890545.811   -17053895.55849 -13132400.32047  21890544.791    21890553.190
 03  6 10  1 42 30.0000000  0  8G13G16G25G 1G 4G20G11G 2
  23690861.993    -7844641.58049  -5961404.15645  23690861.638    23690869.918
  21573895.109   -20459253.56349 -15932967.78147  21573894.404    21573900.676
  23034737.747    -6288920.33749  -4888922.42646  23034737.333    23034744.245
  21432277.557   -21288757.47249 -15966749.58047  21432276.754    21432284.022
  24720655.431    -4040826.59149  -3009090.79945  24720655.047    24720664.632
  20312627.170   -25561599.06849 -19909842.51648  20312626.142    20312632.264
  24489897.035    -1147386.73549   -881089.91845  24489896.546    24489910.773
  21880042.475   -17109090.50149 -13175409.29247  21880041.473    21880049.844
 03  6 10  1 43  0.0000000  0  8G13G16G25G 1G 4G20G11G 2
  23676268.107    -7921332.02049  -6021162.82345  23676267.732    23676275.915
  21566645.850   -20497348.81349 -15962652.34747  21566645.112    21566651.374
  23050359.322    -6206828.67149  -4824954.91246  23050358.869    23050365.802
  21423641.015   -21334142.60849 -16002114.58347  21423640.213    21423647.483
  24713875.803    -4076454.32449  -3036852.65845  24713875.401    24713884.769
  20311655.707   -25566704.05349 -19913820.42348  20311654.674    20311660.795
  24506202.813    -1061701.61649   -814322.60445  24506202.170    24506216.382
  21869612.844   -17163898.38249 -13218116.66047  21869611.823    21869620.165
 03  6 10  1 43 30.0000000  0  8G13G16G25G 1G 4G20G11G 2
  23661681.045    -7997986.36049  -6080893.34645  23661680.829    23661688.988
  21559497.674   -20534912.34149 -15991922.58447  21559496.961    21559503.201
  23065997.105    -6124651.55749  -4760920.82446  23065996.643    23066003.565
  21415030.375   -21379391.44949 -16037373.38047  21415029.584    21415036.868
  24707190.460    -4111585.53949  -3064227.62045  24707190.248    24707199.517
  20310791.686   -25571244.50549 -19917358.43848  20310790.662    20310796.774
  24522499.797     -976060.58249   -747589.63045  24522499.257    24522513.761
  21859257.413   -17218316.07749 -13260519.98947  21859256.402    21859264.729
 03  6 10  1 44  0.0000000  0  8G13G16G25G 1G 4G20G11G 2
  23647101.081    -8074605.20449  -6140596.20345  23647100.763    23647108.743
  21552450.848   -20571943.42049 -16020777.93347  21552450.129    21552456.402
  23081650.806    -6042391.10949  -4696821.79946  23081650.306    23081657.259
  21406445.635   -21424504.18049 -16072526.12447  21406444.867    21406452.152
  24700599.478    -4146220.20049  -3091215.64145  24700599.421    24700608.736
  20310035.093   -25575220.41949 -19920456.55148  20310034.086    20310040.195
  24538787.868     -890467.05849   -680893.70045  24538787.360    24538802.053
  21848976.501   -17272342.39249 -13302618.34947  21848975.489    21848983.799
 03  6 10  1 44 30.0000000  0  8G13G16G25G 1G 4G20G11G 2
  23632527.570    -8151188.36449  -6200271.28545  23632527.262    23632535.234
  21545505.678   -20608440.56649 -16049217.22747  21545504.947    21545511.199
  23097319.953    -5960049.02349  -4632659.17146  23097319.489    23097326.450
  21397886.885   -21469480.60649 -16107572.65647  21397886.112    21397893.398
  24694103.480    -4180357.67749  -3117816.27245  24694103.308    24694112.635
  20309385.980   -25578631.46449 -19923114.50648  20309384.955    20309391.065
  24555066.780     -804924.06749   -614237.14945  24555065.921    24555080.581
  21838770.374   -17325975.81549 -13344410.55647  21838769.345    21838777.658
 03  6 10  1 45  0.0000000  0  8G13G16G25G 1G 4G20G11G 2
  23617961.013    -8227735.51049  -6259918.28345  23617960.726    23617968.680
  21538662.281   -20644402.39049 -16077239.39247  21538661.595    21538667.835
  23113004.493    -5877626.49149  -4568433.83746  23113003.990    23113010.976
  21389354.188   -21514320.22049 -16142512.57847  21389353.399    21389360.669
  24687702.125    -4213997.21849  -3144028.89545  24687701.971    24687711.185
  20308844.553   -25581476.69649 -19925331.57148  20308843.550    20308849.635
  24571335.073     -719434.12249   -547621.89845  24571334.309    24571349.097
  21828639.252   -17379214.57249 -13385895.23947  21828638.268    21828646.572
 03  6 10  1 45 30.0000000  0  8G13G16G25G 1G 4G20G11G 2
  23603401.573    -8304245.68549  -6319536.47445  23603401.285    23603409.139
  21531921.328   -20679826.28549 -16104842.38747  21531920.592    21531926.838
  23128704.068    -5795124.88649  -4504146.91446  23128703.592    23128710.530
  21380847.729   -21559021.96949 -16177345.07247  21380846.928    21380854.186
  24681395.563    -4247137.51649  -3169852.46545  24681395.376    24681404.554
  20308411.039   -25583754.72649 -19927106.65948  20308410.030    20308416.132
  24587592.833     -633999.08549   -481049.45945  24587592.223    24587607.152
  21818583.834   -17432056.19849 -13427070.46547  21818582.810    21818591.093
 03  6 10  1 46  0.0000000  0  8G13G16G25G 1G 4G20G11G 2
  23588849.032    -8380719.38049  -6379126.24045  23588848.750    23588856.557
  21525282.839   -20714711.46849 -16132025.60147  21525282.137    21525288.380
  23144418.282    -5712546.23849  -4439799.94046  23144417.823    23144424.815
  21372367.439   -21603585.96649 -16212070.23347  21372366.648    21372373.893
  24675184.311    -4279778.27449  -3195286.81345  24675184.095    24675193.210
  20308085.504   -25585465.53349 -19928439.75648  20308084.486    20308090.596
  24603840.076     -548622.35749   -414522.45845  24603839.166    24603854.119
  21808604.091   -17484499.56949 -13467935.36847  21808603.078    21808611.363
 03  6 10  1 46 30.0000000  0  8G13G16G25G 1G 4G20G11G 2
  23574303.570    -8457155.68549  -6438686.88145  23574303.309    23574311.175
  21518747.251   -20749056.07949 -16158787.59447  21518746.552    21518752.789
  23160146.915    -5629891.73149  -4375393.85946  23160146.464    23160153.514
  21363913.545   -21648011.27749 -16246687.32247  21363912.761    21363920.006
  24669068.350    -4311918.58049  -3220331.16245  24669067.950    24669077.094
  20307868.113   -25586607.95049 -19929329.94848  20307867.106    20307873.190
  24620075.333     -463306.08149   -348042.55845  24620074.627    24620089.475
  21798700.589   -17536542.60349 -13508488.31147  21798699.554    21798707.847
 03  6 10  1 47  0.0000000  0  8G13G16G25G 1G 4G20G11G 2
  23559765.340    -8533553.86649  -6498217.80245  23559765.115    23559772.911
  21512314.906   -20782858.17049 -16185126.84347  21512314.185    21512320.455
  23175889.718    -5547162.62249  -4310929.66046  23175889.276    23175896.353
  21355486.197   -21692297.19949 -16281195.80247  21355485.395    21355492.640
  24663047.661    -4343557.07549  -3244984.53045  24663047.178    24663056.452
  20307759.069   -25587180.93549 -19929776.42848  20307758.042    20307764.137
  24636298.485     -378052.37649   -281611.39645  24636298.026    24636313.126
  21788873.607   -17588183.24649 -13548727.71447  21788872.617    21788880.913
 03  6 10  1 47 30.0000000  0  8G13G16G25G 1G 4G20G11G 2
  23545234.499    -8609914.15449  -6557719.20745  23545234.213    23545241.873
  21505985.994   -20816116.70949 -16211042.54347  21505985.266    21505991.510
  23191646.444    -5464360.61849  -4246408.65446  23191645.997    23191653.128
  21347085.369   -21736443.67249 -16315595.61947  21347084.581    21347091.819
  24657122.553    -4374693.78149  -3269246.86745  24657122.319    24657131.189
  20307758.418   -25587184.34549 -19929779.08148  20307757.392    20307763.498
  24652509.701     -292864.63149   -215231.65745  24652508.952    24652524.050
  21779123.490   -17639420.23749 -13588652.57547  21779122.487    21779130.790
 03  6 10  1 48  0.0000000  0  8G13G16G25G 1G 4G20G11G 2
  23530710.752    -8686236.70049  -6617191.20245  23530710.388    23530718.081
  21499760.711   -20848830.58149 -16236533.83547  21499760.006    21499766.249
  23207416.628    -5381487.90749  -4181832.55446  23207416.120    23207423.300
  21338711.064   -21780450.65049 -16349886.74747  21338710.268    21338717.542
  24651293.021    -4405328.36449  -3293117.95945  24651292.725    24651301.604
  20307866.116   -25586618.22649 -19929337.94848  20307865.088    20307871.215
  24668707.508     -207745.77249   -148905.59145  24668706.700    24668721.962
  21769450.444   -17690252.32749 -13628261.93547  21769449.424    21769457.709
 03  6 10  1 48 30.0000000  0  8G13G16G25G 1G 4G20G11G 2
  23516194.229    -8762519.97149  -6676632.60145  23516194.039    23516201.830
  21493639.593   -20880997.10149 -16261598.61647  21493638.893    21493645.098
  23223200.130    -5298544.97449  -4117201.73846  23223199.654    23223206.859
  21330363.727   -21824316.11249 -16384067.60147  21330362.927    21330370.189
  24645559.263    -4435459.01249  -3316596.32545  24645559.035    24645568.101
  20308082.634   -25585480.50649 -19928451.41148  20308081.608    20308087.716
  24684891.700     -122696.83949    -82634.00045  24684891.275    24684906.596
  21759854.979   -17740676.48449 -13667553.42847  21759853.977    21759862.226
 03  6 10  1 49  0.0000000  0  8G13G16G25G 1G 4G20G11G 2
  23501685.378    -8838764.08149  -6736043.45745  23501685.202    23501692.893
  21487622.799   -20912615.40849 -16286236.22347  21487622.089    21487628.287
  23238996.743    -5215533.41449  -4052517.44346  23238996.267    23239003.490
  21322043.277   -21868040.29349 -16418138.37147  21322042.487    21322049.768
  24639921.356    -4465085.81849  -3339682.11545  24639921.147    24639930.397
  20308407.886   -25583771.16749 -19927119.45748  20308406.873    20308412.970
  24701062.565      -37721.14549    -16419.47545  24701061.880    24701077.379
  21750337.363   -17790691.72749 -13706526.28647  21750336.366    21750344.567
 03  6 10  1 49 30.0000000  0  8G13G16G25G 1G 4G20G11G 2
  23487184.026    -8914969.51349  -6795424.21545  23487183.742    23487191.380
  21481710.375   -20943685.02549 -16310446.27547  21481709.672    21481715.867
  23254805.991    -5132455.72649  -3987781.60846  23254805.523    23254812.732
  21313749.677   -21911623.33949 -16452099.16047  21313748.889    21313756.158
  24634379.625    -4494208.81449  -3362375.33145  24634379.224    24634388.542
  20308841.897   -25581490.44849 -19925342.27148  20308840.912    20308846.997
  24717218.789       47177.78549     49735.20545  24717217.866    24717233.412
  21740897.702   -17840297.29449 -13745179.91747  21740896.711    21740904.873
 03  6 10  1 50  0.0000000  0  7G13G16G25G 1G 4G20G 2
  23472692.588    -8991121.51449  -6854763.31145  23472692.374    23472699.976
  21475905.396   -20974190.38049 -16334216.64247  21475904.661    21475910.839
  23270630.223    -5049299.27249  -3922984.40746  23270629.748    23270636.896
  21305485.798   -21955050.39749 -16485938.39847  21305484.990    21305492.254
  24628936.378    -4522813.06849  -3384664.32445  24628935.873    24628945.105
  20309387.481   -25578623.43549 -19923108.23348  20309386.474    20309392.587
  21731539.052   -17889477.13249 -13783501.80947  21731538.059    21731546.190
 03  6 10  1 50 30.0000000  0  7G13G16G25G 1G 4G20G 2
  23458208.823    -9067233.90449  -6914071.55745  23458208.640    23458216.197
  21470205.355   -21004143.80549 -16357556.94447  21470204.656    21470210.854
  23286466.518    -4966079.27749  -3858137.70746  23286466.025    23286473.186
  21297248.979   -21998335.06549 -16519666.68747  21297248.182    21297255.438
  24623589.141    -4550912.21749  -3406559.70345  24623588.863    24623598.083
  20310041.968   -25575183.96649 -19920428.12948  20310040.971    20310047.071
  21722259.023   -17938243.82549 -13821501.77647  21722258.014    21722266.138
 03  6 10  1 51  0.0000000  0  7G13G16G25G 1G 4G20G 2
  23443731.795    -9143310.72249  -6973352.09045  23443731.613    23443739.177
  21464609.773   -21033548.81149 -16380469.89747  21464609.040    21464615.217
  23302313.715    -4882801.74149  -3793246.16246  23302313.185    23302320.391
  21289038.532   -22041481.29449 -16553287.10147  21289037.736    21289044.953
  24618337.518    -4578510.34149  -3428064.72145  24618337.249    24618346.268
  20310804.674   -25571175.91349 -19917304.96948  20310803.663    20310809.781
  21713057.040   -17986600.25149 -13859182.04947  21713056.044    21713064.135
 03  6 10  1 51 30.0000000  0  7G13G16G25G 1G 4G20G 2
  23429262.004    -9219349.47249  -7032602.95845  23429261.819    23429269.377
  21459119.246   -21062401.56449 -16402952.52447  21459118.561    21459124.709
  23318171.964    -4799465.96649  -3728309.24146  23318171.476    23318178.722
  21280854.984   -22084486.06749 -16586797.29247  21280854.191    21280861.392
  24613181.505    -4605604.32149  -3449176.84745  24613181.369    24613190.556
  20311676.118   -25566596.43649 -19913736.54448  20311675.100    20311681.191
  21703933.932   -18034542.40149 -13896539.51147  21703932.910    21703941.005
 03  6 10  1 52  0.0000000  0  7G13G16G25G 1G 4G20G 2
  23414799.908    -9295347.82049  -7091822.35245  23414799.671    23414807.191
  21453734.370   -21090699.25449 -16425002.64047  21453733.659    21453739.786
  23334041.348    -4716071.52549  -3663326.59746  23334040.860    23334048.214
  21272698.777   -22127347.29749 -16620195.62947  21272697.978    21272705.106
  24608121.952    -4632192.16649  -3469894.62845  24608121.892    24608130.808
  20312656.673   -25561443.51949 -19909721.28448  20312655.681    20312661.747
  21694890.224   -18082067.20549 -13933571.76747  21694889.201    21694897.265
 03  6 10  1 52 30.0000000  0  7G13G16G25G 1G 4G20G 2
  23400345.587    -9371305.21149  -7151009.82345  23400345.328    23400352.850
  21448455.505   -21118439.98649 -16446618.75447  21448454.784    21448460.862
  23349921.693    -4632619.49849  -3598299.07446  23349921.196    23349928.573
  21264570.068   -22170063.91749 -16653481.28347  21264569.265    21264576.339
  24603159.062    -4658273.16349  -3490217.43745  24603158.898    24603167.935
  20313746.533   -25555716.39149 -19905258.58248  20313745.547    20313751.610
  21685926.283   -18129172.57649 -13970277.19047  21685925.276    21685933.316
 03  6 10  1 53  0.0000000  0  7G13G16G25G 1G 4G20G 2
  23385899.219    -9447221.41949  -7210165.21545  23385898.980    23385906.413
  21443282.755   -21145622.81849 -16467800.14947  21443282.065    21443288.140
  23365812.649    -4549111.87049  -3533228.24246  23365812.165    23365819.595
  21256468.918   -22212635.72049 -16686654.09447  21256468.123    21256475.175
  24598292.369    -4683846.87849  -3510144.99645  24598292.197    24598301.218
  20314945.687   -25549415.00249 -19900348.40548  20314944.667    20314950.742
  21677042.513   -18175857.06349 -14006654.64847  21677041.466    21677049.484
 03  6 10  1 53 30.0000000  0  7G13G16G25G 1G 4G20G 2
  23371460.946    -9523094.73949  -7269287.19345  23371460.705    23371468.058
  21438216.592   -21172245.64149 -16488545.16847  21438215.862    21438221.933
  23381714.300    -4465548.67649  -3468114.10046  23381713.856    23381721.137
  21248395.670   -22255060.90149 -16719712.65147  21248394.872    21248401.868
  24593522.588    -4708911.93749  -3529676.18545  24593522.439    24593531.462
  20316254.371   -25542537.65649 -19894989.43048  20316253.370    20316259.447
  21668239.250   -18222118.21849 -14042702.25147  21668238.251    21668246.225
 03  6 10  1 54  0.0000000  0  7G13G16G25G 1G 4G20G 2
  23357030.786    -9598925.40949  -7328375.93645  23357030.574    23357037.782
  21433257.090   -21198307.85649 -16508853.35047  21433256.376    21433262.455
  23397626.286    -4381931.76749  -3402958.09546  23397625.780    23397632.997
  21240350.341   -22297339.28349 -16752656.82047  21240349.552    21240356.522
  24588849.763    -4733468.21949  -3548810.93445  24588849.633    24588858.475
  20317672.662   -25535084.34249 -19889181.65048  20317671.659    20317677.755
  21659516.795   -18267954.91549 -14078419.10347  21659515.769    21659523.709
 03  6 10  1 54 30.0000000  0  7G13G16G25G 1G 4G20G 2
  23342608.955    -9674712.40049  -7387430.63745  23342608.709    23342615.854
  21428404.658   -21223807.26749 -16528722.99447  21428403.965    21428410.057
  23413548.205    -4298261.99049  -3337760.90446  23413547.708    23413554.883
  21232333.170   -22339469.60749 -16785485.61847  21232332.372    21232339.355
  24584273.810    -4757514.80549  -3567548.50245  24584273.612    24584282.634
  20319200.747   -25527054.25449 -19882924.43848  20319199.751    20319205.831
  21650875.498   -18313365.05149 -14113803.57247  21650874.502    21650882.395
 03  6 10  1 55  0.0000000  0  7G13G16G25G 1G 4G20G 2
  23328195.488    -9750455.14649  -7446450.86845  23328195.227    23328202.474
  21423659.602   -21248742.69649 -16548153.16547  21423658.870    21423664.997
  23429479.846    -4214540.82849  -3272523.66846  23429479.389    23429486.563
  21224344.270   -22381451.44949 -16818198.71547  21224343.473    21224350.465
  24579794.984    -4781051.34849  -3585888.65045  24579794.612    24579803.722
  20320838.628   -25518447.09349 -19876217.55948  20320837.627    20320843.717
  21642315.631   -18358347.17049 -14148854.51647  21642314.618    21642322.515
 03  6 10  1 55 30.0000000  0  7G13G16G25G 1G 4G20G 2
  23313790.521    -9826153.19149  -7505436.26345  23313790.319    23313797.540
  21419022.062   -21273112.93749 -16567142.93047  21419021.370    21419027.487
  23445420.937    -4130769.39649  -3207247.25246  23445420.484    23445427.832
  21216383.735   -22423284.04349 -16850795.51147  21216382.944    21216389.973
  24575413.170    -4804077.61349  -3603831.18345  24575412.836    24575421.950
  20322586.425   -25509262.43549 -19869060.67948  20322585.417    20322591.512
  21633837.521   -18402899.71549 -14183570.72747  21633836.527    21633844.409
 03  6 10  1 56  0.0000000  0  7G13G16G25G 1G 4G20G 2
  23299394.164    -9901806.32049  -7564386.67245  23299393.935    23299401.063
  21414492.211   -21296917.31249 -16585691.76747  21414491.506    21414497.627
  23461371.311    -4046949.24949  -3141932.87946  23461370.841    23461378.353
  21208451.718   -22464966.87349 -16883275.61147  21208450.945    21208457.978
  24571128.567    -4826593.07749  -3621375.67545  24571128.302    24571137.440
  20324444.100   -25499500.26449 -19861453.79248  20324443.111    20324449.187
  21625441.356   -18447021.44549 -14217951.23847  21625440.349    21625448.256
 03  6 10  1 56 30.0000000  0  7G13G16G25G 1G 4G20G 2
  23285006.389    -9977414.02049  -7623301.66445  23285006.136    23285013.304
  21410070.333   -21320154.42449 -16603798.58047  21410069.607    21410075.696
  23477330.765    -3963081.48749  -3076581.39246  23477330.332    23477337.895
  21200548.386   -22506499.07549 -16915638.34047  21200547.596    21200554.660
  24566941.104    -4848597.43649  -3638521.90645  24566940.911    24566950.160
  20326411.757   -25489160.19949 -19853396.60048  20326410.759    20326416.816
  21617127.517   -18490710.68949 -14251994.74947  21617126.515    21617134.418
 03  6 10  1 57  0.0000000  0  7G13G16G25G 1G 4G20G 2
  23270627.482   -10052975.39849  -7682180.58945  23270627.289    23270634.390
  21405756.581   -21342823.00749 -16621462.38247  21405755.864    21405761.965
  23493299.040    -3879167.72949  -3011194.08346  23493298.608    23493306.159
  21192673.852   -22547879.87449 -16947883.08847  21192673.068    21192680.146
  24562851.389    -4870090.23749  -3655269.53945  24562850.961    24562860.099
  20328489.416   -25478241.88149 -19844888.81848  20328488.420    20328494.483
  21608896.278   -18533965.90849 -14285700.05947  21608895.283    21608903.174
 03  6 10  1 57 30.0000000  0  7G13G16G25G 1G 4G20G 2
  23256257.307   -10128490.88149  -7741023.73946  23256257.099    23256264.180
  21401551.095   -21364922.77649 -16638682.95547  21401550.385    21401556.473
  23509275.731    -3795209.95349  -2945772.47646  23509275.317    23509282.694
  21184828.085   -22589109.48749 -16980010.02947  21184827.309    21184834.389
  24558858.579    -4891072.25549  -3671619.12545  24558858.157    24558867.325
  20330677.028   -25466745.83549 -19835930.86248  20330676.046    20330682.100
  21600747.678   -18576786.56549 -14319066.75247  21600746.704    21600754.610
 03  6 10  1 58  0.0000000  0  7G13G16G25G 1G 4G20G 2
  23241896.231   -10203958.94449  -7799829.92546  23241896.000    23241902.990
  21397454.254   -21386451.81949 -16655458.80547  21397453.531    21397459.579
  23525260.871    -3711208.31349  -2880316.68346  23525260.431    23525267.648
  21177011.429   -22630186.13149 -17012017.77247  21177010.661    21177017.715
  24554963.236    -4911541.76049  -3687569.36945  24554962.852    24554972.218
  20332974.826   -25454670.87749 -19826521.80648  20332973.845    20332979.905
  21592682.339   -18619170.26849 -14352092.96247  21592681.328    21592689.196
 03  6 10  1 58 30.0000000  0  7G13G16G25G 1G 4G20G 2
  23227544.062   -10279379.94349  -7858599.46946  23227543.767    23227550.812
  21393465.976   -21407410.08249 -16671789.89347  21393465.292    21393471.336
  23541253.902    -3627165.08349  -2814828.47746  23541253.449    23541260.524
  21169223.866   -22671109.98949 -17043906.46247  21169223.112    21169230.129
  24551165.431    -4931499.42249  -3703120.79645  24551165.131    24551174.426
  20335382.694   -25442017.51349 -19816662.04248  20335381.708    20335387.758
  21584700.210   -18661116.30049 -14384778.13347  21584699.214    21584707.056
 03  6 10  1 59  0.0000000  0  7G13G16G25G 1G 4G20G 2
  23213200.827   -10354752.66049  -7917331.37446  23213200.616    23213207.789
  21389586.702   -21427795.66049 -16687674.73747  21389585.968    21389592.009
  23557254.653    -3543080.83749  -2749308.32246  23557254.192    23557261.201
  21161465.656   -22711879.73449 -17075675.06247  21161464.903    21161471.872
  24547465.082    -4950944.71349  -3718272.93445  24547464.764    24547474.092
  20337900.772   -25428784.93249 -19806350.94648  20337899.785    20337905.844
  21576801.793   -18702622.59149 -14417120.64847  21576800.802    21576808.613
 03  6 10  1 59 30.0000000  0  7G13G16G25G 1G 4G20G 2
  23198867.175   -10430076.37949  -7976025.10646  23198867.018    23198874.096
  21385816.606   -21447607.52149 -16703112.52647  21385815.888    21385821.905
  23573262.962    -3458956.54049  -2683756.94246  23573262.460    23573269.573
  21153736.934   -22752494.47149 -17107322.87247  21153736.163    21153743.101
  24543862.251    -4969877.12449  -3733025.42945  24543862.147    24543871.307
  20340529.090   -25414973.08749 -19795588.47248  20340528.105    20340534.156
  21568987.304   -18743687.75849 -14449119.43147  21568986.332    21568994.115
 03  6 10  2  0  0.0000000  0  7G13G16G25G 1G 4G20G 2
  23184542.804   -10505351.74149  -8034681.13946  23184542.555    23184549.554
  21382155.703   -21466845.35649 -16718103.02947  21382155.022    21382161.036
  23589278.377    -3374794.54149  -2618176.19946  23589277.853    23589285.105
  21146037.712   -22792954.35749 -17138850.02447  21146036.923    21146043.836
  24540357.255    -4988297.36649  -3747378.86545  24540357.055    24540366.024
  20343267.518   -25400582.51749 -19784375.04848  20343266.540    20343272.597
  21561256.865   -18784311.26849 -14480774.06947  21561255.913    21561263.673
 03  6 10  2  0 30.0000000  0  7G13G16G25G 1G 4G20G 2
  23170227.745   -10580577.31749  -8093298.37646  23170227.476    23170234.550
  21378604.315   -21485508.00349 -16732645.32947  21378603.581    21378609.640
  23605300.870    -3290595.73049  -2552566.78346  23605300.341    23605307.669
  21138368.101   -22833258.36649 -17170255.70547  21138367.303    21138374.217
  24536949.462    -5006204.67849  -3761332.58445  24536949.184    24536958.521
  20346116.098   -25385612.99849 -19772710.49248  20346115.138    20346121.199
  21553610.790   -18824491.43249 -14512083.24247  21553609.827    21553617.606
 03  6 10  2  1  0.0000000  0  7G13G16G25G 1G 4G20G 2
  23155922.110   -10655752.98749  -8151876.74046  23155921.949    23155929.049
  21375162.393   -21503595.11949 -16746739.16447  21375161.704    21375167.730
  23621330.152    -3206361.48149  -2486929.74646  23621329.643    23621336.941
  21130728.225   -22873405.92249 -17201539.47847  21130727.442    21130734.352
  24533639.454    -5023599.20249  -3774886.74545  24533639.125    24533648.209
  20349074.897   -25370064.45049 -19760594.74948  20349073.929    20349079.989
  21546049.306   -18864227.03649 -14543046.00547  21546048.341    21546056.131
 03  6 10  2  1 30.0000000  0  7G13G16G25G 1G 4G20G 2
  23141626.164   -10730878.08349  -8210415.67346  23141625.986    23141633.142
  21371830.311   -21521105.22549 -16760383.38147  21371829.580    21371835.647
  23637365.992    -3122092.73649  -2421265.83146  23637365.513    23637372.794
  21123118.287   -22913396.15549 -17232700.66347  21123117.500    21123124.441
  24530427.049    -5040480.70049  -3788041.14945  24530426.669    24530435.736
  20352143.919   -25353936.74749 -19748027.71648  20352142.945    20352148.969
  21538572.679   -18903516.76949 -14573661.33347  21538571.697    21538579.487
 03  6 10  2  2  0.0000000  0  7G13G16G25G 1G 4G20G 2
  23127339.971   -10805952.36549  -8268915.01846  23127339.825    23127346.896
  21368608.155   -21538037.86649 -16773577.61947  21368607.431    21368613.483
  23653408.063    -3037791.08249  -2355576.27046  23653407.577    23653414.820
  21115538.407   -22953228.49649 -17263738.81647  21115537.628    21115544.573
  24527312.122    -5056849.33849  -3800795.91745  24527311.725    24527320.834
  20355323.094   -25337230.01349 -19735009.48748  20355322.114    20355328.153
  21531181.132   -18942359.40349 -14603928.27647  21531180.174    21531187.941
 03  6 10  2  2 30.0000000  0  7G13G16G25G 1G 4G20G 2
  23113063.696   -10880974.80049  -8327373.95846  23113063.499    23113070.569
  21365496.077   -21554391.77649 -16786320.90547  21365495.375    21365501.448
  23669456.140    -2953457.26949  -2289861.65246  23669455.717    23669462.990
  21107988.760   -22992901.84349 -17294653.08047  21107987.974    21107994.947
  24524294.947    -5072704.46349  -3813150.54145  24524294.654    24524303.603
  20358612.522   -25319944.09649 -19721539.94948  20358611.537    20358617.586
  21523874.948   -18980753.42449 -14633845.65347  21523873.982    21523881.747
 03  6 10  2  3  0.0000000  0  7G13G16G25G 1G 4G20G 2
  23098797.194   -10955945.10949  -8385792.28946  23098796.996    23098804.095
  21362494.211   -21570166.70049 -16798613.02947  21362493.503    21362499.536
  23685510.089    -2869093.26549  -2224123.49946  23685509.652    23685516.878
  21100469.447   -23032415.86049 -17325443.18847  21100468.659    21100475.650
  24521375.413    -5088046.83049  -3825105.62645  24521375.005    24521384.159
  20362012.062   -25302079.36449 -19707619.38448  20362011.073    20362017.116
  21516654.326   -19018697.99349 -14663412.80547  21516653.341    21516661.096
 03  6 10  2  3 30.0000000  0  7G13G16G25G 1G 4G20G 2
  23084540.774   -11030862.24549  -8444169.18346  23084540.625    23084547.733
  21359602.715   -21585361.44049 -16810453.06447  21359602.035    21359608.068
  23701569.805    -2784699.20349  -2158361.93346  23701569.325    23701576.570
  21092980.682   -23071769.35049 -17356108.21447  21092979.894    21092986.890
  24518553.368    -5102875.66349  -3836660.53445  24518553.099    24518562.323
  20365521.834   -25283635.14449 -19693247.27448  20365520.853    20365526.929
  21509519.501   -19056191.52949 -14692628.50147  21509518.520    21509526.246
 03  6 10  2  4  0.0000000  0  7G13G16G25G 1G 4G20G 2
  23070294.549   -11105726.05749  -8502504.52046  23070294.408    23070301.500
  21356821.768   -21599975.40849 -16821840.54747  21356821.081    21356827.070
  23717634.903    -2700276.86749  -2092578.33146  23717634.443    23717641.640
  21085522.601   -23110961.86049 -17386647.80547  21085521.797    21085528.799
  24515829.475    -5117191.21049  -3847815.49645  24515829.055    24515838.178
  20369141.838   -25264612.02549 -19678424.07148  20369140.857    20369146.934
  21502470.723   -19093233.10849 -14721492.02547  21502469.740    21502477.447
 03  6 10  2  4 30.0000000  0  7G13G16G25G 1G 4G20G 2
  23056058.659   -11180535.76549  -8560797.70446  23056058.493    23056065.593
  21354151.551   -21614007.56949 -16832774.67147  21354150.859    21354156.831
  23733704.997    -2615827.92949  -2026774.01446  23733704.628    23733711.843
  21078095.306   -23149992.37149 -17417061.16447  21078094.509    21078101.520
  24513202.641    -5130993.53049  -3858570.52845  24513202.403    24513211.525
  20372872.016   -25245009.88549 -19663149.68448  20372871.015    20372877.113
  21495508.204   -19129821.27849 -14750002.23747  21495507.210    21495514.918
 03  6 10  2  5  0.0000000  0  7G13G16G25G 1G 4G20G 2
  23041833.244   -11255290.84249  -8619048.31946  23041833.011    23041840.069
  21351592.033   -21627457.63949 -16843255.22247  21351591.371    21351597.335
  23749780.014    -2531353.10849  -1960949.52146  23749779.570    23749786.981
  21070698.943   -23188860.18649 -17447347.74947  21070698.149    21070705.156
  24510673.602    -5144282.79849  -3868925.79945  24510673.554    24510682.731
  20376712.266   -25224829.07549 -19647424.38748  20376711.276    20376717.383
  21488632.183   -19165954.88149 -14778158.24447  21488631.190    21488638.859
 03  6 10  2  5 30.0000000  0  7G13G16G25G 1G 4G20G 2
  23027618.224   -11329990.96549  -8677256.12446  23027617.952    23027625.014
  21349143.503   -21640324.93349 -16853281.65347  21349142.796    21349148.782
  23765859.694    -2446853.61549  -1895105.79646  23765859.238    23765866.791
  21063333.694   -23227564.70449 -17477507.09147  21063332.898    21063339.911
  24508242.316    -5157058.99749  -3878881.27245  24508242.357    24508251.722
  20380662.611   -25204069.90949 -19631248.42348  20380661.622    20380667.761
  21481842.858   -19201632.78449 -14805959.16247  21481841.860    21481849.516
 03  6 10  2  6  0.0000000  0  7G13G16G25G 1G 4G20G 2
  23013413.815   -11404635.18849  -8735420.36446  23013413.535    23013420.606
  21346805.921   -21652608.64649 -16862853.35447  21346805.254    21346811.232
  23781943.825    -2362330.78649  -1829243.88845  23781943.443    23781950.943
  21055999.647   -23266105.15849 -17507538.59547  21055998.845    21056005.853
  24505908.662    -5169322.30349  -3888437.04045  24505908.642    24505917.997
  20384722.994   -25182732.36749 -19614621.77948  20384722.001    20384728.152
  21475140.489   -19236853.93049 -14833404.16447  21475139.480    21475147.117
 03  6 10  2  6 30.0000000  0  7G13G16G25G 1G 4G20G 2
  22999220.140   -11479223.15749  -8793540.77146  22999219.821    22999226.886
  21344579.471   -21664308.51749 -16871970.11647  21344578.776    21344584.784
  23798032.358    -2277785.67049  -1763364.61545  23798031.935    23798039.361
  21048696.994   -23304480.76949 -17537441.65047  21048696.191    21048703.192
  24503672.606    -5181073.09149  -3897593.54745  24503672.610    24503681.864
  20388893.403   -25160816.86249 -19597544.77248  20388892.423    20388898.566
  21468525.152   -19271617.36349 -14860492.51447  21468524.180    21468531.813
 03  6 10  2  7  0.0000000  0  7G13G16G25G 1G 4G20G 2
  22985037.172   -11553754.81549  -8851617.30346  22985036.870    22985043.915
  21342464.213   -21675424.32249 -16880631.74847  21342463.490    21342469.479
  23814124.809    -2193220.14349  -1697469.44745  23814124.335    23814131.664
  21041425.766   -23342691.14149 -17567215.94947  21041424.965    21041431.988
  24501534.152    -5192311.41749  -3906350.66045  24501533.911    24501543.402
  20393173.632   -25138324.05049 -19580017.91448  20393172.650    20393178.783
  21461997.113   -19305922.36149 -14887223.63547  21461996.119    21462003.764
 03  6 10  2  7 30.0000000  0  7G13G16G25G 1G 4G20G 2
  22970865.191   -11628228.71549  -8909648.83646  22970864.931    22970871.971
  21340460.261   -21685954.84049 -16888837.31947  21340459.587    21340465.566
  23830220.928    -2108634.72349  -1631558.77845  23830220.442    23830227.774
  21034186.232   -23380735.09249 -17596860.57447  21034185.436    21034192.448
  24499493.012    -5203037.53749  -3914708.65845  24499492.894    24499502.105
  20397563.830   -25115253.68849 -19562041.01648  20397562.851    20397568.945
  21455556.593   -19339767.33149 -14913596.29147  21455555.608    21455563.242
 03  6 10  2  8  0.0000000  0  7G13G16G25G 1G 4G20G 2
  22956704.342   -11702643.93849  -8967634.63846  22956704.125    22956711.172
  21338567.857   -21695899.36549 -16896586.27347  21338567.158    21338573.135
  23846320.511    -2024030.72649  -1565633.64045  23846320.086    23846327.450
  21026978.604   -23418611.42049 -17626374.58247  21026977.816    21026984.797
  24497549.363    -5213251.02649  -3922667.22945  24497549.389    24497558.570
  20402063.896   -25091605.67849 -19543614.00448  20402062.916    20402069.004
  21449203.874   -19373150.86249 -14939609.39247  21449202.886    21449210.531
 03  6 10  2  8 30.0000000  0  7G13G16G25G 1G 4G20G 2
  22942554.734   -11777000.26649  -9025574.56846  22942554.510    22942561.543
  21336787.062   -21705257.43549 -16903878.24447  21336786.390    21336792.347
  23862423.614    -1939408.88049  -1499694.60946  23862423.148    23862430.552
  21019802.994   -23456319.42749 -17655757.42847  21019802.214    21019809.146
  24495703.251    -5222952.14849  -3930226.52745  24495703.287    24495712.389
  20406673.780   -25067380.62149 -19524737.34848  20406672.804    20406678.894
  21442939.117   -19406072.18249 -14965262.32947  21442938.133    21442945.771
 03  6 10  2  9  0.0000000  0  7G13G16G25G 1G 4G20G 2
  22928416.462   -11851297.13349  -9083468.15446  22928416.248    22928423.220
  21335117.856   -21714028.92749 -16910713.14847  21335117.166    21335123.161
  23878529.858    -1854770.51549  -1433742.69745  23878529.418    23878536.732
  21012659.537   -23493858.57249 -17685008.69247  21012658.739    21012665.657
  24493954.678    -5232141.66549  -3937387.19445  24493954.529    24493963.713
  20411393.361   -25042578.96949 -19505411.39248  20411392.387    20411398.488
  21436762.459   -19438530.45649 -14990554.44647  21436761.459    21436769.113
 03  6 10  2  9 30.0000000  0  7G13G16G25G 1G 4G20G 2
  22914289.622   -11925534.01849  -9141314.99846  22914289.308    22914296.323
  21333560.377   -21722213.51949 -16917090.72247  21333559.674    21333565.665
  23894638.862    -1770117.10949  -1367779.06145  23894638.436    23894645.680
  21005548.306   -23531228.29949 -17714127.94047  21005547.492    21005554.398
  24492303.276    -5240819.72149  -3944149.31645  24492303.062    24492312.226
  20416222.602   -25017201.28449 -19485636.58148  20416221.624    20416227.729
  21430674.049   -19470524.84349 -15015485.09447  21430673.074    21430680.720
 03  6 10  2 10  0.0000000  0  8G13G27G16G25G 1G 4G20G 2
  22900173.084   -11999716.38449  -9199119.37546  22900172.831    22900179.800
  24874420.193    -3263465.19849  -2367617.85945  24874419.488    24874434.206
  21332113.452   -21729816.92049 -16923015.42447  21332112.786    21332118.769
  23910749.299    -1685455.65049  -1301809.15145  23910748.983    23910756.286
  20998468.293   -23568433.80249 -17743119.22447  20998467.503    20998474.405
  24490748.229    -5248992.89649  -3950518.00345  24490747.848    24490757.048
  20421160.164   -24991254.12749 -19465418.03048  20421159.196    20421165.308
  21424673.013   -19502060.47549 -15040058.26747  21424672.028    21424679.646
 03  6 10  2 10 30.0000000  0  8G13G27G16G25G 1G 4G20G 2
  22886065.163   -12073853.35749  -9256888.38146  22886064.947    22886071.849
  24859238.911    -3343241.99649  -2429781.15945  24859238.298    24859252.716
  21330775.336   -21736848.58949 -16928494.62247  21330774.632    21330780.645
  23926859.294    -1600797.27249  -1235841.65445  23926858.920    23926866.462
  20991417.840   -23605484.13149 -17771989.59547  20991417.055    20991423.956
  24489287.146    -5256671.24249  -3956501.11545  24489286.719    24489295.934
  20426204.160   -24964747.81349 -19444763.77048  20426203.204    20426209.316
  21418757.543   -19533146.17649 -15064280.84947  21418756.583    21418764.176
 03  6 10  2 11  0.0000000  0  8G13G27G16G25G 1G 4G20G 2
  22871971.167   -12147918.04749  -9314601.04946  22871970.934    22871977.754
  24844084.348    -3422877.88349  -2491834.69645  24844083.560    24844098.070
  21329551.128   -21743281.79649 -16933507.48747  21329550.439    21329556.453
  23942973.588    -1516116.41849  -1169856.62545  23942973.155    23942980.773
  20984402.090   -23642352.00649 -17800717.78747  20984401.321    20984408.220
  24487925.083    -5263828.71549  -3962078.38345  24487924.782    24487933.676
  20431359.551   -24937656.04249 -19423653.30948  20431358.585    20431364.712
  21412932.958   -19563754.72549 -15088131.62647  21412931.956    21412939.536
 03  6 10  2 11 30.0000000  0  8G13G27G16G25G 1G 4G20G 2
  22857890.185   -12221914.15149  -9372260.28746  22857889.922    22857896.743
  24828955.841    -3502377.08349  -2553781.72245  24828955.033    24828969.434
  21328439.991   -21749120.55249 -16938057.15047  21328439.319    21328445.335
  23959090.908    -1431419.36749  -1103858.99645  23959090.537    23959098.092
  20977420.370   -23679041.05849 -17829306.63747  20977419.595    20977426.486
  24486661.204    -5270470.20149  -3967253.56545  24486660.897    24486670.065
  20436625.396   -24909983.85649 -19402090.58048  20436624.409    20436630.542
  21407198.370   -19593889.77649 -15111613.44347  21407197.416    21407204.961
 03  6 10  2 12  0.0000000  0  8G13G27G16G25G 1G 4G20G 2
  22843821.773   -12295843.58749  -9429867.56946  22843821.581    22843828.393
  24813852.810    -3581741.56849  -2615623.78445  24813852.188    24813866.475
  21327441.565   -21754367.21949 -16942145.44347  21327440.890    21327446.923
  23975210.778    -1346709.51949  -1037851.40545  23975210.317    23975217.971
  20970472.367   -23715553.02549 -17857757.50647  20970471.575    20970478.497
  24485495.096    -5276598.40949  -3972028.79845  24485494.734    24485503.959
  20442001.045   -24881734.56349 -19380078.15248  20442000.078    20442006.212
  21401553.671   -19623552.83249 -15134727.46947  21401552.693    21401560.243
 03  6 10  2 12 30.0000000  0  8G13G27G16G25G 1G 4G20G 2
  22829766.005   -12369706.89649  -9487423.33246  22829765.812    22829772.655
  24798775.433    -3660972.30349  -2677361.64445  24798774.786    24798788.999
  21326555.653   -21759022.77349 -16945773.12647  21326554.983    21326560.951
  23991332.523    -1261989.03449   -971835.53445  23991332.136    23991339.776
  20963557.927   -23751888.48049 -17886070.82647  20963557.142    20963564.065
  24484426.104    -5282215.44849  -3976405.70445  24484425.885    24484435.037
  20447486.184   -24852909.96849 -19357617.43948  20447485.230    20447491.367
  21395998.689   -19652744.36449 -15157474.07547  21395997.699    21396005.251
 03  6 10  2 13  0.0000000  0  8G13G27G16G25G 1G 4G20G 2
  22815722.807   -12443504.18849  -9544927.65346  22815722.584    22815729.358
  24783723.500    -3740069.63149  -2738995.54645  24783722.776    24783736.905
  21325782.051   -21763087.85249 -16948940.70147  21325781.389    21325787.375
  24007455.985    -1177259.70749   -905812.75845  24007455.584    24007463.409
  20956677.126   -23788047.20649 -17914246.43447  20956676.365    20956683.281
  24483454.248    -5287322.21449  -3980385.01045  24483454.057    24483463.207
  20453080.642   -24823511.17149 -19334709.29848  20453079.658    20453085.802
  21390533.396   -19681464.37149 -15179853.25847  21390532.443    21390539.976
 03  6 10  2 13 30.0000000  0  8G13G27G16G25G 1G 4G20G 2
  22801692.156   -12517235.55649  -9602380.59746  22801691.917    22801698.650
  24768696.707    -3819033.72449  -2800525.65245  24768696.119    24768710.088
  21325120.764   -21766562.85449 -16951648.47947  21325120.087    21325126.069
  24023580.842    -1092523.44049   -839784.56745  24023580.452    24023588.348
  20949829.926   -23824029.14849 -17942284.29047  20949829.175    20949836.108
  24482579.225    -5291920.00449  -3983967.69745  24482579.113    24482588.221
  20458784.054   -24793539.46249 -19311354.73348  20458783.079    20458789.232
  21385157.908   -19709712.63849 -15201864.85847  21385156.944    21385164.487
 03  6 10  2 14  0.0000000  0  8G13G27G16G25G 1G 4G20G 2
  22787674.177   -12590900.31249  -9659781.65346  22787673.922    22787680.647
  24753695.504    -3897864.24349  -2861951.66545  24753694.754    24753708.801
  21324571.833   -21769447.47049 -16953896.22047  21324571.167    21324577.128
  24039706.879    -1007781.15549   -773751.70245  24039706.507    24039714.219
  20943016.600   -23859833.33849 -17970183.64047  20943015.852    20943022.808
  24481801.104    -5296009.11549  -3987154.01945  24481800.902    24481810.023
  20464596.394   -24762995.52349 -19287554.27148  20464595.405    20464601.567
  21379872.341   -19737488.33049 -15223508.20947  21379871.383    21379878.902
 03  6 10  2 14 30.0000000  0  8G13G27G16G25G 1G 4G20G 2
  22773668.971   -12664497.80549  -9717130.28946  22773668.727    22773675.429
  24738719.664    -3976561.18949  -2923273.61745  24738719.032    24738733.005
  21324135.223   -21771741.73849 -16955683.94947  21324134.599    21324140.520
  24055833.708     -923034.36049   -707715.32045  24055833.323    24055841.052
  20936237.163   -23895459.38849 -17997944.17747  20936236.405    20936243.367
  24481119.455    -5299590.61449  -3989944.80045  24481119.374    24481128.583
  20470517.455   -24731880.17549 -19263308.55548  20470516.456    20470522.624
  21374676.823   -19764790.87049 -15244782.87647  21374675.850    21374683.344
 03  6 10  2 15  0.0000000  0  8G13G27G16G25G 1G 4G20G 2
  22759676.764   -12738027.18649  -9774425.85446  22759676.544    22759683.227
  24723769.531    -4055123.83049  -2984490.91245  24723768.802    24723782.671
  21323810.951   -21773445.70149 -16957011.70347  21323810.283    21323816.220
  24071961.174     -838284.49449   -641676.51945  24071960.778    24071968.456
  20929491.854   -23930906.13249 -18025564.99447  20929491.105    20929498.092
  24480534.403    -5302664.58349  -3992340.07045  24480534.408    24480543.732
  20476547.114   -24700194.08349 -19238618.10848  20476546.132    20476552.300
  21369571.481   -19791619.43349 -15265688.21447  21369570.494    21369577.987
 03  6 10  2 15 30.0000000  0  8G13G27G16G25G 1G 4G20G 2
  22745697.545   -12811487.95749  -9831667.95946  22745697.331    22745703.986
  24708844.744    -4133551.83849  -3045603.32445  24708844.114    24708857.835
  21323599.112   -21774559.03849 -16957879.21847  21323598.460    21323604.345
  24088089.155     -753531.97449   -575635.65745  24088088.762    24088096.494
  20922780.804   -23966172.73649 -18053045.43847  20922780.061    20922787.045
  24480045.987    -5305231.61749  -3994340.37445  24480045.948    24480055.121
  20482685.259   -24667937.82749 -19213483.37748  20482684.273    20482690.467
  21364556.493   -19817973.15849 -15286223.54147  21364555.516    21364562.992
 03  6 10  2 16  0.0000000  0  8G13G27G16G25G 1G 4G20G 2
  22731731.534   -12884879.60149  -9888856.18846  22731731.340    22731737.990
  24693945.880    -4211844.92349  -3106610.59545  24693945.277    24693958.784
  21323499.603   -21775081.78149 -16958286.53847  21323498.959    21323504.875
  24104217.420     -668777.75449   -509593.47245  24104217.028    24104224.797
  20916104.205   -24001258.52749 -18080384.99347  20916103.473    20916110.409
  24479653.845    -5307292.59549  -3995946.30945  24479653.678    24479662.796
  20488931.746   -24635112.32949 -19187905.07848  20488930.758    20488936.984
  21359631.985   -19843851.50849 -15306388.45247  21359631.005    21359638.460
 03  6 10  2 16 30.0000000  0  8G13G27G16G25G 1G 4G20G 2
  22717778.877   -12958201.17049  -9945989.80646  22717778.689    22717785.271
  24679072.766    -4290003.02849  -3167512.69145  24679072.154    24679085.572
  21323512.530   -21775014.03949 -16958233.73347  21323511.850    21323517.761
  24120345.626     -584023.56049   -443551.29445  24120345.203    24120352.902
  20909462.144   -24036162.86949 -18107583.16147  20909461.411    20909468.315
  24479357.842    -5308848.14649  -3997158.39845  24479357.743    24479366.984
  20495286.466   -24601718.04549 -19161883.56948  20495285.489    20495291.708
  21354798.016   -19869253.94949 -15326182.52147  21354797.042    21354804.481
 03  6 10  2 17  0.0000000  0  8G13G27G16G25G 1G 4G20G 2
  22703839.722   -13031451.73249 -10003068.09546  22703839.490    22703846.027
  24664225.283    -4368025.27149  -3228308.95045  24664224.773    24664238.158
  21323637.795   -21774355.37549 -16957720.47147  21323637.153    21323643.059
  24136473.727     -499269.94849   -377509.56945  24136473.337    24136480.871
  20902854.856   -24070884.31549 -18134638.81347  20902854.115    20902860.971
  24479158.098    -5309898.60649  -3997976.93245  24479157.852    24479166.864
  20501749.286   -24567755.72149 -19135419.43548  20501748.315    20501754.535
  21350054.792   -19894179.40949 -15345604.91447  21350053.835    21350061.267
 03  6 10  2 17 30.0000000  0  8G13G27G16G25G 1G 4G20G 2
  22689914.160   -13104630.29149 -10060090.28146  22689913.970    22689920.561
  24649403.810    -4445911.15549  -3288998.93545  24649403.214    24649416.592
  21323875.633   -21773105.58249 -16956746.59347  21323874.959    21323880.885
  24152601.678     -414517.50049   -311468.75845  24152601.331    24152608.752
  20896282.652   -24105421.66349 -18161551.01847  20896281.895    20896288.718
  24479054.264    -5310444.19849  -3998402.03245  24479053.983    24479063.126
  20508320.109   -24533225.80349 -19108513.01948  20508319.136    20508325.365
  21345402.556   -19918626.97649 -15364654.92947  21345401.596    21345409.003
 03  6 10  2 18  0.0000000  0  8G13G27G16G25G 1G 4G20G 2
  22676002.405   -13177736.71949 -10117056.27246  22676002.220    22676008.819
  24634608.463    -4523660.70849  -3349582.68245  24634607.706    24634620.884
  21324225.877   -21771265.11849 -16955312.44647  21324225.206    21324231.115
  24168729.065     -329767.81649   -245430.07745  24168728.658    24168736.238
  20889745.476   -24139774.69349 -18188319.59247  20889744.711    20889751.549
  24479046.376    -5310486.32649  -3998434.83045  24479046.079    24479055.102
  20514998.710   -24498129.68349 -19081165.40548  20514997.733    20515003.975
  21340841.269   -19942596.65049 -15383332.55647  21340840.304    21340847.679
 03  6 10  2 18 30.0000000  0  8G13G27G16G25G 1G 4G20G 2
  22662104.711   -13250769.69149 -10173965.00146  22662104.472    22662111.071
  24619838.938    -4601273.28049  -3410059.69345  24619838.301    24619851.451
  21324688.521   -21768833.79449 -16953417.89247  21324687.876    21324693.784
  24184855.669     -245021.38249   -179393.91745  24184855.303    24184863.129
  20883243.581   -24173942.10849 -18214943.53848  20883242.812    20883249.675
  24479134.071    -5310025.16249  -3998075.45545  24479133.797    24479142.663
  20521784.964   -24462467.69449 -19053376.85348  20521784.004    20521790.252
  21336371.114   -19966087.30349 -15401636.92047  21336370.148    21336377.525
 03  6 10  2 19  0.0000000  0  8G13G27G16G25G 1G 4G20G 2
  22648221.129   -13323728.56949 -10230816.01146  22648220.903    22648227.383
  24605095.605    -4678748.64149  -3470429.81145  24605094.988    24605107.953
  21325263.639   -21765811.55449 -16951062.88147  21325262.968    21325268.878
  24200981.497     -160279.52149   -113361.34145  24200981.179    24200988.911
  20876777.166   -24207923.18849 -18241422.28848  20876776.419    20876783.266
  24479317.419    -5309061.56549  -3997324.59245  24479317.152    24479326.103
  20528678.670   -24426240.91349 -19025148.20848  20528677.722    20528683.967
  21331992.186   -19989098.51749 -15419567.69447  21331991.220    21331998.628
 03  6 10  2 19 30.0000000  0  8G13G27G16G25G 1G 4G20G 2
  22634351.660   -13396612.77849 -10287608.83146  22634351.445    22634357.920
  24590378.563    -4756086.54849  -3530692.78945  24590377.746    24590390.623
  21325951.137   -21762198.57249 -16948247.55147  21325950.462    21325956.364
  24217106.433      -75543.11649    -47333.00845  24217106.075    24217113.725
  20870346.423   -24241716.93749 -18267755.06848  20870345.680    20870352.494
  24479596.250    -5307596.23149  -3996182.74045  24479595.979    24479605.061
  20535679.714   -24389450.22049 -18996480.15348  20535678.765    20535685.019
  21327704.650   -20011629.59549 -15437124.33847  21327703.708    21327711.080
 03  6 10  2 20  0.0000000  0  8G13G27G16G25G 1G 4G20G 2
  22620496.580   -13469421.44649 -10344342.80246  22620496.386    22620502.828
  24575687.398    -4833286.58449  -3590848.34145  24575686.887    24575699.634
  21326750.984   -21757995.15649 -16944972.13947  21326750.308    21326756.245
  24233230.059        9186.90949     18690.34245  24233229.604    24233237.306
  20863951.486   -24275322.54949 -18293941.24748  20863950.728    20863957.517
  24479970.511    -5305630.04949  -3994650.65045  24479970.139    24479979.147
  20542787.990   -24352096.24249 -18967373.17548  20542787.034    20542793.279
  21323508.565   -20033680.08249 -15454306.49347  21323507.603    21323514.957
 03  6 10  2 20 30.0000000  0  8G13G27G16G25G 1G 4G20G 2
  22606656.044   -13542153.63549 -10401017.17446  22606655.848    22606662.310
  24561023.014    -4910348.17749  -3650896.01945  24561022.409    24561035.017
  21327663.294   -21753200.95549 -16941236.37447  21327662.606    21327668.519
  24249352.255       93909.92949     84708.23945  24249351.843    24249359.619
  20857592.611   -24308738.75849 -18319979.83648  20857591.860    20857598.621
  24480439.964    -5303163.27849  -3992728.49745  24480439.605    24480448.488
  20550003.231   -24314179.85649 -18937827.95348  20550002.299    20550008.546
  21319404.117   -20055248.89349 -15471113.32147  21319403.174    21319410.501
 03  6 10  2 21  0.0000000  0  8G13G27G16G25G 1G 4G20G 2
  22592830.180   -13614808.64049 -10457631.39746  22592829.999    22592836.467
  24546384.656    -4987271.41149  -3710835.88845  24546384.103    24546396.670
  21328687.893   -21747816.69849 -16937040.82947  21328687.217    21328693.084
  24265473.058      178624.19049    150719.31745  24265472.652    24265480.263
  20851269.835   -24341965.06249 -18345870.44948  20851269.087    20851275.842
  24481004.071    -5300197.33449  -3990417.35345  24481003.884    24481012.837
  20557325.301   -24275702.14549 -18907845.33648  20557324.341    20557330.579
  21315391.338   -20076336.08249 -15487544.85647  21315390.392    21315397.687
 03  6 10  2 21 30.0000000  0  8G13G27G16G25G 1G 4G20G 2
  22579019.223   -13687385.31549 -10514184.60346  22579019.040    22579025.505
  24531772.844    -5064055.56349  -3770667.38345  24531772.258    24531784.936
  21329824.833   -21741841.87249 -16932385.10247  21329824.150    21329830.023
  24281591.934      263329.41649    216723.35645  24281591.463    24281599.146
  20844983.526   -24374999.88749 -18371611.86048  20844982.779    20844989.516
  24481663.351    -5296732.39749  -3987717.42145  24481663.257    24481672.023
  20564754.075   -24236663.75949 -18877425.83448  20564753.108    20564759.361
  21311470.376   -20096940.66649 -15503600.33947  21311469.427    21311476.746
 03  6 10  2 22  0.0000000  0  8G13G27G16G25G 1G 4G20G 2
  22565223.345   -13759882.75849 -10570676.05646  22565223.181    22565229.629
  24517187.695    -5140700.28849  -3830390.23445  24517186.885    24517199.602
  21331074.081   -21735277.02149 -16927269.61747  21331073.395    21331079.241
  24297708.794      348024.72549    282719.65945  24297708.297    24297716.115
  20838733.822   -24407842.41649 -18397203.42648  20838733.075    20838739.794
  24482417.306    -5292769.40449  -3984629.37845  24482417.365    24482426.242
  20572289.340   -24197065.60049 -18846570.14348  20572288.401    20572294.666
  21307641.341   -20117062.11349 -15519279.34947  21307640.388    21307647.738
 03  6 10  2 22 30.0000000  0  8G13G27G16G25G 1G 4G20G 2
  22551442.690   -13832300.42549 -10627105.35846  22551442.511    22551448.909
  24502628.997    -5217205.20849  -3890004.16245  24502628.234    24502641.001
  21332435.542   -21728122.28349 -16921694.47847  21332434.883    21332440.749
  24313823.658      432709.02749    348707.38545  24313823.200    24313831.056
  20832520.834   -24440491.77449 -18422644.47548  20832520.096    20832526.804
  24483266.072    -5288308.97849  -3981153.72645  24483266.277    24483274.974
  20579930.936   -24156908.63249 -18815279.01348  20579929.991    20579936.278
  21303904.355   -20136699.79749 -15534581.40648  21303903.405    21303910.753
 03  6 10  2 23  0.0000000  0  8G13G27G16G25G 1G 4G20G 2
  22537677.363   -13904637.61749 -10683471.94546  22537677.161    22537683.608
  24488096.996    -5293570.62549  -3949509.37445  24488096.185    24488108.924
  21333909.157   -21720378.36249 -16915660.23547  21333908.483    21333914.303
  24329936.437      517381.30749    414685.73245  24329936.025    24329943.852
  20826344.719   -24472947.48449 -18447934.62548  20826343.972    20826350.719
  24484209.196    -5283352.63949  -3977291.64945  24484209.374    24484218.098
  20587678.638   -24116194.40149 -18783553.65248  20587677.657    20587683.944
  21300259.436   -20155853.77349 -15549506.54348  21300258.498    21300265.856
 03  6 10  2 23 30.0000000  0  8G13G27G16G25G 1G 4G20G 2
  22523927.421   -13976893.65049 -10739775.29846  22523927.210    22523933.674
  24473591.515    -5369796.09349  -4008905.54745  24473590.646    24473603.329
  21335494.858   -21712045.41949 -16909167.01147  21335494.205    21335500.023
  24346046.543      602040.23249    480653.69245  24346046.103    24346054.046
  20820205.604   -24505208.47349 -18473073.04348  20820204.882    20820211.637
  24485246.547    -5277901.39049  -3973043.92145  24485246.817    24485255.308
  20595532.144   -24074923.94749 -18751394.87648  20595531.190    20595537.439
  21296706.639   -20174523.67949 -15564054.48748  21296705.688    21296713.070
 03  6 10  2 24  0.0000000  0  8G13G27G16G25G 1G 4G20G 2
  22510193.193   -14049067.20649 -10796014.38546  22510192.998    22510199.478
  24459112.843    -5445880.84649  -4068192.05245  24459112.030    24459124.658
  21337192.678   -21703123.19449 -16902214.60847  21337192.019    21337197.843
  24362153.980      686685.16449    546610.73845  24362153.522    24362161.398
  20814103.844   -24537273.29949 -18498058.60748  20814103.106    20814109.898
  24486378.068    -5271955.50449  -3968410.77745  24486378.303    24486386.894
  20603491.350   -24033097.96949 -18718803.22148  20603490.430    20603496.678
  21293246.141   -20192708.58249 -15578224.50348  21293245.183    21293252.564
 03  6 10  2 24 30.0000000  0  8G13G27G16G25G 1G 4G20G 2
  22496474.823   -14121157.46849 -10852188.58046  22496474.654    22496481.075
  24444660.865    -5521825.06749  -4127369.06445  24444659.974    24444672.512
  21339002.468   -21693612.53149 -16894803.68447  21339001.807    21339007.678
  24378258.663      771315.55149    612556.41245  24378258.123    24378265.855
  20808039.554   -24569141.24449 -18522890.75948  20808038.824    20808045.609
  24487603.464    -5265516.21049  -3963393.15845  24487603.556    24487612.123
  20611556.101   -23990717.55549 -18685779.53848  20611555.147    20611561.402
  21289877.927   -20210408.36549 -15592016.50648  21289876.965    21289884.372
 03  6 10  2 25  0.0000000  0  8G13G27G16G25G 1G 4G20G 2
  22482772.590   -14193162.98049 -10908296.72146  22482772.470    22482778.763
  24430235.845    -5597627.70049  -4186435.76545  24430235.191    24430247.380
  21340924.243   -21683513.11049 -16886933.98747  21340923.596    21340929.481
  24394360.506      855930.86749    678490.34645  24394360.085    24394367.703
  20802013.056   -24600810.81749 -18547568.33048  20802012.327    20802019.055
  24488922.664    -5258583.76549  -3957991.27445  24488922.771    24488931.374
  20619726.218   -23947783.31549 -18652324.30748  20619725.281    20619731.542
  21286602.205   -20227622.18349 -15605429.83348  21286601.253    21286608.670
 03  6 10  2 25 30.0000000  0  8G13G27G16G25G 1G 4G20G 2
  22469086.560   -14265083.76049 -10964338.84346  22469086.405    22469092.607
  24415837.644    -5673289.37849  -4245392.65645  24415836.988    24415849.322
  21342957.955   -21672826.01849 -16878606.36447  21342957.268    21342963.155
  24410459.055      940529.38849    744411.22945  24410458.611    24410466.380
  20796024.323   -24632281.86449 -18572091.21248  20796023.582    20796030.283
  24490335.354    -5251160.08449  -3952206.60045  24490335.294    24490344.087
  20628001.354   -23904297.24849 -18618439.07748  20628000.432    20628006.707
  21283418.929   -20244350.18449 -15618464.61048  21283417.986    21283425.379
 03  6 10  2 26  0.0000000  0  8G13G27G16G25G 1G 4G20G 2
  22455416.933   -14336918.14749 -11020313.64946  22455416.759    22455422.897
  24401466.533    -5748809.03349  -4304238.85445  24401465.897    24401477.987
  21345103.460   -21661551.25249 -16869820.81847  21345102.773    21345108.631
  24426554.307     1025111.16449    810319.04445  24426553.909    24426561.940
  20790073.733   -24663552.57049 -18596457.97948  20790072.982    20790079.660
  24491841.455    -5243245.36549  -3946039.30945  24491841.451    24491850.284
  20636381.441   -23860259.61149 -18584124.05848  20636380.511    20636386.809
  21280328.366   -20260591.18249 -15631119.90148  21280327.416    21280334.791
 03  6 10  2 26 30.0000000  0  8G13G27G16G25G 1G 4G20G 2
  22441763.667   -14408666.35449 -11076221.29946  22441763.480    22441769.586
  24387122.346    -5824187.36349  -4362974.93545  24387121.668    24387133.734
  21347360.565   -21649689.94749 -16860578.22547  21347359.890    21347365.763
  24442646.441     1109674.48949    876212.50645  24442645.977    24442653.831
  20784161.219   -24694622.82349 -18620668.54948  20784160.475    20784167.151
  24493440.890    -5234841.57549  -3939490.92745  24493440.684    24493449.480
  20644866.085   -23815672.67149 -18549381.00648  20644865.147    20644871.436
  21277330.295   -20276345.94449 -15643396.30648  21277329.351    21277336.721
 03  6 10  2 27  0.0000000  0  8G13G27G16G25G 1G 4G20G 2
  22428127.115   -14480326.64049 -11132060.43446  22428126.921    22428132.979
  24372805.080    -5899423.60149  -4421600.29645  24372804.499    24372816.530
  21349729.296   -21637241.99649 -16850878.50847  21349728.640    21349734.477
  24458734.850     1194218.83349    942091.15245  24458734.420    24458741.964
  20778287.101   -24725491.10049 -18644721.73348  20778286.362    20778293.077
  24495133.034    -5225949.30849  -3932561.89245  24495132.712    24495141.803
  20653455.097   -23770537.19949 -18514210.52848  20653454.141    20653460.467
  21274424.906   -20291613.65349 -15655293.19248  21274423.963    21274431.330
 03  6 10  2 27 30.0000000  0  8G13G27G16G25G 1G 4G20G 2
  22414507.457   -14551898.40249 -11187830.59346  22414507.250    22414513.239
  24358515.044    -5974517.18849  -4480114.48945  24358514.472    24358526.252
  21352209.633   -21624207.50749 -16840721.75047  21352208.973    21352214.842
  24474819.203     1278743.38349   1007954.38445  24474818.746    24474826.518
  20772451.708   -24756156.13549 -18668616.54648  20772450.981    20772457.711
  24496917.974    -5216569.20149  -3925252.74645  24496917.937    24496926.717
  20662148.357   -23724853.81549 -18478613.10548  20662147.423    20662153.750
  21271612.293   -20306393.75849 -15666810.12548  21271611.380    21271618.700
 03  6 10  2 28  0.0000000  0  8G13G27G16G25G 1G 4G20G 2
  22400904.963   -14623379.79349 -11243530.32946  22400904.747    22400910.710
  24344252.204    -6049467.67949  -4538517.17945  24344251.665    24344263.284
  21354801.581   -21610586.74549 -16830108.15647  21354800.899    21354806.775
  24490899.592     1363247.88849   1073801.96945  24490899.293    24490907.314
  20766655.278   -24786616.55249 -18692351.91848  20766654.534    20766661.255
  24498795.684    -5206702.11449  -3917564.10145  24498795.467    24498804.505
  20670945.723   -23678623.56149 -18442589.55148  20670944.763    20670951.093
  21268892.648   -20320685.56949 -15677946.57648  21268891.713    21268899.022
 03  6 10  2 28 30.0000000  0  8G13G27G16G25G 1G 4G20G 2
  22387319.607   -14694770.91349 -11299159.71846  22387319.422    22387325.416
  24330016.497    -6124275.72849  -4596808.86845  24330015.921    24330027.558
  21357504.776   -21596381.36049 -16819039.00747  21357504.088    21357509.959
  24506976.326     1447730.31749   1139632.37345  24506975.972    24506983.809
  20760897.791   -24816872.35649 -18715927.84848  20760897.050    20760903.728
  24500765.573    -5196350.05649  -3909497.57145  24500765.483    24500774.390
  20679846.662   -23631848.78149 -18406141.68748  20679845.721    20679852.060
  21266265.772   -20334489.80249 -15688703.09148  21266264.831    21266272.118
 03  6 10  2 29  0.0000000  0  8G13G27G16G25G 1G 4G20G 2
  22373751.661   -14766070.44749 -11354717.75046  22373751.514    22373757.532
  24315808.059    -6198940.51449  -4654988.93345  24315807.448    24315819.040
  21360319.097   -21581591.66949 -16807514.56247  21360318.439    21360324.311
  24523048.809     1532190.70549   1205445.62845  24523048.418    24523056.176
  20755179.504   -24846921.99049 -18739343.12548  20755178.769    20755185.426
  24502827.655    -5185513.77349  -3901053.73945  24502827.506    24502836.520
  20688851.147   -23584529.89949 -18369269.85048  20688850.207    20688856.537
  21263731.810   -20347805.58549 -15699078.99848  21263730.875    21263738.144
 03  6 10  2 29 30.0000000  0  8G13G27G16G25G 1G 4G20G 2
  22360201.397   -14837277.37449 -11410203.62546  22360201.245    22360207.332
  24301626.930    -6273461.77749  -4713057.17845  24301626.324    24301637.797
  21363244.666   -21566217.82149 -16795534.92647  21363244.014    21363249.849
  24539116.569     1616628.27749   1271241.12745  24539116.174    24539124.102
  20749500.659   -24876764.45049 -18762596.96248  20749499.920    20749506.600
  24504981.743    -5174193.98149  -3892233.12245  24504981.544    24504990.655
  20697958.919   -23536668.23049 -18331975.06048  20697957.962    20697964.309
  21261290.863   -20360632.75949 -15709074.16848  21261289.945    21261297.206
 03  6 10  2 30  0.0000000  0  8G13G27G16G25G 1G 4G20G 2
  22346669.023   -14908390.25449 -11465616.19946  22346668.883    22346675.002
  24287473.179    -6347838.92049  -4771013.11345  24287472.513    24287483.976
  21366281.359   -21550259.87649 -16783100.15247  21366280.702    21366286.535
  24555180.138     1701042.57049   1337018.48745  24555179.762    24555187.662
  20743861.545   -24906398.10749 -18785688.09548  20743860.814    20743867.492
  24507227.655    -5162391.75849  -3883036.58445  24507227.380    24507236.463
  20707169.791   -23488264.96949 -18294258.25348  20707168.835    20707175.152
  21258942.979   -20372970.89449 -15718688.27448  21258942.051    21258949.306
 03  6 10  2 30 30.0000000  0  8G13G27G16G25G 1G 4G20G 2
  22333154.596   -14979409.10049 -11520955.50846  22333154.439    22333160.582
  24273346.641    -6422072.81549  -4828857.43045  24273345.982    24273357.459
  21369428.898   -21533719.49349 -16770211.52947  21369428.252    21369434.009
  24571239.242     1785432.10849   1402776.53745  24571238.776    24571246.718
  20738262.179   -24935823.02049 -18808616.56348  20738261.420    20738268.128
  24509564.998    -5150109.11749  -3873465.70145  24509564.682    24509573.873
  20716483.295   -23439322.22449 -18256121.06948  20716482.348    20716488.673
  21256688.003   -20384820.65449 -15727921.81948  21256687.072    21256694.348
 03  6 10  2 31  0.0000000  0  8G13G27G16G25G 1G 4G20G 2
  22319658.344   -15050332.34149 -11576220.31546  22319658.152    22319664.265
  24259247.837    -6496162.22449  -4886589.15945  24259247.064    24259258.439
  21372687.311   -21516596.57349 -16756868.98147  21372686.667    21372692.428
  24587293.081     1869796.75649   1468515.22845  24587292.752    24587300.634
  20732702.804   -24965037.54349 -18831381.09648  20732702.059    20732708.760
  24511993.674    -5137346.48249  -3863520.80445  24511993.211    24512002.590
  20725899.342   -23389840.67349 -18217564.03548  20725898.399    20725904.729
  21254526.109   -20396181.24649 -15736774.20448  21254525.189    21254532.454
 03  6 10  2 31 30.0000000  0  8G13G27G16G25G 1G 4G20G 2
  22306180.492   -15121158.85149 -11631409.75246  22306180.303    22306186.346
  24245176.226    -6570107.29049  -4944208.42845  24245175.575    24245186.968
  21376056.375   -21498891.88049 -16743073.11047  21376055.725    21376061.506
  24603341.964     1954135.46749   1534233.70045  24603341.671    24603349.799
  20727183.671   -24994040.52849 -18853980.79548  20727182.940    20727189.646
  24514513.372    -5124105.17249  -3853202.91245  24514513.186    24514522.216
  20735417.628   -23339821.76449 -18178588.28748  20735416.690    20735423.037
  21252457.371   -20407052.44449 -15745245.24248  21252456.471    21252463.743
 03  6 10  2 32  0.0000000  0  8G13G27G16G25G 1G 4G20G 2
  22292721.091   -15191888.14649 -11686523.43146  22292720.911    22292726.958
  24231132.268    -6643907.99749  -5001715.19645  24231131.617    24231142.956
  21379535.975   -21480606.43549 -16728824.70747  21379535.326    21379541.110
  24619386.204     2038447.12149   1599931.02045  24619385.774    24619393.831
  20721704.917   -25022831.33249 -18876415.15248  20721704.183    20721710.899
  24517123.816    -5110386.72349  -3842513.21945  24517123.708    24517132.830
  20745037.874   -23289267.10649 -18139195.06948  20745036.950    20745043.284
  21250481.712   -20417434.48049 -15753335.11148  21250480.788    21250488.067
 03  6 10  2 32 30.0000000  0  8G13G27G16G25G 1G 4G20G 2
  22279280.366   -15262519.08949 -11741560.47646  22279280.175    22279286.270
  24217115.678    -6717564.16349  -5059109.35245  24217115.111    24217126.363
  21383125.921   -21461740.97549 -16714124.34847  21383125.260    21383131.037
  24635424.953     2122730.71449   1665606.54045  24635424.402    24635432.616
  20716266.759   -25051408.85449 -18898683.31948  20716266.038    20716272.746
  24519824.745    -5096192.56049  -3831452.83145  24519824.649    24519833.789
  20754759.796   -23238178.16249 -18099385.52148  20754758.849    20754765.197
  21248599.181   -20427327.20149 -15761043.69648  21248598.262    21248605.547
 03  6 10  2 33  0.0000000  0  8G13G27G16G25G 1G 4G20G 2
  22265858.624   -15333050.32549 -11796519.82946  22265858.487    22265864.603
  24203126.877    -6791075.23149  -5116390.45545  24203126.215    24203137.331
  21386826.207   -21442296.01449 -16698972.42747  21386825.559    21386831.308
  24651457.913     2206986.18749   1731260.16345  24651457.512    24651465.970
  20710869.521   -25079771.54949 -18920784.08648  20710868.794    20710875.485
  24522616.460    -5081523.34749  -3820022.30845  24522616.176    24522624.984
  20764583.159   -23186556.03649 -18059160.50647  20764582.209    20764588.570
  21246809.837   -20436730.07549 -15768370.58048  21246808.930    21246816.205
 03  6 10  2 33 30.0000000  0  8G13G27G16G25G 1G 4G20G 2
  22252456.156   -15403480.53149 -11851400.45446  22252455.995    22252462.183
  24189165.690    -6864440.86349  -5173558.23945  24189165.010    24189176.102
  21390636.590   -21422272.05349 -16683369.33547  21390635.941    21390641.711
  24667485.829     2291213.09849   1796891.48345  24667485.505    24667493.842
  20705513.334   -25107918.31249 -18942716.59648  20705512.592    20705519.310
  24525497.770    -5066380.29549  -3808222.52245  24525497.661    24525506.734
  20774507.714   -23134402.05649 -18018521.06447  20774506.788    20774513.161
  21245113.790   -20445642.91449 -15775315.61648  21245112.845    21245120.130
 03  6 10  2 34  0.0000000  0  8G13G27G16G25G 1G 4G20G 2
  22239072.915   -15473809.73049 -11906202.38146  22239072.761    22239078.967
  24175232.068    -6937662.04249  -5230613.45345  24175231.266    24175242.347
  21394556.883   -21401670.78249 -16667316.39247  21394556.227    21394562.024
  24683508.179     2375409.40849   1862499.01045  24683507.614    24683515.807
  20700198.242   -25135849.09449 -18964480.80948  20700197.512    20700204.242
  24528469.309    -5050765.76149  -3796055.36745  24528469.114    24528478.226
  20784533.062   -23081718.54149 -17977468.99347  20784532.138    20784538.524
  21243510.770   -20454066.68049 -15781879.55248  21243509.854    21243517.092
 03  6 10  2 34 30.0000000  0  8G13G27G16G25G 1G 4G20G 2
  22225709.237   -15544036.32449 -11960924.34046  22225709.042    22225715.193
  24161326.000    -7010737.38349  -5287555.04345  24161325.382    24161336.284
  21398586.999   -21380492.26149 -16650813.64147  21398586.377    21398592.123
  24699524.101     2459575.47149   1928082.97745  24699523.696    24699532.157
  20694924.636   -25163561.81549 -18986075.10948  20694923.923    20694930.635
  24531530.266    -5034679.94049  -3783520.96745  24531530.115    24531539.113
  20794659.094   -23028506.08849 -17936004.76747  20794658.168    20794664.543
  21242001.045   -20462000.36949 -15788061.61748  21242000.099    21242007.311
 03  6 10  2 35  0.0000000  0  8G13G27G16G25G 1G 4G20G 2
  22212365.301   -15614159.07649 -12015565.38846  22212365.110    22212371.178
  24147447.830    -7083667.14549  -5344383.18645  24147447.061    24147457.946
  21402726.791   -21358737.42649 -16633861.81947  21402726.141    21402731.939
  24715534.380     2543710.16249   1993642.49545  24715534.062    24715542.378
  20689692.726   -25191055.49649 -19007498.73248  20689692.004    20689698.736
  24534680.677    -5018124.76949  -3770620.86845  24534680.524    24534689.725
  20804885.373   -22974766.63849 -17894129.90147  20804884.448    20804890.852
  21240584.545   -20469444.13049 -15793861.92148  21240583.600    21240590.791
 03  6 10  2 35 30.0000000  0  8G13G27G16G25G 1G 4G20G 2
  22199041.294   -15684176.96449 -12070124.73046  22199041.094    22199047.118
  24133597.217    -7156450.87649  -5401097.56545  24133596.639    24133607.270
  21406976.087   -21336407.32249 -16616461.73647  21406975.459    21406981.203
  24731538.740     2627812.78249   2059176.96845  24731538.342    24731546.550
  20684502.674   -25218329.11449 -19028750.88248  20684501.967    20684508.688
  24537920.026    -5001101.36149  -3757355.88145  24537919.842    24537929.234
  20815211.661   -22920501.68049 -17851845.53947  20815210.729    20815217.140
  21239261.209   -20476398.02249 -15799280.50948  21239260.266    21239267.447
 03  6 10  2 36  0.0000000  0  8G13G27G16G25G 1G 4G20G 2
  22185737.438   -15754089.00449 -12124601.57846  22185737.264    22185743.260
  24119774.569    -7229088.82049  -5457698.33245  24119773.899    24119784.475
  21411334.651   -21313502.57149 -16598613.88147  21411334.032    21411339.812
  24747536.741     2711882.87749   2124686.11245  24747536.358    24747544.376
  20679354.775   -25245381.67449 -19049830.78148  20679354.051    20679360.744
  24541248.395    -4983611.12649  -3743727.15345  24541248.397    24541257.353
  20825637.640   -22865712.74149 -17809152.87847  20825636.722    20825643.139
  21238031.147   -20482861.91649 -15804317.28048  21238030.198    21238037.353
 03  6 10  2 36 30.0000000  0  8G13G27G16G25G 1G 4G20G 2
  22172453.901   -15823894.07149 -12178995.08046  22172453.720    22172459.736
  24105979.577    -7301580.26349  -5514184.96145  24105978.968    24105989.575
  21415802.523   -21290023.99149 -16580318.88347  21415801.879    21415807.623
  24763528.376     2795920.23349   2190169.75445  24763527.986    24763536.364
  20674249.166   -25272211.73449 -19070737.30748  20674248.436    20674255.113
  24544665.385    -4965655.29849  -3729735.62745  24544665.212    24544674.368
  20836163.151   -22810400.98949 -17766052.83147  20836162.225    20836168.638
  21236894.339   -20488835.72049 -15808972.16248  21236893.415    21236900.550
 03  6 10  2 37  0.0000000  0  8G13G27G16G25G 1G 4G20G 2
  22159190.889   -15893591.36649 -12233304.60546  22159190.702    22159196.742
  24092212.542    -7373925.46449  -5570557.63145  24092211.939    24092222.532
  21420379.289   -21265972.70549 -16561577.61647  21420378.660    21420384.418
  24779513.901     2879923.45649   2255626.76845  24779513.509    24779521.718
  20669185.986   -25298818.70449 -19091469.99348  20669185.261    20669191.975
  24548170.498    -4947235.65349  -3715382.69345  24548170.465    24548179.236
  20846787.742   -22754568.44449 -17722546.97247  20846786.810    20846793.232
  21235850.714   -20494319.98149 -15813245.58348  21235849.767    21235856.910
 03  6 10  2 37 30.0000000  0  8G13G27G16G25G 1G 4G20G 2
  22145948.539   -15963180.20849 -12287529.62746  22145948.349    22145954.383
  24078473.354    -7446124.75949  -5626816.60645  24078472.691    24078483.183
  21425064.797   -21241350.34549 -16542391.36147  21425064.147    21425069.941
  24795492.732     2963891.41049   2321056.30945  24795492.198    24795500.354
  20664165.324   -25325202.01649 -19112028.40248  20664164.607    20664171.350
  24551763.440    -4928354.22749  -3700669.89645  24551763.378    24551772.473
  20857510.989   -22698217.37949 -17678637.07447  20857510.066    20857516.495
  21234900.122   -20499315.18249 -15817137.91848  21234899.175    21234906.330
 03  6 10  2 38  0.0000000  0  8G13G27G16G25G 1G 4G20G 2
  22132727.245   -16032658.49449 -12341668.50146  22132727.082    22132733.101
  24064761.893    -7518177.30649  -5682961.25445  24064761.333    24064771.902
  21429858.950   -21216156.91649 -16522760.11447  21429858.318    21429864.083
  24811464.388     3047824.13449   2386458.47045  24811463.801    24811472.162
  20659187.728   -25351359.55849 -19132410.88848  20659187.003    20659193.735
  24555444.429    -4909011.32749  -3685597.55545  24555444.320    24555453.280
  20868332.805   -22641348.48449 -17634323.66647  20868331.874    20868338.323
  21234042.749   -20503820.47549 -15820648.50948  21234041.819    21234048.965
 03  6 10  2 38 30.0000000  0  8G13G27G16G25G 1G 4G20G 2
  22119527.159   -16102025.25249 -12395720.46246  22119526.990    22119532.985
  24051078.667    -7590082.99349  -5738991.46645  24051078.006    24051088.535
  21434761.560   -21190393.64849 -16502684.83647  21434760.884    21434766.693
  24827429.421     3131721.22949   2451832.84445  24827428.958    24827437.150
  20654253.244   -25377290.42749 -19152616.74448  20654252.529    20654259.249
  24559212.596    -4889208.88049  -3670167.09645  24559212.481    24559221.332
  20879252.793   -22583963.60549 -17589608.20047  20879251.865    20879258.316
  21233278.554   -20507836.22949 -15823777.64348  21233277.618    21233284.752
 03  6 10  2 39  0.0000000  0  8G13G27G16G25G 1G 4G20G 2
  22106348.383   -16171280.11649 -12449685.24446  22106348.204    22106354.160
  24037423.054    -7661842.13549  -5794907.50845  24037422.469    24037432.973
  21439772.373   -21164061.64949 -16482166.38547  21439771.725    21439777.477
  24843387.649     3215581.27149   2517178.32845  24843387.221    24843395.290
  20649361.994   -25402993.92049 -19172645.42448  20649361.285    20649368.014
  24563068.192    -4868948.61149  -3654379.90745  24563067.931    24563076.845
  20890270.615   -22526064.68649 -17544492.18747  20890269.697    20890276.140
  21232607.374   -20511362.94949 -15826525.71448  21232606.463    21232613.598
 03  6 10  2 39 30.0000000  0  8G13G27G16G25G 1G 4G20G 2
  22093191.167   -16240421.82849 -12503561.85347  22093191.002    22093196.891
  24023795.684    -7733454.52949  -5850709.18045  24023794.963    24023805.389
  21444891.174   -21137162.24149 -16461205.80647  21444890.501    21444896.292
  24859338.267     3299403.84949   2582494.59745  24859337.979    24859346.226
  20644514.290   -25428468.71849 -19192495.89548  20644513.601    20644520.330
  24567010.434    -4848232.03849  -3638237.14545  24567010.194    24567019.055
  20901385.916   -22467653.45349 -17498976.95847  20901384.992    20901391.425
  21232029.320   -20514400.65949 -15828892.73248  21232028.403    21232035.532
 03  6 10  2 40  0.0000000  0  8G13G27G16G25G 1G 4G20G 2
  22080055.886   -16309448.18549 -12557348.58547  22080055.696    22080061.546
  24010196.037    -7804919.40549  -5906395.94345  24010195.448    24010205.971
  21450117.900   -21109695.72949 -16439803.32447  21450117.213    21450122.974
  24875282.015     3383189.12949   2647781.77045  24875281.830    24875289.811
  20639710.415   -25453713.11149 -19212166.83548  20639709.706    20639716.425
  24571039.360    -4827060.08449  -3621739.57845  24571039.243    24571047.922
  20912598.497   -22408731.00249 -17453063.37847  20912597.580    20912603.997
  21231544.312   -20516949.07149 -15830878.48348  21231543.398    21231550.536
 03  6 10  2 40 30.0000000  0  7G13G27G16G 1G 4G20G 2
  22066943.723   -16378352.75649 -12611040.41947  22066943.533    22066949.328
  23996625.772    -7876231.02049  -5961963.25945  23996625.193    23996635.662
  21455453.363   -21081657.59949 -16417955.42447  21455452.689    21455458.492
  20634951.706   -25478720.25549 -19231652.90548  20634951.001    20634957.695
  24575155.546    -4805428.63149  -3604883.89945  24575155.404    24575164.379
  20923909.139   -22349293.23649 -17406748.25247  20923908.240    20923914.624
  21231153.591   -20519002.40949 -15832478.45848  21231152.659    21231159.784
 03  6 10  2 41  0.0000000  0  7G13G27G16G 1G 4G20G 2
  22053853.408   -16447142.76649 -12664642.98847  22053853.175    22053859.003
  23983083.239    -7947397.35149  -6017417.37545  23983082.508    23983092.909
  21460895.787   -21053057.17849 -16395669.37347  21460895.122    21460900.907
  20630236.803   -25503497.30649 -19250959.68448  20630236.085    20630242.771
  24579357.625    -4783347.38049  -3587677.78045  24579357.465    24579366.287
  20935315.963   -22289350.20149 -17360039.41547  20935315.043    20935321.400
  21230855.379   -20520569.31249 -15833699.39848  21230854.455    21230861.587
 03  6 10  2 41 30.0000000  0  7G13G27G16G 1G 4G20G 2
  22040785.183   -16515816.28449 -12718154.79047  22040784.972    22040790.830
  23969568.177    -8018418.05849  -6072758.03245  23969567.604    23969577.905
  21466445.067   -21023895.23449 -16372945.77247  21466444.420    21466450.243
  20625565.945   -25528042.71049 -19270085.95648  20625565.228    20625571.941
  24583644.945    -4760817.68249  -3570122.19445  24583644.637    24583653.716
  20946818.614   -22228903.51449 -17312938.11847  20946817.680    20946824.054
  21230649.826   -20521649.65949 -15834541.19548  21230648.898    21230655.994
 03  6 10  2 42  0.0000000  0  7G13G27G16G 1G 4G20G 2
  22027739.437   -16584371.89649 -12771574.72047  22027739.253    22027745.113
  23956081.262    -8089292.47349  -6127984.68045  23956080.631    23956090.728
  21472101.237   -20994171.97249 -16349784.77647  21472100.554    21472106.386
  20620939.505   -25552354.76149 -19289030.39448  20620938.791    20620945.498
  24588017.545    -4737840.42349  -3552217.85145  24588017.180    24588026.297
  20958416.909   -22167954.07649 -17265445.07447  20958415.980    20958422.331
  21230536.931   -20522242.95349 -15835003.47848  21230535.976    21230543.086
 03  6 10  2 42 30.0000000  0  7G13G27G16G 1G 4G20G 2
  22014716.551   -16652807.38349 -12824901.04647  22014716.379    22014722.208
  23942622.102    -8160019.83149  -6183096.74745  23942621.458    23942631.496
  21477864.030   -20963888.25549 -16326187.05947  21477863.365    21477869.166
  20616357.833   -25576431.75149 -19307791.66548  20616357.113    20616363.789
  24592474.782    -4714416.79149  -3533965.71045  24592474.565    24592483.480
  20970110.676   -22106503.08949 -17217561.20647  20970109.755    20970116.099
  21230516.726   -20522348.97149 -15835086.06248  21230515.790    21230522.891
 03  6 10  2 43  0.0000000  0  7G13G27G16G 1G 4G20G 2
  22001714.393   -16721134.12949 -12878142.64647  22001714.230    22001720.054
  23929188.857    -8230612.19449  -6238103.61345  23929188.188    23929198.042
  21483730.925   -20933057.44349 -16302163.04247  21483730.263    21483736.082
  20611818.735   -25600284.80349 -19326378.44448  20611818.015    20611824.695
  24597014.400    -4690560.51849  -3515376.43745  24597014.191    24597023.281
  20981897.202   -22044564.54349 -17169297.43247  20981896.275    20981902.615
  21230586.879   -20521980.32949 -15834798.78548  21230585.941    21230593.052
 03  6 10  2 43 30.0000000  0  7G13G27G16G 1G 4G20G 2
  21988736.369   -16789333.96049 -12931285.33847  21988736.215    21988742.010
  23915784.306    -8301052.44649  -6292991.96445  23915783.788    23915793.506
  21489704.921   -20901664.04149 -16277700.63747  21489704.247    21489710.025
  20607325.706   -25623895.64449 -19344776.48348  20607324.996    20607331.677
  24601639.473    -4666256.26049  -3496438.08045  24601639.150    24601648.210
  20993779.356   -21982123.48549 -17120642.08047  20993778.440    20993784.785
  21230750.527   -20521120.07449 -15834128.42748  21230749.588    21230756.694
 03  6 10  2 44  0.0000000  0  7G13G27G16G 1G 4G20G 2
  21975782.659   -16857405.99649 -12984328.44647  21975782.473    21975788.266
  23902408.675    -8371341.31449  -6347762.33745  23902408.058    23902417.832
  21495785.605   -20869709.50049 -16252800.98447  21495784.958    21495790.787
  20602878.916   -25647263.70049 -19362985.34448  20602878.204    20602884.857
  24606349.154    -4641506.29949  -3477152.42645  24606348.789    24606357.941
  21005756.640   -21919182.37849 -17071597.08447  21005755.748    21005762.115
  21231007.559   -20519769.30549 -15833075.85048  21231006.640    21231013.743
 03  6 10  2 44 30.0000000  0  7G13G27G16G 1G 4G20G 2
  21962853.111   -16925350.97149 -13037272.54947  21962852.913    21962858.720
  23889061.523    -8441480.13849  -6402415.80045  23889060.937    23889070.721
  21501972.615   -20837196.68249 -16227466.30347  21501971.945    21501977.768
  20598478.240   -25670389.36949 -19381005.33548  20598477.511    20598484.164
  24611143.223    -4616313.86549  -3457521.98645  24611142.910    24611152.082
  21017828.492   -21855744.63449 -17022165.09547  21017827.561    21017833.954
  21231357.540   -20517930.05549 -15831642.63948  21231356.618    21231363.702
 03  6 10  2 45  0.0000000  0  7G13G27G16G 1G 4G20G 2
  21949947.855   -16993168.37049 -13090117.23847  21949947.668    21949953.462
  23875742.773    -8511469.70949  -6456952.97645  23875742.187    23875751.985
  21508265.359   -20804127.82249 -16201698.34247  21508264.708    21508270.539
  20594123.717   -25693272.43849 -19398836.28248  20594123.005    20594129.658
  24616020.703    -4590681.85249  -3437549.02945  24616020.423    24616029.677
  21029994.255   -21791813.00849 -16972348.26147  21029993.358    21029999.757
  21231800.276   -20515603.43849 -15829829.66248  21231799.341    21231806.424
 03  6 10  2 45 30.0000000  0  7G13G27G16G 1G 4G20G 2
  21937066.929   -17060857.93749 -13142862.31147  21937066.734    21937072.539
  23862452.308    -8581311.01549  -6511374.60845  23862451.739    23862461.412
  21514663.589   -20770504.97549 -16175498.70547  21514662.929    21514668.711
  20589815.449   -25715912.55449 -19416477.91848  20589814.728    20589821.376
  24620981.694    -4564612.57349  -3417235.36245  24620981.449    24620990.571
  21042253.495   -21727390.27449 -16922148.75147  21042252.582    21042259.007
  21232335.511   -20512790.53349 -15827637.75448  21232334.591    21232341.664
 03  6 10  2 46  0.0000000  0  7G13G27G16G 1G 4G20G 2
  21924210.617   -17128418.19449 -13195506.61747  21924210.415    21924216.212
  23849190.010    -8651003.64049  -6565680.40145  23849189.390    23849199.220
  21521166.938   -20736329.42449 -16148868.38747  21521166.296    21521172.084
  20585553.648   -25738308.44249 -19433929.24548  20585552.918    20585559.554
  24626025.304    -4538107.73649  -3396582.25145  24626025.197    24626034.307
  21054605.844   -21662478.30649 -16871568.02247  21054604.930    21054611.358
  21232963.212   -20509491.62249 -15825067.14548  21232962.296    21232969.390
 03  6 10  2 46 30.0000000  0  7G13G27G16G 1G 4G20G 2
  21911379.009   -17195848.38749 -13248049.58347  21911378.838    21911384.587
  23835956.101    -8720548.27349  -6619870.85845  23835955.461    23835965.144
  21527775.152   -20701603.15149 -16121808.93447  21527774.502    21527780.258
  20581338.372   -25760459.56249 -19451189.84748  20581337.666    20581344.324
  24631151.548    -4511169.54349  -3375591.50145  24631151.449    24631160.319
  21067050.829   -21597079.43749 -16820607.88447  21067049.925    21067056.379
  21233683.295   -20505707.58049 -15822118.51448  21233682.378    21233689.440
 03  6 10  2 47  0.0000000  0  7G13G27G16G 1G 4G20G 2
  21898572.448   -17263147.39749 -13300490.32947  21898572.254    21898577.991
  23822750.128    -8789944.58549  -6673945.75845  23822749.544    23822759.384
  21534487.850   -20666327.46349 -16094321.37147  21534487.225    21534492.995
  20577169.968   -25782364.58149 -19468258.68348  20577169.272    20577175.913
  24636359.892    -4483799.83149  -3354264.47945  24636359.703    24636368.770
  21079588.093   -21531195.62449 -16769269.87447  21079587.195    21079593.642
  21234495.549   -20501438.88249 -15818792.22948  21234494.625    21234501.675
 03  6 10  2 47 30.0000000  0  7G13G27G16G 1G 4G20G 2
  21885791.069   -17330313.78549 -13352827.72747  21885790.882    21885796.624
  23809572.725    -8859192.58249  -6727905.06545  23809571.987    23809581.772
  21541304.917   -20630503.41349 -16066406.50947  21541304.295    21541310.034
  20573048.647   -25804022.21249 -19485134.74848  20573047.945    20573054.584
  24641650.096    -4456000.17549  -3332602.46945  24641649.901    24641658.798
  21092217.310   -21464828.67249 -16717555.38547  21092216.402    21092222.866
  21235399.996   -20496685.87349 -15815088.55748  21235399.059    21235406.112
 03  6 10  2 48  0.0000000  0  7G13G27G16G 1G 4G20G 2
  21873035.217   -17397345.99249 -13405060.56047  21873035.043    21873040.779
  23796423.294    -8928291.93749  -6781748.57845  23796422.699    23796432.367
  21548226.070   -20594132.34849 -16038065.40547  21548225.474    21548231.223
  20568974.642   -25825431.21749 -19501817.07648  20568973.966    20568980.578
  24647021.564    -4427772.33149  -3310606.77545  24647021.292    24647030.543
  21104938.119   -21397980.49649 -16665465.91647  21104937.236    21104943.670
  21236396.516   -20491448.84549 -15811007.72748  21236395.599    21236402.651
 03  6 10  2 48 30.0000000  0  7G13G27G16G 1G 4G20G 2
  21860305.053   -17464243.11949 -13457188.13547  21860304.886    21860310.649
  23783302.295    -8997242.96549  -6835476.49945  23783301.663    23783311.298
  21555251.017   -20557215.96149 -16009299.37947  21555250.381    21555256.145
  20564948.138   -25846590.70249 -19518304.97048  20564947.433    20564954.034
  24652474.135    -4399118.51149  -3288279.16145  24652473.818    24652483.464
  21117750.041   -21330653.46849 -16613003.31347  21117749.136    21117755.574
  21237485.020   -20485728.66849 -15806550.41748  21237484.096    21237491.175
 03  6 10  2 49  0.0000000  0  7G13G27G16G 1G 4G20G 2
  21847600.813   -17531004.21149 -13509209.70347  21847600.631    21847606.389
  23770209.430    -9066045.67649  -6889088.84845  23770208.887    23770218.354
  21562379.437   -20519755.63949 -15980109.50847  21562378.836    21562384.581
  20560969.322   -25867499.52149 -19534597.53748  20560968.608    20560975.228
  24658007.514    -4370040.46149  -3265620.99645  24658007.367    24658016.860
  21130652.744   -21262849.52649 -16560169.10047  21130651.834    21130658.255
  21238665.382   -20479525.68649 -15801716.89548  21238664.459    21238671.505
 03  6 10  2 49 30.0000000  0  7G13G27G16G 1G 4G20G 2
  21834922.637   -17597628.18549 -13561124.42547  21834922.468    21834928.221
  23757144.842    -9134700.60749  -6942586.03745  23757144.211    23757153.671
  21569611.038   -20481753.32849 -15950497.30947  21569610.400    21569616.174
  20557038.317   -25888156.98449 -19550694.23848  20557037.609    20557044.214
  24663621.228    -4340540.53549  -3242634.08445  24663621.050    24663630.555
  21143645.716   -21194571.10749 -16506965.15847  21143644.809    21143651.226
  21239937.429   -20472840.92649 -15796507.96348  21239936.528    21239943.549
 03  6 10  2 50  0.0000000  0  7G13G27G16G 1G 4G20G 2
  21822270.988   -17664112.85949 -13612930.61047  21822270.817    21822276.565
  23744108.416    -9203206.63649  -6995967.21546  23744107.836    23744117.184
  21576945.637   -20443209.71649 -15920463.31547  21576945.042    21576950.745
  20553155.573   -25908560.91149 -19566593.38048  20553154.887    20553161.457
  24669314.883    -4310619.73449  -3219319.21745  24669314.970    24669324.269
  21156728.725   -21125819.52649 -16453392.52147  21156727.822    21156734.234
  21241301.232   -20465674.07349 -15790923.37348  21241300.304    21241307.325
 03  6 10  2 50 30.0000000  0  7G13G27G16G 1G 4G20G 2
  21809645.892   -17730457.84949 -13664627.94147  21809645.737    21809651.468
  23731100.163    -9271564.80849  -7049233.17746  23731099.602    23731108.980
  21584382.807   -20404127.11249 -15890009.33547  21584382.183    21584387.932
  20549321.103   -25928711.17949 -19582294.86148  20549320.392    20549326.970
  24675088.454    -4280280.81849  -3195678.57345  24675088.202    24675097.459
  21169901.141   -21056597.93749 -16399453.64347  21169900.243    21169906.682
  21242756.452   -20458026.62649 -15784964.29548  21242755.546    21242762.525
 03  6 10  2 51  0.0000000  0  7G13G27G16G 1G 4G20G 2
  21797047.591   -17796662.04249 -13716215.56547  21797047.448    21797053.193
  23718120.168    -9339774.97049  -7102383.79946  23718119.528    23718128.858
  21591922.305   -20364506.97849 -15859136.49647  21591921.684    21591927.384
  20545535.089   -25948606.45149 -19597797.64648  20545534.383    20545540.981
  24680941.097    -4249525.63049  -3171713.53045  24680940.890    24680949.983
  21183162.704   -20986908.10749 -16345149.90147  21183161.792    21183168.240
  21244303.066   -20449899.03449 -15778631.08148  21244302.156    21244309.117
 03  6 10  2 51 30.0000000  0  7G13G27G16G 1G 4G20G 2
  21784476.461   -17862723.53549 -13767692.00547  21784476.311    21784482.041
  23705168.304    -9407836.76349  -7155418.81246  23705167.694    23705176.961
  21599563.714   -20324350.70249 -15827845.89447  21599563.154    21599568.870
  20541797.977   -25968245.19749 -19613100.54348  20541797.280    20541803.836
  24686872.514    -4218355.96549  -3147425.53145  24686872.224    24686881.516
  21196512.978   -20916752.10549 -16290482.90647  21196512.070    21196518.529
  21245940.992   -20441291.65249 -15771924.00548  21245940.062    21245947.022
 03  6 10  2 52  0.0000000  0  7G13G27G16G 1G 4G20G 2
  21771932.973   -17928640.10649 -13819055.51547  21771932.804    21771938.508
  23692244.797    -9475749.81349  -7208337.93146  23692244.171    23692253.432
  21607307.103   -20283659.14249 -15796138.17747  21607306.483    21607312.196
  20538109.965   -25987625.70749 -19628202.20848  20538109.243    20538115.786
  24692882.410    -4186772.94849  -3122815.43545  24692882.343    24692891.711
  21209951.710   -20846131.24149 -16235453.68847  21209950.777    21209957.238
  21247670.186   -20432204.60149 -15764843.15748  21247669.285    21247676.221
 03  6 10  2 52 30.0000000  0  7G13G27G16G 1G 4G20G 2
  21759416.967   -17994411.91649 -13870306.22647  21759416.799    21759422.479
  23679349.310    -9543514.71749  -7261141.61246  23679348.818    23679358.000
  21615151.856   -20242434.56449 -15764015.12647  21615151.272    21615156.973
  20534471.157   -26006747.53049 -19643102.30648  20534470.462    20534477.036
  24698970.593    -4154779.55549  -3097885.56545  24698970.438    24698979.711
  21223478.290   -20775048.44349 -16180064.51747  21223477.402    21223483.898
  21249490.429   -20422639.09249 -15757389.49348  21249489.505    21249496.449
 03  6 10  2 53  0.0000000  0  7G13G27G16G 1G 4G20G 2
  21746928.827   -18060037.31949 -13921442.85547  21746928.665    21746934.316
  23666482.295    -9611131.56149  -7313829.92146  23666481.686    23666490.913
  21623097.785   -20200678.71749 -15731478.10247  21623097.161    21623102.873
  20530881.829   -26025609.53449 -19657799.94648  20530881.127    20530887.683
  24705136.460    -4122377.67649  -3072637.40245  24705136.290    24705145.625
  21237092.429   -20703505.92549 -16124317.12747  21237091.507    21237098.017
  21251401.578   -20412595.92049 -15749563.62348  21251400.662    21251407.575
 03  6 10  2 53 30.0000000  0  7G13G27G16G 1G 4G20G 2
  21734468.999   -18125513.86749 -13972463.49947  21734468.830    21734474.468
  23653643.407    -9678599.26349  -7366402.02746  23653642.834    23653652.131
  21631144.644   -20158392.02149 -15698527.43147  21631144.021    21631149.710
  20527342.381   -26044209.37249 -19672293.30248  20527341.677    20527348.231
  24711379.816    -4089568.18049  -3047071.61745  24711379.638    24711389.194
  21250793.805   -20631504.82649 -16068212.40247  21250792.912    21250799.445
  21253403.673   -20402074.61249 -15741365.18648  21253402.775    21253409.700
 03  6 10  2 54  0.0000000  0  7G13G27G16G 1G 4G20G 2
  21722037.443   -18190841.76949 -14023368.31447  21722037.287    21722042.927
  23640832.790    -9745919.41349  -7418859.14346  23640832.133    23640841.352
  21639291.968   -20115577.62749 -15665165.56247  21639291.331    21639297.034
  20523852.720   -26062547.52249 -19686582.75148  20523852.023    20523858.555
  24717700.196    -4056354.82649  -3021191.12445  24717700.022    24717709.396
  21264581.751   -20559048.79549 -16011753.17547  21264580.837    21264587.384
  21255496.377   -20391077.44149 -15732795.94248  21255495.447    21255502.383
 03  6 10  2 54 30.0000000  0  7G13G27G16G 1G 4G20G 2
  21709634.564   -18256019.27749 -14074155.93847  21709634.413    21709640.020
  23628050.141    -9813091.51249  -7471200.91446  23628049.492    23628058.759
  21647539.460   -20072236.78749 -15631393.47547  21647538.841    21647544.519
  20520413.206   -26080622.11949 -19700666.83048  20520412.504    20520419.069
  24724097.271    -4022738.86449  -2994996.91545  24724097.014    24724106.304
  21278455.907   -20486139.66349 -15954940.89047  21278455.012    21278461.539
  21257679.572   -20379604.39149 -15723855.88348  21257678.665    21257685.616
 03  6 10  2 55  0.0000000  0  7G13G27G16G 1G 4G20G 2
  21697260.659   -18321044.44349 -14124824.85647  21697260.489    21697266.079
  23615295.849    -9880115.00749  -7523426.88446  23615295.262    23615304.452
  21655886.888   -20028370.56049 -15597212.00047  21655886.252    21655891.955
  20517024.225   -26098431.40249 -19714544.17548  20517023.520    20517030.071
  24730570.415    -3988722.11149  -2968490.38045  24730570.192    24730579.579
  21292416.008   -20412779.07249 -15897776.81547  21292415.108    21292421.635
  21259953.255   -20367655.78849 -15714545.26748  21259952.351    21259959.352
 03  6 10  2 55 30.0000000  0  7G13G27G16G 1G 4G20G 2
  21684915.993   -18385915.85949 -14175373.96547  21684915.815    21684921.434
  23602569.841    -9946990.09949  -7575537.21346  23602569.222    23602578.395
  21664333.950   -19983981.09149 -15562622.78747  21664333.324    21664339.004
  20513685.836   -26115974.59749 -19728214.18148  20513685.131    20513691.655
  24737119.489    -3954306.55149  -2941673.10245  24737119.318    24737128.614
  21306461.534   -20338969.37149 -15840262.78947  21306460.624    21306467.158
  21262317.260   -20355232.63249 -15704864.86148  21262316.365    21262323.350
 03  6 10  2 56  0.0000000  0  7G13G27G16G 1G 4G20G 2
  21672600.744   -18450632.53649 -14225802.50147  21672600.581    21672606.189
  23589872.062   -10013716.91149  -7627532.01746  23589871.442    23589880.534
  21672880.313   -19939069.61249 -15527626.81947  21672879.668    21672885.411
  20510398.403   -26133250.13549 -19741675.62048  20510397.717    20510404.221
  24743743.987    -3919494.11949  -2914546.57945  24743743.882    24743753.233
  21320592.107   -20264712.84349 -15782400.58247  21320591.202    21320597.742
  21264771.498   -20342335.45649 -15694815.09448  21264770.586    21264777.596
 03  6 10  2 56 30.0000000  0  8G13G27G16G 1G 4G20G 3G 2
  21660314.500   -18515196.84949 -14276112.31347  21660314.347    21660319.989
  23577201.776   -10080299.38449  -7679414.34846  23577201.133    23577210.164
  21681524.893   -19893641.99849 -15492228.66947  21681524.243    21681529.951
  20507161.361   -26150260.88749 -19754930.73548  20507160.658    20507167.166
  24750442.976    -3884291.07049  -2887115.68345  24750442.865    24750452.152
  21334806.503   -20190015.73749 -15724195.06847  21334805.611    21334812.121
  24596874.736    -3759740.08049  -2916878.53245  24596874.359    24596885.100
  21267315.039   -20328969.11249 -15684399.74448  21267314.145    21267321.088
 03  6 10  2 57  0.0000000  0  8G13G27G16G 1G 4G20G 3G 2
  21648058.502   -18579602.20849 -14326298.28347  21648058.361    21648063.986
  23564559.860   -10146732.43849  -7731180.24646  23564559.265    23564568.292
  21690268.272   -19847694.96249 -15456425.77847  21690267.650    21690273.373
  20503975.860   -26167000.62649 -19767974.67448  20503975.163    20503981.633
  24757216.713    -3848694.71149  -2859378.30845  24757216.525    24757226.084
  21349105.304   -20114875.28349 -15665644.09047  21349104.392    21349110.893
  24582101.722    -3837372.55749  -2977371.17145  24582101.076    24582111.844
  21269948.632   -20315129.34249 -15673615.48948  21269947.732    21269954.688
 03  6 10  2 57 30.0000000  0  8G13G27G16G 1G 4G20G 3G 2
  21635833.038   -18643847.29649 -14376359.35547  21635832.875    21635838.489
  23551946.439   -10213016.13449  -7782829.77446  23551945.848    23551954.810
  21699110.221   -19801230.07449 -15420219.35947  21699109.609    21699115.366
  20500842.203   -26183468.02249 -19780806.39348  20500841.513    20500847.968
  24764065.207    -3812706.51549  -2831335.60645  24764064.975    24764074.340
  21363487.984   -20039293.66349 -15606749.34647  21363487.096    21363493.603
  24567336.950    -3914960.22049  -3037828.89745  24567336.577    24567347.271
  21272672.257   -20300816.65249 -15662462.72048  21272671.346    21272678.289
 03  6 10  2 58  0.0000000  0  8G13G27G16G 1G 4G20G 3G 2
  21623638.182   -18707931.46849 -14426295.04247  21623638.017    21623643.669
  23539361.270   -10279151.23149  -7834363.50846  23539360.680    23539369.612
  21708050.235   -19754249.95849 -15383611.46447  21708049.620    21708055.348
  20497760.427   -26199662.78649 -19793425.67248  20497759.746    20497766.197
  24770987.596    -3776329.69749  -2802990.08145  24770987.322    24770996.711
  21377954.124   -19963273.74049 -15547513.07047  21377953.221    21377959.733
  24552581.514    -3992500.73649  -3098249.89045  24552580.962    24552591.646
  21275485.514   -20286032.81549 -15650942.82348  21275484.599    21275491.508
 03  6 10  2 58 30.0000000  0  8G13G27G16G 1G 4G20G 3G 2
  21611474.215   -18771853.29849 -14476104.22847  21611474.058    21611479.711
  23526804.389   -10345137.89949  -7885781.56746  23526803.753    23526812.658
  21717087.945   -19706756.32649 -15346603.42647  21717087.343    21717093.104
  20494730.761   -26215583.73749 -19805831.58448  20494730.074    20494736.540
  24777983.454    -3739566.37949  -2774343.39545  24777983.318    24777992.571
  21392503.168   -19886818.10649 -15487937.27047  21392502.259    21392508.771
  24537835.303    -4069991.28949  -3158631.94845  24537834.801    24537845.384
  21278388.255   -20270778.72549 -15639056.49748  21278387.349    21278394.258
 03  6 10  2 59  0.0000000  0  8G13G27G16G 1G 4G20G 3G 2
  21599341.455   -18835611.35849 -14525785.80547  21599341.307    21599346.972
  23514275.705   -10410976.05249  -7937083.91746  23514275.056    23514283.959
  21726223.037   -19658751.08849 -15309196.73347  21726222.409    21726228.169
  20491753.437   -26231229.61249 -19818023.15748  20491752.755    20491759.206
  24785052.365    -3702418.85049  -2745397.31345  24785052.335    24785061.533
  21407134.646   -19809929.07549 -15428023.76047  21407133.769    21407140.268
  24523099.348    -4147428.79149  -3218972.65145  24523098.842    24523109.233
  21281380.302   -20255055.29749 -15626804.45648  21281379.398    21281386.278
 03  6 10  2 59 30.0000000  0  8G13G27G16G 1G 4G20G 3G 2
  21587239.957   -18899204.92949 -14575339.20747  21587239.815    21587245.493
  23501775.209   -10476666.39749  -7988271.08346  23501774.570    23501783.350
  21735455.005   -19610236.67849 -15271393.28447  21735454.388    21735460.152
  20488828.601   -26246599.75449 -19829999.86648  20488827.900    20488834.340
  24792193.936    -3664889.76249  -2716153.95745  24792193.871    24792203.109
  21421848.144   -19732609.50549 -15367774.77047  21421847.234    21421853.727
  24508373.674    -4224810.93549  -3279270.22245  24508373.277    24508383.576
  21284461.409   -20238863.79449 -15614187.68248  21284460.515    21284467.376
 03  6 10  3  0  0.0000000  0  8G13G27G16G 1G 4G20G 3G 2
  21575170.043   -18962632.64349 -14624763.37747  21575169.901    21575175.596
  23489302.776   -10542209.09949  -8039343.19346  23489302.155    23489310.875
  21744783.550   -19561215.12149 -15233194.65647  21744782.900    21744788.627
  20485956.390   -26261693.15149 -19841760.92948  20485955.698    20485962.165
  24799407.683    -3626981.31449  -2686614.95445  24799407.707    24799416.955
  21436643.015   -19654861.89849 -15307192.24047  21436642.101    21436648.606
  24493659.355    -4302134.86549  -3339522.44445  24493658.793    24493669.131
  21287631.445   -20222205.09249 -15601206.86048  21287630.550    21287637.395
 03  6 10  3  0 30.0000000  0  8G13G27G16G 1G 4G20G 3G 2
  21563131.995   -19025892.90349 -14674057.06147  21563131.855    21563137.550
  23476858.335   -10607604.26849  -8090300.36046  23476857.770    23476866.446
  21754208.151   -19511688.22849 -15194602.26047  21754207.506    21754213.249
  20483137.060   -26276508.62449 -19853305.42948  20483136.370    20483142.858
  24806693.272    -3588695.84849  -2656782.20245  24806693.293    24806702.452
  21451518.852   -19576688.91249 -15246278.25147  21451517.923    21451524.467
  24478956.541    -4379397.56549  -3399726.91845  24478956.032    24478966.450
  21290890.147   -20205080.37149 -15587862.90948  21290889.254    21290896.113
 03  6 10  3  1  0.0000000  0  8G13G27G16G 1G 4G20G 3G 2
  21551126.209   -19088983.55549 -14723218.57947  21551126.086    21551131.768
  23464442.195   -10672851.27949  -8141142.07646  23464441.576    23464450.255
  21763728.765   -19461657.05949 -15155616.92247  21763728.125    21763733.839
  20480371.027   -26291044.23549 -19864631.85748  20480370.325    20480376.793
  24814050.299    -3550034.71349  -2626656.68345  24814050.250    24814059.524
  21466475.347   -19498091.76749 -15185033.74647  21466474.449    21466480.994
  24464266.192    -4456595.30149  -3459880.79545  24464265.751    24464275.975
  21294237.509   -20187489.73249 -15574155.90048  21294236.607    21294243.484
 03  6 10  3  1 30.0000000  0  8G13G27G16G 1G 4G20G 3G 2
  21539152.660   -19151904.72549 -14772248.03047  21539152.535    21539158.229
  23452053.885   -10737951.56349  -8191869.46846  23452053.282    23452061.895
  21773344.681   -19411124.87549 -15116241.18247  21773344.078    21773349.766
  20477658.121   -26305300.25849 -19875740.41448  20477657.423    20477663.911
  24821478.227    -3511001.65549  -2596241.38045  24821478.158    24821487.225
  21481511.891   -19419074.44749 -15123461.82047  21481510.969    21481517.505
  24449588.483    -4533726.76149  -3519983.02545  24449587.873    24449598.140
  21297673.085   -20169435.55749 -15560087.69548  21297672.188    21297679.070
 03  6 10  3  2  0.0000000  0  8G13G27G16G 1G 4G20G 3G 2
  21527211.961   -19214653.39449 -14821143.06347  21527211.841    21527217.539
  23439693.786   -10802903.65649  -8242481.37346  23439693.239    23439701.813
  21783055.909   -19360091.96149 -15076475.26647  21783055.275    21783061.002
  20474999.016   -26319273.83749 -19886628.89148  20474998.334    20475004.782
  24828976.428    -3471597.25749  -2565536.69745  24828976.607    24828985.628
  21496628.125   -19339637.89649 -15061563.23347  21496627.235    21496633.819
  24434924.102    -4610787.06449  -3580029.82345  24434923.634    24434933.843
  21301197.029   -20150917.04749 -15545657.67148  21301196.129    21301202.999
 03  6 10  3  2 30.0000000  0  8G13G27G16G 1G 4G20G 3G 2
  21515304.177   -19277229.18549 -14869903.38447  21515304.045    21515309.733
  23427361.670   -10867708.96949  -8292978.91646  23427361.106    23427369.624
  21792861.789   -19308561.53449 -15036321.67447  21792861.176    21792866.926
  20472393.653   -26332965.07849 -19897297.36548  20472392.957    20472399.410
  24836545.016    -3431825.17749  -2534545.51545  24836545.088    24836554.192
  21511823.507   -19259785.79249 -14999340.83947  21511822.615    21511829.200
  24420274.071    -4687774.61249  -3640019.86845  24420273.227    24420283.349
  21304808.886   -20131936.60349 -15530867.69848  21304807.978    21304814.858
 03  6 10  3  3  0.0000000  0  8G13G27G16G 1G 4G20G 3G 2
  21503429.593   -19339630.53949 -14918527.78047  21503429.436    21503435.133
  23415057.502   -10932367.12749  -8343361.79546  23415056.963    23415065.482
  21802762.055   -19256535.27949 -14995781.72147  21802761.422    21802767.138
  20469842.262   -26346372.20749 -19907744.45248  20469841.604    20469848.086
  24844183.021    -3391687.07449  -2503269.11245  24844183.069    24844192.067
  21527097.595   -19179520.05649 -14936796.12847  21527096.691    21527103.230
  24405637.763    -4764686.02949  -3699950.64845  24405637.319    24405647.351
  21308508.501   -20112494.84949 -15515718.26448  21308507.587    21308514.459
 03  6 10  3  3 30.0000000  0  7G13G27G16G 1G20G 3G 2
  21491589.131   -19401852.41749 -14967012.31747  21491588.973    21491594.655
  23402781.959   -10996874.94949  -8393627.52846  23402781.432    23402789.937
  21812756.914   -19204011.77649 -14954854.30647  21812756.313    21812762.065
  20467345.954   -26359490.64049 -19917966.58448  20467345.272    20467351.741
  21542450.559   -19098839.82449 -14873928.43547  21542449.662    21542456.197
  24391017.835    -4841515.14349  -3759817.23645  24391017.230    24391027.175
  21312296.335   -20092589.48849 -15500207.57648  21312295.415    21312302.308
 03  6 10  3  4  0.0000000  0  7G13G27G16G 1G20G 3G 2
  21479782.425   -19463896.89149 -15015358.61847  21479782.276    21479787.948
  23390534.388   -11061236.00649  -8443778.90446  23390533.841    23390542.397
  21822845.446   -19150996.37149 -14913543.58447  21822844.799    21822850.505
  20464904.070   -26372322.66249 -19927965.53248  20464903.372    20464909.852
  21557881.255   -19017750.98949 -14810742.35147  21557880.380    21557886.919
  24376412.941    -4918261.90449  -3819619.69045  24376412.532    24376422.552
  21316171.568   -20072224.84149 -15484339.00348  21316170.682    21316177.580
 03  6 10  3  4 30.0000000  0  7G13G27G16G 1G20G 3G 2
  21468009.649   -19525763.06449 -15063565.98347  21468009.496    21468015.185
  23378314.687   -11125451.13649  -8493816.56246  23378314.010    23378322.624
  21833026.984   -19097491.81749 -14871851.71647  21833026.360    21833032.030
  20462516.671   -26384868.17049 -19937741.23548  20462516.015    20462522.491
  21573389.132   -18936256.93149 -14747240.51147  21573388.224    21573394.746
  24361824.624    -4994924.58449  -3879356.61345  24361823.921    24361833.910
  21320133.865   -20051402.84649 -15468114.05648  21320132.959    21320139.870
 03  6 10  3  5  0.0000000  0  7G13G27G16G 1G20G 3G 2
  21456271.154   -19587449.35449 -15111633.17447  21456270.993    21456276.665
  23366122.581   -11189520.40549  -8543740.57146  23366121.981    23366130.614
  21843301.310   -19043499.95149 -14829780.12847  21843300.678    21843306.321
  20460184.157   -26397125.70449 -19947292.54048  20460183.480    20460189.928
  21588973.562   -18854360.16449 -14683424.87147  21588972.665    21588979.221
  24347252.340    -5071500.03149  -3939025.58945  24347251.928    24347261.734
  21324183.021   -20030124.16849 -15451533.25448  21324182.116    21324189.047
 03  6 10  3  5 30.0000000  0  7G13G27G16G 1G20G 3G 2
  21444567.141   -19648954.14849 -15159558.94247  21444567.005    21444572.626
  23353958.441   -11253443.32949  -8593550.53546  23353957.792    23353966.411
  21853668.035   -18989022.34549 -14787330.02947  21853667.391    21853673.017
  20457906.684   -26409093.59749 -19956618.15048  20457906.016    20457912.498
  21604634.385   -18772062.36149 -14619296.72947  21604633.463    21604640.025
  24332698.000    -5147984.79349  -3998623.88245  24332697.255    24332706.881
  21328319.019   -20008389.34749 -15434597.00848  21328318.133    21328325.026
 03  6 10  3  6  0.0000000  0  7G13G27G16G 1G20G 3G 2
  21432898.053   -19710275.45549 -15207341.73847  21432897.924    21432903.501
  23341822.057   -11317220.00949  -8643246.55046  23341821.453    23341830.035
  21864126.833   -18934060.87049 -14744502.89347  21864126.220    21864131.843
  20455684.672   -26420770.35049 -19965716.90148  20455684.015    20455690.492
  21620370.903   -18689366.20349 -14554858.18847  21620369.989    21620376.596
  24318160.903    -5224375.43349  -4058148.86745  24318160.348    24318170.043
  21332541.639   -19986199.27249 -15417306.02248  21332540.749    21332547.652
 03  6 10  3  6 30.0000000  0  7G13G27G16G 1G20G 3G 2
  21421264.265   -19771411.31749 -15254980.03047  21421264.118    21421269.693
  23329713.574   -11380850.03549  -8692828.29446  23329712.986    23329721.501
  21874677.451   -18878617.35149 -14701300.14147  21874676.816    21874682.423
  20453518.338   -26432154.50149 -19974587.65048  20453517.654    20453524.129
  21636182.940   -18606273.60249 -14490110.73847  21636182.003    21636188.626
  24303642.898    -5300668.69649  -4117597.91545  24303642.030    24303651.708
  21336850.738   -19963554.79649 -15399660.95448  21336849.816    21336856.722
 03  6 10  3  7  0.0000000  0  7G13G27G16G 1G20G 3G 2
  21409665.936   -19832360.67849 -15302472.99647  21409665.787    21409671.366
  23317632.971   -11444333.94849  -8742296.18146  23317632.359    23317640.796
  21885319.227   -18822694.13949 -14657723.60647  21885318.619    21885324.197
  20451407.787   -26443245.26949 -19983229.79148  20451407.115    20451413.570
  21652069.774   -18522787.62049 -14425056.75447  21652068.875    21652075.530
  24289143.372    -5376861.94649  -4176969.08545  24289142.737    24289152.471
  21341245.976   -19940457.39449 -15381662.96148  21341245.083    21341252.004
 03  6 10  3  7 30.0000000  0  7G13G27G16G 1G20G 3G 2
  21398103.566   -19893121.19749 -15349818.81247  21398103.421    21398108.980
  23305580.255   -11507670.88749  -8791649.54446  23305579.663    23305588.041
  21896052.182   -18766292.28649 -14613774.10447  21896051.549    21896057.119
  20449353.546   -26454040.46249 -19991641.61348  20449352.868    20449359.321
  21668031.210   -18438909.79249 -14359697.43747  21668030.315    21668037.003
  24274664.000    -5452951.39149  -4236259.32745  24274663.281    24274673.008
  21345727.424   -19916907.20449 -15363312.14848  21345726.521    21345733.426
 03  6 10  3  8  0.0000000  0  7G13G27G16G 1G20G 3G 2
  21386577.174   -19953692.51849 -15397017.19947  21386577.021    21386582.580
  23293555.281   -11570862.34249  -8840889.54046  23293554.638    23293563.069
  21906875.523   -18709415.09449 -14569454.20647  21906874.906    21906880.492
  20447355.567   -26464540.04849 -19999823.09548  20447354.861    20447361.301
  21684066.532   -18354643.72149 -14294035.58647  21684065.614    21684072.318
  24260204.489    -5528935.07549  -4295467.18845  24260203.831    24260213.502
  21350294.558   -19892906.70449 -15344610.44248  21350293.669    21350300.566
 03  6 10  3  8 30.0000000  0  7G13G27G16G 1G20G 3G 2
  21375087.390   -20014071.73949 -15444065.89747  21375087.235    21375092.744
  23281558.136   -11633907.07249  -8890015.21446  23281557.553    23281565.940
  21917789.223   -18652063.25249 -14524764.46247  21917788.581    21917794.154
  20445414.253   -26474741.56349 -20007772.31848  20445413.565    20445419.976
  21700175.445   -18269990.93649 -14228072.39647  21700174.532    21700181.227
  24245766.142    -5604808.73649  -4354589.31145  24245765.476    24245774.952
  21354947.386   -19868455.79649 -15325557.77248  21354946.488    21354953.394
 03  6 10  3  9  0.0000000  0  7G13G27G16G 1G20G 3G 2
  21363634.208   -20074258.32449 -15490964.48847  21363634.074    21363639.541
  23269588.753   -11696806.18849  -8939027.41546  23269588.150    23269596.520
  21928792.582   -18594240.02649 -14479707.39547  21928791.963    21928797.561
  20443529.704   -26484644.81449 -20015489.12448  20443529.019    20443535.434
  21716357.327   -18184954.83449 -14161810.52347  21716356.379    21716363.063
  24231349.014    -5680570.25549  -4413624.07645  24231348.347    24231357.790
  21359685.537   -19843556.53449 -15306155.73048  21359684.648    21359691.524
 03  6 10  3  9 30.0000000  0  7G13G27G16G 1G20G 3G 2
  21352218.098   -20134250.19549 -15537711.36047  21352217.967    21352223.387
  23257647.094   -11759559.49249  -8987926.00046  23257646.457    23257654.853
  21939885.386   -18535947.00649 -14434284.26347  21939884.734    21939890.348
  20441702.222   -26494248.20149 -20022972.27148  20441701.564    20441707.968
  21732611.630   -18099537.66549 -14095251.70847  21732610.726    21732617.397
  24216953.750    -5756216.28549  -4472568.84745  24216953.262    24216962.625
  21364508.870   -19818209.61849 -15286404.86948  21364507.989    21364514.877
 03  6 10  3 10  0.0000000  0  7G13G27G16G 1G20G 3G 2
  21340839.174   -20194046.44649 -15584305.80547  21340839.055    21340844.481
  23245733.112   -11822167.29149  -9036711.20946  23245732.495    23245740.851
  21951067.122   -18477186.58749 -14388496.91447  21951066.483    21951072.097
  20439932.014   -26503550.69849 -20030220.95948  20439931.340    20439937.715
  21748938.024   -18013742.17349 -14028398.10147  21748937.104    21748943.731
  24202581.241    -5831743.90349  -4531421.36245  24202580.632    24202589.898
  21369417.045   -19792416.71049 -15266306.48448  21369416.171    21369423.057
 03  6 10  3 10 30.0000000  0  7G13G27G16G 1G20G 3G 2
  21329497.869   -20253645.15649 -15630746.31347  21329497.746    21329503.163
  23233846.898   -11884629.50249  -9085382.97146  23233846.243    23233854.592
  21962337.403   -18417960.68649 -14342346.86147  21962336.771    21962342.406
  20438219.301   -26512551.01649 -20037234.17848  20438218.626    20438225.036
  21765335.853   -17927570.90049 -13961251.68047  21765334.942    21765341.580
  24188232.034    -5907149.74149  -4590178.97845  24188231.306    24188240.426
  21374409.988   -19766178.59049 -15245861.17648  21374409.105    21374415.998
 03  6 10  3 11  0.0000000  0  7G13G27G16G 1G20G 3G 2
  21318194.506   -20313044.65949 -15677031.60047  21318194.361    21318199.756
  23221988.184   -11946946.78149  -9133941.81346  23221987.593    23221995.896
  21973695.767   -18358271.94549 -14295836.15247  21973695.157    21973700.803
  20436564.222   -26521248.33049 -20044011.29648  20436563.552    20436569.970
  21781804.678   -17841026.86949 -13893814.80547  21781803.741    21781810.364
  24173906.017    -5982431.32449  -4648839.78445  24173905.524    24173914.713
  21379487.354   -19739496.86249 -15225070.20648  21379486.470    21379493.341
 03  6 10  3 11 30.0000000  0  7G13G27G16G 1G20G 3G 2
  21306929.488   -20372242.87849 -15723160.04647  21306929.380    21306934.701
  23210157.299   -12009118.35149  -9182387.09746  23210156.713    23210164.961
  21985142.014   -18298121.52549 -14248965.69847  21985141.374    21985147.050
  20434967.189   -26529640.67949 -20050550.78048  20434966.517    20434972.922
  21798344.012   -17754111.89549 -13826088.86547  21798343.141    21798349.759
  24159604.678    -6057584.74249  -4707400.70645  24159604.085    24159613.326
  21384649.029   -19712371.91749 -15203933.87148  21384648.166    21384655.025
 03  6 10  3 12  0.0000000  0  7G13G27G16G 1G20G 3G 2
  21295702.800   -20431239.57649 -15769131.45847  21295702.662    21295707.965
  23198353.844   -12071145.78249  -9230720.08046  23198353.235    23198361.392
  21996675.357   -18237513.03249 -14201738.30047  21996674.749    21996680.490
  20433428.190   -26537728.20649 -20056852.73748  20433427.532    20433433.927
  21814953.298   -17666829.64049 -13758076.74047  21814952.413    21814959.008
  24145328.012    -6132608.25049  -4765860.40445  24145327.368    24145336.609
  21389894.616   -19684806.33849 -15182454.18448  21389893.735    21389900.578
 03  6 10  3 12 30.0000000  0  7G13G27G16G 1G20G 3G 2
  21284514.957   -20490032.17749 -15814943.84047  21284514.817    21284520.079
  23186577.975   -12133027.98549  -9278939.90246  23186577.407    23186585.511
  22008295.775   -18176447.51949 -14154154.77947  22008295.144    22008300.863
  20431947.594   -26545508.68749 -20062915.43948  20431946.927    20431953.338
  21831632.142   -17579181.88849 -13689779.81547  21831631.266    21831637.878
  24131076.781    -6207498.05349  -4824215.94945  24131076.214    24131085.399
  21395223.962   -19656800.40149 -15160631.36048  21395223.075    21395229.926
 03  6 10  3 13  0.0000000  0  7G13G27G16G 1G20G 3G 2
  21273366.072   -20548619.70549 -15860596.41847  21273365.945    21273371.234
  23174829.606   -12194765.73049  -9327047.15146  23174829.070    23174837.112
  22020002.563   -18114927.69649 -14106217.25647  22020001.940    22020007.718
  20430525.562   -26552981.34649 -20068738.28148  20430524.892    20430531.334
  21848379.893   -17491171.89249 -13621200.61747  21848379.002    21848385.658
  24116851.569    -6282251.23149  -4882465.05145  24116850.932    24116860.211
  21400636.792   -19628355.75749 -15138466.68548  21400635.898    21400642.737
 03  6 10  3 13 30.0000000  0  7G13G27G16G 1G20G 3G 2
  21262256.642   -20606999.82249 -15906087.38047  21262256.526    21262261.808
  23163108.858   -12256358.52149  -9375041.45946  23163108.274    23163116.278
  22031795.580   -18052955.33249 -14057927.09747  22031794.956    22031800.689
  20429162.476   -26560144.42349 -20074319.88748  20429161.796    20429168.258
  21865196.241   -17402801.56749 -13552340.64247  21865195.350    21865201.990
  24102653.091    -6356864.21449  -4940604.87745  24102652.451    24102661.666
  21406132.990   -19599473.10349 -15115960.70448  21406132.113    21406138.907
 03  6 10  3 14  0.0000000  0  7G13G27G16G 1G20G 3G 2
  21251186.929   -20665171.54149 -15951415.95847  21251186.800    21251192.034
  23151415.367   -12317807.47749  -9422923.68146  23151414.769    23151422.856
  22043674.023   -17990533.56549 -14009286.76147  22043673.402    22043679.142
  20427858.319   -26566997.58649 -20079660.00148  20427857.658    20427864.151
  21882080.436   -17314074.51449 -13483202.69647  21882079.572    21882086.225
  24088481.617    -6431334.83149  -4998633.80645  24088481.021    24088490.178
  21411712.094   -19570154.64449 -15093115.13848  21411711.211    21411718.011
 03  6 10  3 14 30.0000000  0  7G13G27G16G 1G20G 3G 2
  21240157.373   -20723132.25149 -15996580.10947  21240157.235    21240162.456
  23139749.436   -12379111.84049  -9470693.23846  23139748.816    23139756.920
  22055637.864   -17927663.31249 -13960296.94947  22055637.230    22055642.925
  20426613.582   -26573538.70749 -20084756.96348  20426612.930    20426619.397
  21899032.227   -17224992.40449 -13413788.09547  21899031.336    21899037.981
  24074338.042    -6505659.28449  -5056548.81745  24074337.443    24074346.594
  21417374.071   -19540400.76949 -15069930.28248  21417373.171    21417379.939
 03  6 10  3 15  0.0000000  0  7G13G27G16G 1G20G 3G 2
  21229168.057   -20780881.21149 -16041579.26447  21229167.913    21229173.164
  23128110.833   -12440272.24549  -9518350.62646  23128110.253    23128118.370
  22067686.393   -17864347.53449 -13910959.98347  22067685.779    22067691.495
  20425428.344   -26579767.25049 -20089610.35848  20425427.661    20425434.135
  21916050.849   -17135558.61849 -13344099.44747  21916050.014    21916056.681
  24060222.648    -6579834.97749  -5114347.92545  24060222.195    24060231.351
  21423118.578   -19510213.23249 -15046407.51648  21423117.674    21423124.473
 03  6 10  3 15 30.0000000  0  7G13G27G16G 1G20G 3G 2
  21218219.364   -20838416.75749 -16086412.12147  21218219.223    21218224.466
  23116499.754   -12501288.89449  -9565895.99546  23116499.131    23116507.241
  22079819.390   -17800588.52149 -13861277.62447  22079818.750    22079824.462
  20424302.738   -26585681.98449 -20094219.22248  20424302.100    20424308.566
  21933135.999   -17045775.84649 -13274138.87247  21933135.126    21933141.765
  24046136.488    -6653858.62249  -5172028.53445  24046135.817    24046144.949
  21428945.317   -19479593.43049 -15022547.91548  21428944.411    21428951.179
 03  6 10  3 16  0.0000000  0  7G13G27G16G 1G20G 3G 2
  21207311.538   -20895737.33149 -16131077.46747  21207311.414    21207316.647
  23104915.889   -12562161.84849  -9613329.39846  23104915.260    23104923.361
  22092036.142   -17736388.65249 -13811251.74647  22092035.512    22092041.219
  20423237.168   -26591281.86149 -20098582.74648  20423236.488    20423242.935
  21950287.009   -16955646.63749 -13203908.34147  21950286.163    21950292.813
  24032079.593    -6727727.21149  -5229588.33045  24032079.088    24032088.055
  21434854.020   -19448542.78949 -14998352.59648  21434853.130    21434859.921
 03  6 10  3 16 30.0000000  0  7G13G27G16G 1G20G 3G 2
  21196444.925   -20952841.75249 -16175574.38647  21196444.797    21196449.985
  23093359.331   -12622891.81749  -9660651.36346  23093358.701    23093366.789
  22104336.423   -17671750.38149 -13760884.25047  22104335.807    22104341.469
  20422231.576   -26596566.02749 -20102700.25948  20422230.924    20422237.376
  21967503.471   -16865174.02349 -13133410.22147  21967502.554    21967509.221
  24018052.994    -6801438.18549  -5287025.30845  24018052.239    24018061.140
  21440844.464   -19417062.85549 -14973822.76148  21440843.553    21440850.357
 03  6 10  3 17  0.0000000  0  7G13G27G16G 1G20G 3G 2
  21185619.995   -21009727.29349 -16219900.75147  21185619.861    21185624.987
  23081830.114   -12683478.09749  -9707861.37146  23081829.522    23081837.527
  22116719.817   -17606675.32349 -13710176.40747  22116719.154    22116724.861
  20421286.526   -26601532.46949 -20106570.19648  20421285.848    20421292.261
  21984784.752   -16774360.14249 -13062646.18847  21984783.881    21984790.561
  24004056.628    -6874987.70749  -5344336.51245  24004056.157    24004065.060
  21446916.419   -19385154.33249 -14948958.96448  21446915.549    21446922.342
 03  6 10  3 17 30.0000000  0  7G13G27G16G 1G20G 3G 2
  21174836.858   -21066393.06849 -16264055.86847  21174836.716    21174841.814
  23070328.040   -12743921.65249  -9754960.17246  23070327.435    23070335.438
  22129185.699   -17541166.31949 -13659130.42447  22129185.094    22129190.779
  20420401.915   -26606180.81449 -20110192.27048  20420401.260    20420407.699
  22002130.398   -16683208.30849 -12991618.81047  22002129.513    22002136.209
  23990091.913    -6948373.58849  -5401520.15845  23990091.186    23990100.108
  21453069.544   -19352819.27249 -14923762.79948  21453068.650    21453075.474
 03  6 10  3 18  0.0000000  0  7G13G27G16G 1G20G 3G 2
  21164095.885   -21122837.14649 -16308038.23247  21164095.741    21164100.875
  23058853.172   -12804222.13649  -9801947.47946  23058852.568    23058860.552
  22141733.893   -17475225.32349 -13607747.82047  22141733.257    22141738.943
  20419578.248   -26610509.33449 -20113565.13048  20419577.591    20419584.004
  22019539.986   -16591720.73249 -12920329.81547  22019539.090    22019545.760
  23976158.586    -7021592.21649  -5458573.52145  23976158.051    23976166.965
  21459303.708   -19320058.49849 -14898234.90648  21459302.844    21459309.656
 03  6 10  3 18 30.0000000  0  7G13G27G16G 1G20G 3G 2
  21153397.357   -21179057.81149 -16351846.51147  21153397.218    21153402.415
  23047405.523   -12864379.92749  -9848823.60846  23047404.894    23047412.860
  22154363.734   -17408854.81249 -13556030.53547  22154363.094    22154368.858
  20418815.529   -26614517.22049 -20116688.14048  20418814.879    20418821.289
  22037012.785   -16499900.48849 -12848781.59347  22037011.904    22037018.599
  23962258.003    -7094640.93749  -5515494.45345  23962257.345    23962266.080
  21465618.549   -19286873.64649 -14872376.56348  21465617.662    21465624.509
 03  6 10  3 19  0.0000000  0  7G13G27G16G 1G20G 3G 2
  21142741.685   -21235053.23649 -16395479.27947  21142741.585    21142746.832
  23035984.950   -12924394.89849  -9895588.43446  23035984.390    23035992.334
  22167074.976   -17342056.81549 -13503980.14747  22167074.334    22167080.065
  20418114.206   -26618202.82349 -20119560.02348  20418113.544    20418119.913
  22054548.535   -16407749.85449 -12776975.93147  22054547.604    22054554.312
  23948390.140    -7167515.82249  -5572279.95145  23948389.566    23948398.260
  21472013.876   -19253265.76049 -14846188.58648  21472013.005    21472019.859
 03  6 10  3 19 30.0000000  0  7G13G27G16G 1G20G 3G 2
  21132129.278   -21290821.71049 -16438935.20347  21132129.161    21132134.443
  23024591.657   -12984267.11849  -9942242.02746  23024591.077    23024598.927
  22179867.133   -17274833.49849 -13451598.33747  22179866.508    22179872.253
  20417474.367   -26621565.01049 -20122179.88948  20417473.687    20417480.076
  22072146.515   -16315271.74349 -12704915.08647  22072145.631    22072152.316
  23934556.042    -7240213.98549  -5628927.72245  23934555.492    23934564.080
  21478489.476   -19219236.37949 -14819672.16948  21478488.572    21478495.433
 03  6 10  3 20  0.0000000  0  7G13G27G16G 1G20G 3G 2
  21121560.247   -21346362.11049 -16482213.41247  21121560.158    21121565.408
  23013225.244   -13043997.56149  -9988785.15046  23013224.676    23013232.583
  22192739.612   -17207187.82749 -13398887.42947  22192738.997    22192744.802
  20416896.227   -26624603.27049 -20124547.35448  20416895.547    20416901.924
  22089806.230   -16222469.30349 -12632601.52547  22089805.336    22089812.049
  23920755.995    -7312733.13449  -5685435.99345  23920755.406    23920763.925
  21485044.860   -19184787.60049 -14792828.95148  21485043.944    21485050.787
 03  6 10  3 20 30.0000000  0  7G13G27G16G 1G20G 3G 2
  21111035.053   -21401672.33949 -16525312.26847  21111034.945    21111040.165
  23001885.889   -13103585.89749 -10035217.54146  23001885.316    23001893.219
  22205692.132   -17139121.74349 -13345848.91147  22205691.560    22205697.292
  20416379.993   -26627315.94449 -20126661.10548  20416379.325    20416385.685
  22107527.261   -16129344.95749 -12560037.13747  22107526.328    22107533.045
  23906990.635    -7385069.60849  -5741801.92045  23906990.175    23906998.596
  21491679.869   -19149920.30149 -14765659.61448  21491678.960    21491685.803
 03  6 10  3 21  0.0000000  0  7G13G27G16G 1G20G 3G 2
  21100553.957   -21456750.79349 -16568230.52147  21100553.851    21100559.038
  22990573.531   -13163032.11449 -10081539.18146  22990572.978    22990580.871
  22218724.260   -17070637.77249 -13292484.78147  22218723.628    22218729.362
  20415925.944   -26629701.96249 -20128520.32948  20415925.269    20415931.609
  22125308.931   -16035901.40749 -12487224.00547  22125308.068    22125314.770
  23893260.762    -7457220.48349  -5798023.22345  23893260.161    23893268.653
  21498394.268   -19114635.75749 -14738165.14648  21498393.352    21498400.204
 03  6 10  3 21 30.0000000  0  7G13G27G16G 1G20G 3G 2
  21090117.214   -21511596.11849 -16610967.11447  21090117.096    21090122.304
  22979288.132   -13222336.94349 -10127750.65346  22979287.600    22979295.515
  22231835.308   -17001738.26849 -13238796.85147  22231834.731    22231840.496
  20415534.198   -26631760.44049 -20130124.32048  20415533.540    20415539.872
  22143150.878   -15942141.73249 -12414164.53547  22143149.956    22143156.724
  23879566.659    -7529182.89349  -5854097.67445  23879566.021    23879574.505
  21505187.693   -19078935.85749 -14710347.02448  21505186.799    21505193.631
 03  6 10  3 22  0.0000000  0  7G13G27G16G 1G20G 3G 2
  21079725.160   -21566206.32049 -16653520.49747  21079725.070    21079730.288
  22968029.771   -13281500.09849 -10173851.72346  22968029.164    22968037.007
  22245025.157   -16932425.47449 -13184786.88147  22245024.580    22245030.310
  20415205.114   -26633489.92549 -20131471.95648  20415204.438    20415210.765
  22161052.397   -15848068.28549 -12340860.58247  22161051.553    22161058.294
  23865909.010    -7600953.26949  -5910022.50145  23865908.415    23865916.943
  21512059.980   -19042821.79149 -14682206.17748  21512059.071    21512065.882
 03  6 10  3 22 30.0000000  0  7G13G27G16G 1G20G 3G 2
  21069378.211   -21620579.77549 -16695889.39747  21069378.123    21069383.394
  22956798.106   -13340522.12249 -10219842.83146  22956797.570    22956805.390
  22258293.074   -16862701.95349 -13130456.86846  22258292.475    22258298.234
  20414938.723   -26634889.68649 -20132562.66648  20414938.072    20414944.384
  22179013.088   -15753684.50549 -12267314.79847  22179012.229    22179018.983
  23852288.431    -7672529.09249  -5965795.71745  23852287.895    23852296.395
  21519010.724   -19006295.42049 -14653744.05048  21519009.820    21519016.593
 03  6 10  3 23  0.0000000  0  7G13G27G16G 1G20G 3G 2
  21059076.691   -21674714.63849 -16738072.39047  21059076.595    21059081.873
  22945593.361   -13399403.10649 -10265724.03546  22945592.847    22945600.599
  22271638.724   -16792570.09349 -13075808.66446  22271638.146    22271643.861
  20414735.318   -26635958.44849 -20133395.44948  20414734.653    20414740.982
  22197032.355   -15658992.68449 -12193528.98946  22197031.505    22197038.266
  23838705.567    -7743907.05349  -6021414.74645  23838704.999    23838713.505
  21526039.672   -18969358.02749 -14624961.65148  21526038.773    21526045.520
 03  6 10  3 23 30.0000000  0  7G13G27G16G 1G20G 3G 2
  21048820.809   -21728609.59249 -16780068.44147  21048820.705    21048825.953
  22934415.444   -13458143.45749 -10311495.65646  22934414.865    22934422.555
  22285061.565   -16722032.47449 -13020844.28646  22285060.963    22285066.749
  20414595.083   -26636695.35649 -20133969.64548  20414594.430    20414600.771
  22215109.653   -15563995.87849 -12119505.53346  22215108.781    22215115.578
  23825160.886    -7815084.55949  -6076877.56945  23825160.275    23825168.802
  21533146.454   -18932011.38049 -14595860.35148  21533145.583    21533152.323
 03  6 10  3 24  0.0000000  0  7G13G27G16G 1G20G 3G 2
  21038610.885   -21782262.95449 -16821876.23347  21038610.793    21038616.014
  22923264.184   -13516743.62249 -10357158.03346  22923263.645    22923271.273
  22298561.211   -16651091.56549 -12965565.65847  22298560.598    22298566.403
  20414518.192   -26637099.26249 -20134284.36148  20414517.524    20414523.877
  22233244.377   -15468697.25349 -12045246.89346  22233243.486    22233250.331
  23811654.887    -7886058.44549  -6132181.75145  23811654.265    23811662.657
  21540330.891   -18894257.06549 -14566441.38748  21540329.990    21540336.704
 03  6 10  3 24 30.0000000  0  7G13G27G16G 1G20G 3G 2
  21028447.338   -21835672.72949 -16863494.21847  21028447.239    21028452.467
  22912139.693   -13575203.15649 -10402710.84746  22912139.086    22912146.711
  22312137.205   -16579749.19449 -12909974.20946  22312136.569    22312142.381
  20414504.991   -26637168.59849 -20134338.37448  20414504.343    20414510.674
  22251436.117   -15373099.09549 -11970754.84946  22251435.252    22251442.119
  23798188.268    -7956825.40449  -6187324.67345  23798187.748    23798196.008
  21547592.617   -18856096.19149 -14536705.63048  21547591.773    21547598.495
 03  6 10  3 25  0.0000000  0  7G13G27G16G 1G20G 3G 2
  21018330.468   -21888837.43149 -16904921.23647  21018330.353    21018335.581
  22901041.762   -13633522.64149 -10448154.52146  22901041.209    22901048.783
  22325789.064   -16508008.18549 -12854072.13446  22325788.448    22325794.247
  20414555.610   -26636902.56149 -20134131.05848  20414554.938    20414561.297
  22269684.252   -15277204.59549 -11896031.90446  22269683.359    22269690.226
  23784761.593    -8027382.51449  -6242304.08945  23784760.963    23784769.292
  21554931.399   -18817530.66349 -14506654.55248  21554930.512    21554937.228
 03  6 10  3 25 30.0000000  0  7G13G27G16G 1G20G 3G 2
  21008260.530   -21941755.12849 -16946155.78247  21008260.404    21008265.669
  22889970.531   -13691702.25149 -10493489.20446  22889969.934    22889977.544
  22339516.398   -16435870.79449 -12797861.18446  22339515.765    22339521.577
  20414670.217   -26636300.12149 -20133661.61248  20414669.568    20414675.968
  22287988.212   -15181016.33249 -11821080.02946  22287987.387    22287994.281
  23771375.329    -8097726.80349  -6297117.65145  23771374.790    23771383.019
  21562346.861   -18778561.86149 -14476289.23948  21562346.008    21562352.715
 03  6 10  3 26  0.0000000  0  7G13G27G16G 1G20G 3G 2
  20998237.947   -21994423.94649 -16987196.39147  20998237.822    20998243.082
  22878925.862   -13749741.81149 -10538714.75646  22878925.320    22878932.889
  22353318.617   -16363339.27249 -12741343.12046  22353318.020    22353323.817
  20414849.137   -26635359.80749 -20132928.88448  20414848.475    20414854.866
  22306347.722   -15084536.72249 -11745901.13946  22306346.848    22306353.762
  23758030.350    -8167854.61249  -6351762.54945  23758029.659    23758037.961
  21569838.862   -18739191.12249 -14445610.72648  21569837.982    21569844.742
 03  6 10  3 26 30.0000000  0  8G13G27G16G 1G20G31G 3G 2
  20988262.832   -22046843.45449 -17028042.74147  20988262.698    20988267.934
  22867907.623   -13807642.89349 -10583832.41646  22867907.068    22867914.615
  22367195.194   -16290417.36649 -12684520.86446  22367194.613    22367200.361
  20415092.301   -26634081.80749 -20131933.02748  20415091.646    20415098.031
  22324761.776   -14987770.27049 -11670498.74746  22324760.880    22324767.790
  24564904.641    -3776967.85449  -2757836.20845  24564903.771    24564914.246
  23744726.800    -8237764.49849  -6406237.65245  23744726.248    23744734.411
  21577406.745   -18699421.44849 -14414621.36148  21577405.883    21577412.642
 03  6 10  3 27  0.0000000  0  8G13G27G16G 1G20G31G 3G 2
  20978335.214   -22099013.41549 -17068694.63647  20978335.071    20978340.291
  22856915.392   -13865407.03249 -10628843.36346  22856914.847    22856922.395
  22381145.417   -16217108.80349 -12627397.30946  22381144.816    22381150.549
  20415399.722   -26632466.42049 -20130674.27148  20415399.053    20415405.450
  22343229.633   -14890721.04749 -11594876.00946  22343228.765    22343235.680
  24547286.551    -3869550.76149  -2829978.50945  24547285.588    24547296.104
  23731465.165    -8307454.73949  -6460541.61445  23731464.519    23731472.697
  21585050.011   -18659255.76349 -14383323.40948  21585049.121    21585055.920
 03  6 10  3 27 30.0000000  0  8G13G27G16G 1G20G31G 3G 2
  20968456.207   -22150927.88749 -17109147.44047  20968456.060    20968461.292
  22845949.925   -13923030.64349 -10673744.81146  22845949.368    22845956.860
  22395169.377   -16143412.28449 -12569971.46746  22395168.777    22395174.565
  20415772.238   -26630508.71449 -20129148.77048  20415771.566    20415777.951
  22361751.641   -14793387.78549 -11519031.94846  22361750.682    22361757.597
  24529659.983    -3962178.74649  -2902155.94345  24529658.861    24529669.347
  23718246.590    -8376918.46449  -6514669.05345  23718245.971    23718253.955
  21592769.028   -18618691.79549 -14351715.11048  21592768.168    21592774.980
 03  6 10  3 28  0.0000000  0  8G13G27G16G 1G20G31G 3G 2
  20958625.988   -22202585.87849 -17149400.39847  20958625.845    20958631.069
  22835011.095   -13980514.46249 -10718537.33146  22835010.511    22835017.994
  22409266.603   -16069330.63649 -12512245.51646  22409266.028    22409271.814
  20416209.987   -26628208.19349 -20127356.15248  20416209.322    20416215.715
  22380326.884   -14695774.11349 -11442969.36546  22380325.983    22380332.912
  24512025.250    -4054849.34849  -2974366.56545  24512024.069    24512034.488
  23705071.459    -8446153.17549  -6568618.06645  23705070.921    23705078.898
  21600563.520   -18577731.59049 -14319798.05948  21600562.622    21600569.407
 03  6 10  3 28 30.0000000  0  8G13G27G16G 1G20G31G 3G 2
  20948845.035   -22253985.01649 -17189451.64447  20948844.887    20948850.086
  22824098.893   -14037857.85749 -10763220.43246  22824098.336    22824105.838
  22423436.871   -15994865.53349 -12454220.77046  22423436.298    22423442.091
  20416713.381   -26625562.83649 -20125294.83148  20416712.714    20416719.105
  22398955.193   -14597882.10249 -11366689.90946  22398954.267    22398961.198
  24494382.862    -4147558.82049  -3046607.49645  24494381.972    24494392.116
  23691940.822    -8515154.96649  -6622385.55245  23691940.132    23691948.133
  21608433.197   -18536375.93349 -14287572.86648  21608432.333    21608439.168
 03  6 10  3 29  0.0000000  0  9G13G27G16G 1G20G31G 3G 8G 2
  20939112.928   -22305127.40949 -17229302.83347  20939112.784    20939117.965
  22813212.626   -14095065.23349 -10807797.55146  22813212.122    22813219.600
  22437678.818   -15920023.77449 -12395902.52846  22437678.228    22437684.019
  20417281.767   -26622575.73149 -20122967.20548  20417281.110    20417287.507
  22417635.190   -14499718.52649 -11290198.85846  22417634.225    22417641.147
  24476732.961    -4240308.42549  -3118879.70345  24476732.161    24476742.250
  23678854.092    -8583925.08149  -6675972.54845  23678853.501    23678861.460
  24728081.800    -3826829.41949  -2971174.23945  24728081.026    24728092.403
  21616377.067   -18494630.66349 -14255044.07648  21616376.184    21616382.978
 03  6 10  3 29 30.0000000  0  9G13G27G16G 1G20G31G 3G 8G 2
  20929429.860   -22356012.10949 -17268953.22247  20929429.737    20929434.896
  22802352.158   -14152137.27549 -10852269.21446  22802351.600    22802359.116
  22451991.931   -15844807.98349 -12337292.82646  22451991.339    22451997.144
  20417915.311   -26619246.43249 -20120372.93248  20417914.652    20417921.037
  22436366.069   -14401287.05249 -11213499.03246  22436365.168    22436372.062
  24459076.015    -4333095.68549  -3191181.20645  24459075.195    24459085.233
  23665812.132    -8652460.90649  -6729376.96445  23665811.480    23665819.461
  24711908.409    -3911821.13049  -3037401.35045  24711907.692    24711919.001
  21624394.660   -18452497.85949 -14222213.31148  21624393.784    21624400.583
 03  6 10  3 30  0.0000000  0  9G13G27G16G 1G20G31G 3G 8G 2
  20919797.175   -22406632.16549 -17308397.39747  20919797.056    20919802.174
  22791518.250   -14209069.30649 -10896631.78646  22791517.721    22791525.256
  22466376.570   -15769216.06649 -12278390.04246  22466375.952    22466381.794
  20418615.097   -26615568.89749 -20117507.31148  20418614.457    20418620.846
  22455148.396   -14302585.44949 -11136588.72746  22455147.455    22455154.338
  24441413.302    -4425912.49249  -3263505.73745  24441412.592    24441422.460
  23652816.092    -8720754.52749  -6782592.66745  23652815.616    23652823.455
  24695753.091    -3996717.19249  -3103553.92645  24695752.377    24695763.622
  21632486.685   -18409974.10449 -14189077.90848  21632485.792    21632492.617
 03  6 10  3 30 30.0000000  0  9G13G27G16G 1G20G31G 3G 8G 2
  20910214.996   -22456986.77249 -17347634.71947  20910214.879    20910219.992
  22780710.943   -14265862.20949 -10940885.94046  22780710.403    22780717.896
  22480832.267   -15693251.12849 -12219196.59046  22480831.664    22480837.446
  20419381.288   -26611542.75549 -20114370.04448  20419380.637    20419387.006
  22473981.377   -14203617.26349 -11059470.70546  22473980.517    22473987.417
  24423745.428    -4518756.64549  -3335851.46745  24423744.784    24423754.527
  23639866.812    -8788803.75049  -6835617.91645  23639866.152    23639874.072
  24679615.849    -4081518.19349  -3169632.45045  24679615.109    24679626.309
  21640652.549   -18367062.00249 -14155639.89647  21640651.669    21640658.507
 03  6 10  3 31  0.0000000  0  9G13G27G16G 1G20G31G 3G 8G 2
  20900683.609   -22507074.55649 -17386664.13047  20900683.468    20900688.584
  22769929.776   -14322516.93049 -10985032.42746  22769929.266    22769936.815
  22495358.366   -15616916.22749 -12159714.85946  22495357.718    22495363.509
  20420213.801   -26607167.72449 -20110960.91748  20420213.151    20420219.510
  22492864.478   -14104386.12149 -10982147.76646  22492863.595    22492870.519
  24406072.726    -4611626.07549  -3408216.95045  24406072.079    24406081.813
  23626964.156    -8856606.22449  -6888450.91045  23626963.674    23626971.525
  24663496.720    -4166224.36949  -3235637.06245  24663495.867    24663507.107
  21648891.954   -18323763.55349 -14121900.83147  21648891.065    21648897.913
 03  6 10  3 31 30.0000000  0  9G13G27G16G 1G20G31G 3G 8G 2
  20891203.171   -22556894.35549 -17425484.72647  20891203.041    20891208.130
  22759174.989   -14379034.05149 -11029071.69246  22759174.412    22759181.908
  22509954.223   -15540214.25049 -12099947.09846  22509953.603    22509959.412
  20421112.841   -26602443.22949 -20107279.48048  20421112.188    20421118.531
  22511796.953   -14004895.30249 -10904622.49846  22511796.128    22511803.048
  24388395.748    -4704518.22049  -3480600.14345  24388395.046    24388404.937
  23614109.228    -8924159.08749  -6941089.37945  23614108.703    23614116.492
  24647395.557    -4250836.10349  -3301568.11145  24647394.784    24647405.774
  21657204.413   -18280081.03149 -14087862.49647  21657203.520    21657210.425
 03  6 10  3 32  0.0000000  0  9G13G27G16G 1G20G31G 3G 8G 2
  20881774.106   -22606444.22949 -17464094.98347  20881773.989    20881779.086
  22748446.185   -14435413.85449 -11073003.96446  22748445.589    22748453.125
  22524619.504   -15463147.79049 -12039895.33146  22524618.921    22524624.651
  20422078.602   -26597368.19949 -20103324.90548  20422077.960    20422084.263
  22530778.388   -13905147.57649 -10826897.03646  22530777.527    22530784.452
  24370715.024    -4797430.00349  -3552998.64845  24370714.316    24370724.134
  23601302.227    -8991459.46449  -6993531.11745  23601301.729    23601309.629
  24631312.327    -4335352.95949  -3367425.21845  24631311.568    24631322.582
  21665589.701   -18236016.10049 -14053526.17947  21665588.825    21665595.693
 03  6 10  3 32 30.0000000  0  9G13G27G16G 1G20G31G 3G 8G 2
  20872396.683   -22655722.85749 -17502493.88647  20872396.570    20872401.679
  22737743.450   -14491656.66949 -11116829.48746  22737742.918    22737750.420
  22539353.721   -15385719.38949 -11979561.50746  22539353.061    22539358.732
  20423111.211   -26591941.72749 -20099096.47548  20423110.555    20423116.863
  22549808.082   -13805145.99449 -10748973.75946  22549807.203    22549814.163
  24353031.182    -4890358.59849  -3625410.26345  24353030.289    24353040.072
  23588543.864    -9058504.57949  -7045773.96645  23588543.402    23588551.295
  24615247.146    -4419774.90649  -3433208.36245  24615246.430    24615257.540
  21674047.414   -18191570.48349 -14018893.22747  21674046.520    21674053.379
 03  6 10  3 33  0.0000000  0  9G13G27G16G 1G20G31G 3G 8G 2
  20863071.216   -22704728.43149 -17540680.02747  20863071.116    20863076.192
  22727066.811   -14547762.61349 -11160548.35246  22727066.250    22727073.720
  22554156.157   -15307931.67649 -11918947.72446  22554155.543    22554161.291
  20424210.872   -26586162.89449 -20094593.47648  20424210.224    20424216.525
  22568885.437   -13704893.56849 -10670855.02546  22568884.616    22568891.604
  24335344.642    -4983300.87549  -3697832.53545  24335343.693    24335353.331
  23575834.737    -9125291.39149  -7097815.53845  23575834.240    23575842.088
  24599200.121    -4504101.49949  -3498917.20945  24599199.399    24599210.400
  21682577.240   -18146745.96949 -13983965.02747  21682576.365    21682583.184
 03  6 10  3 33 30.0000000  0  9G13G27G16G 1G20G31G 3G 8G 2
  20853798.033   -22753459.32349 -17578652.12247  20853797.916    20853802.969
  22716416.046   -14603732.40649 -11204161.14046  22716415.513    22716422.979
  22569026.578   -15229787.37249 -11858056.05746  22569025.958    22569031.676
  20425377.735   -26580030.82749 -20089815.23348  20425377.076    20425383.395
  22588010.044   -13604393.45549 -10592543.28946  22588009.226    22588016.176
  24317655.886    -5076254.23549  -3770263.44945  24317655.198    24317664.535
  23563175.212    -9191817.26149  -7149653.79345  23563174.703    23563182.471
  24583171.488    -4588332.87249  -3564551.87245  24583170.626    24583181.522
  21691178.801   -18101544.66549 -13948743.22647  21691177.900    21691184.693
 03  6 10  3 34  0.0000000  0  9G13G27G16G 1G20G31G 3G 8G 2
  20844577.342   -22801914.09249 -17616409.05947  20844577.230    20844582.284
  22705791.193   -14659566.28449 -11247668.01446  22705790.658    22705798.108
  22583964.344   -15151288.96949 -11796888.48446  22583963.697    22583969.460
  20426612.002   -26573544.65149 -20084761.05748  20426611.341    20426617.682
  22607181.175   -13503648.79549 -10514040.99146  22607180.325    22607187.238
  24299965.749    -5169215.76049  -3842700.72645  24299964.965    24299974.228
  23550565.942    -9258079.24849  -7201286.41845  23550565.323    23550573.181
  24567160.655    -4672468.74449  -3630112.11845  24567159.899    24567170.618
  21699851.645   -18055968.39749 -13913229.24447  21699850.786    21699857.543
 03  6 10  3 34 30.0000000  0  9G13G27G16G 1G20G31G 3G 8G 2
  20835409.733   -22850090.14549 -17653948.81347  20835409.626    20835414.646
  22695192.293   -14715263.66349 -11291068.53346  22695191.766    22695199.171
  22598969.047   -15072438.32649 -11735446.43246  22598968.440    22598974.224
  20427913.966   -26566702.66049 -20079429.62548  20427913.300    20427919.655
  22626398.466   -13402661.39749 -10435349.55546  22626397.641    22626404.529
  24282274.815    -5262181.65949  -3915141.40845  24282273.932    24282283.146
  23538007.458    -9324073.32449  -7252710.28845  23538007.047    23538014.731
  24551168.244    -4756508.08149  -3695597.13445  24551167.601    24551178.287
  21708595.787   -18010017.90549 -13877423.66247  21708594.883    21708601.603
 03  6 10  3 35  0.0000000  0  9G13G27G16G 1G20G31G 3G 8G 2
  20826295.385   -22897986.41449 -17691270.54947  20826295.266    20826300.260
  22684619.135   -14770825.70349 -11334363.58546  22684618.585    22684625.960
  22614040.287   -14993238.85849 -11673732.56246  22614039.676    22614045.418
  20429283.738   -26559504.54149 -20073820.69148  20429283.062    20429289.418
  22645661.140   -13301435.08249 -10356471.94446  22645660.386    22645667.333
  24264583.240    -5355149.66249  -3987583.74145  24264582.549    24264591.805
  23525500.661    -9389797.65849  -7303923.97345  23525500.036    23525507.732
  24535194.173    -4840451.86449  -3761007.69945  24535193.419    24535204.168
  21717410.555   -17963695.92949 -13841328.61447  21717409.670    21717416.370
 03  6 10  3 35 30.0000000  0  9G13G27G16G 1G20G31G 3G 8G 2
  20817234.644   -22945600.61449 -17728372.49347  20817234.548    20817239.573
  22674071.854   -14826252.06949 -11377552.92646  22674071.307    22674078.606
  22629177.366   -14913692.35549 -11611748.28746  22629176.777    22629182.613
  20430721.528   -26551948.86749 -20067933.14648  20430720.856    20430727.194
  22664968.982   -13199972.20349 -10277410.00846  22664968.129    22664975.123
  24246891.876    -5448116.28649  -4060025.01145  24246891.387    24246900.376
  23513045.635    -9455248.72649  -7354924.72345  23513045.058    23513052.753
  24519238.536    -4924298.98149  -3826342.95945  24519237.645    24519248.452
  21726295.792   -17917003.68049 -13804945.04147  21726294.919    21726301.618
 03  6 10  3 36  0.0000000  0  9G13G27G16G 1G20G31G 3G 8G 2
  20808227.906   -22992931.30749 -17765253.52947  20808227.804    20808232.820
  22663550.230   -14881543.32549 -11420636.97446  22663549.661    22663556.950
  22644380.080   -14833801.90449 -11549495.99446  22644379.482    22644385.293
  20432227.440   -26544035.14149 -20061766.59348  20432226.774    20432233.115
  22684321.113   -13098276.13149 -10198166.36546  22684320.262    22684327.292
  24229201.506    -5541078.76549  -4132463.05045  24229201.044    24229209.981
  23500643.104    -9520423.87949  -7405710.49245  23500642.544    23500650.244
  24503301.212    -5008049.32649  -3891602.80645  24503300.378    24503311.004
  21735251.112   -17869943.21949 -13768274.55347  21735250.229    21735256.905
 03  6 10  3 36 30.0000000  0  9G13G27G16G 1G20G31G 3G 8G 2
  20799275.415   -23039976.72749 -17801912.26947  20799275.321    20799280.320
  22653054.331   -14936699.52549 -11463615.79046  22653053.747    22653061.007
  22659647.752   -14753569.85749 -11486977.52246  22659647.123    22659652.965
  20433801.719   -26535762.22249 -20055320.15248  20433801.074    20433807.369
  22703717.079   -12996349.52949 -10118743.06546  22703716.234    22703723.249
  24211512.616    -5634034.08549  -4204895.52445  24211512.149    24211520.949
  23488293.694    -9585320.00049  -7456278.81345  23488293.213    23488300.842
  24487382.374    -5091702.72549  -3956787.11945  24487381.559    24487392.214
  21744276.173   -17822516.13849 -13731318.38447  21744275.292    21744281.971
 03  6 10  3 37  0.0000000  0  9G13G27G16G 1G20G31G 3G 8G 2
  20790377.545   -23086735.30449 -17838347.50147  20790377.441    20790382.438
  22642583.972   -14991721.23449 -11506489.81146  22642583.406    22642590.667
  22674979.834   -14672999.00649 -11424195.05746  22674979.258    22674985.060
  20435444.547   -26527129.20149 -20048593.12348  20435443.887    20435450.178
  22723156.422   -12894195.60249 -10039142.64346  22723155.526    22723162.534
  24193825.515    -5726979.09149  -4277319.98845  24193825.154    24193833.950
  23475998.068    -9649934.21249  -7506627.48145  23475997.436    23476005.071
  24471481.996    -5175259.10449  -4021895.84645  24471481.206    24471491.776
  21753370.630   -17774724.33149 -13694078.01747  21753369.746    21753376.438
 03  6 10  3 37 30.0000000  0  9G13G27G16G 1G20G31G 3G 8G 2
  20781534.703   -23133204.65549 -17874557.35548  20781534.583    20781539.616
  22632139.229   -15046608.37549 -11549258.96846  22632138.726    22632145.938
  22690376.018   -14592091.68549 -11361150.39046  22690375.420    22690381.200
  20437156.103   -26518134.91849 -20041584.58248  20437155.442    20437161.727
  22742638.468   -12791816.96549  -9959367.11046  22742637.600    22742644.591
  24176141.037    -5819910.73349  -4349734.00345  24176140.507    24176149.365
  23463756.549    -9714263.46249  -7556754.09945  23463755.940    23463763.541
  24455600.313    -5258718.12249  -4086928.69145  24455599.471    24455609.972
  21762534.205   -17726569.42049 -13656554.70747  21762533.332    21762540.008
 03  6 10  3 38  0.0000000  0  9G13G27G16G 1G20G31G 3G 8G 2
  20772747.057   -23179384.10149 -17910541.31148  20772746.927    20772751.973
  22621720.044   -15101361.75249 -11591923.89646  22621719.480    22621726.681
  22705835.653   -14510851.01349 -11297845.97446  22705835.008    22705840.755
  20438936.453   -26508779.02249 -20034294.26348  20438935.799    20438942.065
  22762162.610   -12689217.24349  -9879419.32646  22762161.733    22762168.734
  24158459.781    -5912826.46849  -4422135.64345  24158459.107    24158467.809
  23451569.604    -9778305.44549  -7606656.86245  23451569.067    23451576.669
  24439736.816    -5342080.14949  -4151885.96345  24439736.023    24439746.440
  21771766.436   -17678053.67249 -13618750.22647  21771765.550    21771772.245
 03  6 10  3 38 30.0000000  0  9G13G27G16G 1G20G31G 3G 8G 2
  20764015.170   -23225270.34349 -17946296.80548  20764015.061    20764020.064
  22611326.429   -15155980.08549 -11634483.59546  22611325.895    22611333.125
  22721358.333   -14429278.04749 -11234282.63146  22721357.781    22721363.600
  20440786.090   -26499059.11049 -20026720.30548  20440785.429    20440791.711
  22781728.481   -12586397.79449  -9799300.31746  22781727.608    22781734.653
  24140782.171    -6005721.64049  -4494521.29345  24140781.405    24140790.280
  23439438.257    -9842055.63849  -7656332.26245  23439437.745    23439445.378
  24423892.379    -5425343.30249  -4216766.20745  24423891.561    24423901.875
  21781067.281   -17629177.36249 -13580664.79447  21781066.402    21781073.105
 03  6 10  3 39  0.0000000  0  9G13G27G16G 1G20G31G 3G 8G 2
  20755339.262   -23270862.50249 -17981823.13748  20755339.148    20755344.167
  22600958.367   -15210464.89849 -11676939.24746  22600957.783    22600964.998
  22736943.788   -14347376.25349 -11170463.05046  22736943.271    22736949.029
  20442704.913   -26488975.44149 -20018862.88948  20442704.260    20442710.554
  22801335.386   -12483362.76749  -9719013.32346  22801334.514    22801341.650
  24123108.759    -6098594.39049  -4566889.46245  24123108.140    24123116.928
  23427362.764    -9905512.48549  -7705779.08045  23427362.245    23427369.851
  24408066.371    -5508508.60649  -4281570.19745  24408065.638    24408076.001
  21790436.160   -17579943.56549 -13542300.79447  21790435.276    21790441.980
 03  6 10  3 39 30.0000000  0  9G13G27G16G 1G20G31G 3G 8G 2
  20746719.619   -23316158.93849 -18017119.03248  20746719.505    20746724.513
  22590615.542   -15264816.43649 -11719291.04946  22590614.973    22590622.209
  22752591.284   -14265148.44849 -11106389.44646  22752590.690    22752596.454
  20444693.093   -26478527.32949 -20010721.49548  20444692.434    20444698.750
  22820982.754   -12380115.02549  -9638560.57146  22820981.873    22820989.102
  24105440.410    -6191441.79749  -4639237.88545  24105439.721    24105448.326
  23415343.595    -9968673.11149  -7754995.08045  23415343.025    23415350.706
  24392259.069    -5591575.88849  -4346297.80945  24392258.411    24392268.710
  21799872.704   -17530354.10849 -13503659.66047  21799871.823    21799878.555
 03  6 10  3 40  0.0000000  0  9G13G27G16G 1G20G31G 3G 8G 2
  20738156.724   -23361157.01849 -18052182.44448  20738156.603    20738161.632
  22580298.208   -15319033.95449 -11761538.42146  22580297.705    22580304.901
  22768300.404   -14182596.43249 -11042063.21746  22768299.824    22768305.628
  20446751.033   -26467712.68749 -20002294.49548  20446750.389    20446756.693
  22840670.302   -12276656.55249  -9557943.62346  22840669.394    22840676.690
  24087777.536    -6284259.68549  -4711563.32445  24087776.860    24087785.401
  23403381.544   -10031533.41849  -7803977.07645  23403381.057    23403388.671
  24376470.760    -5674543.90749  -4410948.09045  24376470.012    24376480.238
  21809376.815   -17480409.57449 -13464741.84047  21809375.923    21809382.673
 03  6 10  3 40 30.0000000  0  9G13G27G16G 1G20G31G 3G 8G 2
  20729650.739   -23405856.26649 -18087012.99948  20729650.631    20729655.658
  22570006.183   -15373119.01449 -11803682.58146  22570005.650    22570012.864
  22784070.503   -14099723.82649 -10977487.17346  22784069.926    22784075.749
  20448878.646   -26456532.15649 -19993582.38948  20448877.996    20448884.263
  22860397.077   -12172991.74049  -9477165.89046  22860396.187    22860403.483
  24070120.767    -6377046.36149  -4783864.46545  24070120.013    24070128.411
  23391476.961   -10094092.13949  -7852724.06245  23391476.498    23391484.052
  24360700.814    -5757413.79549  -4475521.88745  24360700.308    24360710.495
  21818947.824   -17430113.37949 -13425550.00047  21818946.947    21818953.696
 03  6 10  3 41  0.0000000  0  9G13G27G16G 1G20G31G 3G 8G 2
  20721202.109   -23450254.01449 -18121608.62648  20721201.990    20721206.974
  22559739.401   -15427071.03249 -11845723.06746  22559738.888    22559746.101
  22799901.398   -14016532.24949 -10912662.57046  22799900.787    22799906.588
  20451076.238   -26444983.67649 -19984583.57348  20451075.585    20451081.864
  22880162.641   -12069122.63049  -9396228.96946  22880161.803    22880169.140
  24052470.597    -6469797.72549  -4856138.07745  24052469.931    24052478.239
  23379630.622   -10156345.22349  -7901232.89046  23379630.099    23379637.605
  24344950.079    -5840184.51349  -4540018.40945  24344949.452    24344959.587
  21828585.651   -17379466.35249 -13386084.78447  21828584.775    21828591.529
 03  6 10  3 41 30.0000000  0  9G13G27G16G 1G20G31G 3G 8G 2
  20712811.168   -23494348.64249 -18155968.05048  20712811.049    20712816.026
  22549497.893   -15480890.50749 -11887660.26546  22549497.348    22549504.528
  22815792.418   -13933024.67949 -10847591.73746  22815791.816    22815797.523
  20453343.972   -26433066.76249 -19975297.65948  20453343.315    20453349.610
  22899966.615   -11965052.23649  -9315135.18246  22899965.714    22899973.065
  24034827.659    -6562510.82249  -4928381.86745  24034827.105    24034835.392
  23367842.767   -10218290.05549  -7949501.52946  23367842.270    23367849.816
  24329218.084    -5922856.02249  -4604437.64145  24329217.504    24329227.609
  21838289.784   -17328470.65049 -13346347.86847  21838288.907    21838295.693
 03  6 10  3 42  0.0000000  0  9G13G27G16G 1G20G31G 3G 8G 2
  20704478.213   -23538138.40049 -18190089.91648  20704478.128    20704483.072
  22539281.565   -15534577.48849 -11929494.23446  22539281.040    22539288.243
  22831743.034   -13849203.57149 -10782276.58146  22831742.444    22831748.147
  20455681.990   -26420780.26049 -19965723.75748  20455681.336    20455687.621
  22919808.379   -11860783.47349  -9233886.83146  22919807.448    22919814.735
  24017192.851    -6655182.56149  -5000593.43045  24017192.084    24017200.279
  23356114.283   -10279923.50449  -7997527.52646  23356113.829    23356121.263
  24313505.108    -6005427.99149  -4668779.30545  24313504.551    24313514.456
  21848059.943   -17277127.97249 -13306340.58447  21848059.093    21848065.865
 03  6 10  3 42 30.0000000  0  9G13G27G16G 1G20G31G 3G 8G 2
  20696203.730   -23581621.19849 -18223972.59248  20696203.616    20696208.551
  22529090.417   -15588132.08149 -11971225.03846  22529089.885    22529097.089
  22847752.831   -13765071.46149 -10716719.09646  22847752.250    22847757.994
  20458090.556   -26408123.23149 -19955861.13148  20458089.919    20458096.171
  22939687.188   -11756319.40249  -9152486.31246  22939686.326    22939693.606
  23999566.228    -6747809.70649  -5072770.25645  23999565.566    23999573.894
  23344445.619   -10341242.66649  -8045308.62646  23344445.177    23344452.551
  24297811.136    -6087900.11549  -4733043.13845  24297810.446    24297820.295
  21857895.834   -17225440.13649 -13266064.34747  21857894.954    21857901.715
 03  6 10  3 43  0.0000000  0  9G13G27G16G 1G20G31G 3G 8G 2
  20687987.830   -23624795.80749 -18257615.12048  20687987.734    20687992.667
  22518924.398   -15641554.81849 -12012853.09246  22518923.883    22518931.031
  22863821.381   -13680630.77249 -10650921.16746  22863820.766    22863826.625
  20460569.718   -26395095.08849 -19945709.32248  20460569.073    20460575.332
  22959602.688   -11651662.80849  -9070935.74746  22959601.858    22959609.184
  23981948.810    -6840389.25049  -5144909.97845  23981948.163    23981956.295
  23332837.287   -10402244.88549  -8092842.76346  23332836.763    23332844.125
  24282136.080    -6170272.32249  -4797229.15845  24282135.368    24282145.113
  21867797.016   -17173409.06449 -13225520.65447  21867796.150    21867802.892
 03  6 10  3 43 30.0000000  0  9G13G27G16G 1G20G31G 3G 8G 2
  20679831.034   -23667660.12549 -18291015.87348  20679830.931    20679835.799
  22508783.379   -15694845.80149 -12054378.48847  22508782.874    22508790.054
  22879948.058   -13595884.28649 -10584884.96046  22879947.422    22879953.342
  20463119.638   -26381695.07449 -19935267.74748  20463118.988    20463125.270
  22979554.295   -11546816.46949  -8989237.34446  22979553.466    22979560.815
  23964341.124    -6932918.00949  -5217010.15945  23964340.463    23964348.570
  23321289.676   -10462927.41649  -8140127.79646  23321289.218    23321296.532
  24266480.180    -6252544.42349  -4861337.14845  24266479.407    24266489.084
  21877763.182   -17121036.60849 -13184710.94547  21877762.320    21877769.072
 03  6 10  3 44  0.0000000  0  9G13G27G16G 1G20G31G 3G 8G 2
  20671733.633   -23710212.26849 -18324173.36848  20671733.517    20671738.386
  22498667.510   -15748005.18549 -12095801.33947  22498666.987    22498674.128
  22896132.486   -13510834.53649 -10518612.44246  22896131.868    22896137.740
  20465740.513   -26367922.25149 -19924535.67548  20465739.873    20465746.149
  22999541.373   -11441783.46349  -8907393.47846  22999540.600    22999547.960
  23946743.521    -7025392.72849  -5289068.23445  23946742.915    23946751.051
  23309803.598   -10523287.00249  -8187161.20346  23309803.159    23309810.425
  24250843.261    -6334716.05849  -4925366.85245  24250842.412    24250852.186
  21887794.006   -17068324.47549 -13143636.55547  21887793.116    21887799.840
 03  6 10  3 44 30.0000000  0  9G13G27G16G 1G20G31G 3G 8G 2
  20663695.788   -23752451.10249 -18357086.72848  20663695.721    20663700.578
  22488576.503   -15801033.78749 -12137122.27247  22488575.913    22488583.053
  22912374.074   -13425484.45349 -10452105.88546  22912373.404    22912379.294
  20468432.395   -26353776.23249 -19913512.80148  20468431.759    20468438.031
  23019563.418   -11336567.22149  -8825406.83946  23019562.588    23019569.969
  23929156.949    -7117810.85049  -5361082.20345  23929156.250    23929164.278
  23298379.467   -10583321.45249  -8233941.23646  23298378.968    23298386.180
  24235225.389    -6416787.86749  -4989318.76545  24235224.633    24235234.331
  21897888.986   -17015275.01749 -13102299.31547  21897888.107    21897894.798
 03  6 10  3 45  0.0000000  0  9G13G27G16G 1G20G31G 3G 8G 2
  20655718.108   -23794374.07549 -18389753.95648  20655718.004    20655722.849
  22478510.368   -15853931.15349 -12178340.95147  22478509.851    22478516.968
  22928672.358   -13339835.93749 -10385366.80146  22928671.781    22928677.661
  20471195.609   -26339255.45249 -19902197.90848  20471194.957    20471201.204
  23039619.965   -11231169.96149  -8743279.14646  23039619.083    23039626.427
  23911581.728    -7210168.43849  -5433049.00745  23911580.957    23911588.987
  23287017.717   -10643027.17449  -8280465.12046  23287017.283    23287024.475
  24219626.897    -6498758.33249  -5053191.72645  24219626.062    24219635.734
  21908047.948   -16961889.33549 -13060700.08247  21908047.055    21908053.750
 03  6 10  3 45 30.0000000  0  9G13G27G16G 1G20G31G 3G 8G 2
  20647800.830   -23835979.48249 -18422173.73048  20647800.725    20647805.584
  22468469.238   -15906697.54049 -12219457.56247  22468468.663    22468475.794
  22945027.049   -13253891.74049 -10318397.30446  22945026.449    22945032.301
  20474030.285   -26324359.01649 -19890590.28648  20474029.644    20474035.936
  23059710.230   -11125594.76749  -8661012.80246  23059709.385    23059716.746
  23894018.603    -7302462.49349  -5504966.31645  23894017.896    23894025.866
  23275719.022   -10702401.60049  -8326730.84646  23275718.645    23275725.839
  24204047.482    -6580627.84549  -5116985.99045  24204046.707    24204056.345
  21918270.506   -16908169.40249 -13018840.39247  21918269.618    21918276.320
 03  6 10  3 46  0.0000000  0  9G13G27G16G 1G20G31G 3G 8G 2
  20639944.232   -23877266.03649 -18454345.05048  20639944.124    20639948.985
  22458452.817   -15959333.60049 -12260472.61947  22458452.287    22458459.443
  22961437.419   -13167654.85049 -10251199.74146  22961436.788    22961442.641
  20476936.530   -26309086.63649 -19878689.72048  20476935.882    20476942.143
  23079833.720   -11019845.08349  -8578610.50346  23079832.895    23079840.282
  23876468.181    -7394690.17949  -5576831.91345  23876467.396    23876475.425
  23264483.933   -10761442.47849  -8372736.67146  23264483.513    23264490.717
  24188487.360    -6662396.60049  -5180701.74845  24188486.480    24188496.154
  21928556.199   -16854117.65349 -12976722.13847  21928555.327    21928562.021
 03  6 10  3 46 30.0000000  0  9G13G27G16G 1G20G31G 3G 8G 2
  20632148.699   -23918231.60449 -18486266.24948  20632148.601    20632153.473
  22448461.282   -16011839.46349 -12301386.22247  22448460.694    22448467.855
  22977903.032   -13081127.32449 -10183775.71146  22977902.439    22977908.333
  20479914.511   -26293437.10249 -19866495.26648  20479913.881    20479920.139
  23099990.038   -10913923.40349  -8496074.17846  23099989.190    23099996.529
  23858930.850    -7486848.02649  -5648643.11345  23858930.276    23858938.158
  23253313.054   -10820146.38149  -8418479.92146  23253312.507    23253319.711
  24172946.364    -6744063.88549  -5244338.44745  24172945.579    24172955.389
  21938904.764   -16799735.61949 -12934346.51547  21938903.863    21938910.562
 03  6 10  3 47  0.0000000  0  9G13G27G16G 1G20G31G 3G 8G 2
  20624414.638   -23958874.44249 -18517935.97148  20624414.535    20624419.404
  22438494.443   -16064215.01549 -12342198.28347  22438493.904    22438501.097
  22994423.445   -12994311.85449 -10116127.31646  22994422.842    22994428.798
  20482964.491   -26277409.50549 -19854006.23148  20482963.849    20482970.112
  23120178.466   -10807832.46449  -8413405.95746  23120177.674    23120185.030
  23841407.668    -7578932.82349  -5720397.36645  23841407.018    23841414.849
  23242206.573   -10878510.37149  -8463958.32346  23242206.165    23242213.341
  24157424.799    -6825629.60949  -5307895.98445  24157423.994    24157433.892
  21949315.807   -16745025.06049 -12891714.91347  21949314.906    21949321.652
 03  6 10  3 47 30.0000000  0  9G13G27G16G 1G20G31G 3G 8G 2
  20616742.319   -23999192.64049 -18549352.72748  20616742.207    20616747.096
  22428552.357   -16116460.68549 -12382909.13147  22428551.817    22428559.002
  23010998.195   -12907210.86349 -10048256.43046  23010997.618    23011003.600
  20486086.495   -26261003.15449 -19841222.05848  20486085.858    20486092.119
  23140398.477   -10701575.47149  -8330608.34846  23140397.686    23140405.130
  23823899.066    -7670941.34049  -5792092.18545  23823898.219    23823906.140
  23231165.528   -10936531.88749  -8509169.85146  23231165.049    23231172.229
  24141922.595    -6907093.64649  -5371374.28245  24141921.835    24141931.736
  21959789.007   -16689987.88749 -12848828.79647  21959788.135    21959794.873
 03  6 10  3 48  0.0000000  0  9G13G27G16G 1G20G31G 3G 8G 2
  20609132.124   -24039184.42349 -18580515.13348  20609132.025    20609136.872
  22418635.005   -16168576.52049 -12423518.81347  22418634.432    22418641.621
  23027626.777   -12819826.96549  -9980165.11346  23027626.227    23027632.150
  20489280.746   -26244217.28249 -19828142.15248  20489280.106    20489286.350
  23160649.635   -10595155.09149  -8247683.44046  23160648.896    23160656.334
  23806405.288    -7762870.36349  -5863725.09745  23806404.549    23806412.519
  23220190.076   -10994207.98449  -8554112.22346  23220189.637    23220196.829
  24126439.795    -6988455.58749  -5434773.05145  24126438.953    24126448.896
  21970324.096   -16634625.76749 -12805689.46747  21970323.212    21970329.945
 03  6 10  3 48 30.0000000  0  9G13G27G16G 1G20G31G 3G 8G 2
  20601584.305   -24078848.34149 -18611422.06348  20601584.190    20601589.032
  22408742.289   -16220562.69549 -12464027.46647  22408741.741    22408748.926
  23044308.791   -12732162.71549  -9911855.32346  23044308.208    23044314.062
  20492547.379   -26227051.01549 -19814765.83648  20492546.725    20492552.964
  23180931.315   -10488574.17949  -8164633.42946  23180930.565    23180938.041
  23788927.482    -7854716.48949  -5935293.40445  23788926.729    23788934.602
  23209280.982   -11051535.80449  -8598783.21746  23209280.459    23209287.638
  24110976.473    -7069715.16349  -5498092.02745  24110975.749    24110985.533
  21980920.574   -16578940.53649 -12762298.37047  21980919.696    21980926.461
 03  6 10  3 49  0.0000000  0  9G13G27G16G 1G20G31G 3G 8G 2
  20594099.218   -24118182.61049 -18642072.12648  20594099.112    20594103.948
  22398874.171   -16272420.11849 -12504435.78747  22398873.583    22398880.746
  23061043.546   -12644221.13949  -9843329.44346  23061042.922    23061048.798
  20495886.443   -26209504.20049 -19801092.98148  20495885.774    20495892.008
  23201243.054   -10381836.24749  -8081461.06846  23201242.194    23201249.625
  23771465.947    -7946477.17449  -6006795.14445  23771465.217    23771473.011
  23198438.394   -11108513.38449  -8643181.27946  23198437.956    23198445.123
  24095532.542    -7150872.85649  -5561331.62645  24095531.761    24095541.572
  21991578.100   -16522934.85849 -12718657.56947  21991577.218    21991583.985
 03  6 10  3 49 30.0000000  0  9G13G27G16G 1G20G31G 3G 8G 2
  20586677.238   -24157185.39849 -18672463.89248  20586677.120    20586681.928
  22389030.511   -16324148.69249 -12544743.71047  22389029.907    22389037.076
  23077830.607   -12556004.69949  -9774589.37346  23077830.021    23077835.849
  20499298.102   -26191575.83849 -19787122.81748  20499297.432    20499303.657
  23221583.923   -10274944.32949  -7998168.71146  23221583.152    23221590.540
  23754021.082    -8038149.08849  -6078227.71545  23754020.424    23754028.232
  23187663.249   -11165137.56349  -8687303.96246  23187662.726    23187669.810
  24080108.038    -7231928.42249  -5624491.64745  24080107.269    24080116.970
  22002296.230   -16466610.36149 -12674768.34447  22002295.358    22002302.179
 03  6 10  3 50  0.0000000  0  9G13G27G16G 1G20G31G 3G 8G 2
  20579318.706   -24195854.61349 -18702595.71948  20579318.584    20579323.410
  22379211.384   -16375748.36149 -12584951.19147  22379210.835    22379217.968
  23094669.559   -12467515.34749  -9705636.64146  23094669.003    23094674.793
  20502782.521   -26173264.82949 -19772854.48948  20502781.879    20502788.111
  23241953.664   -10167900.57949  -7914758.05746  23241952.891    23241960.325
  23736594.081    -8129728.42449  -6149588.13945  23736593.348    23736601.119
  23176955.851   -11221404.93549  -8731148.61946  23176955.358    23176962.455
  24064703.151    -7312880.98249  -5687571.40245  24064702.463    24064712.096
  22013074.818   -16409968.33949 -12630631.69447  22013073.996    22013080.789
 03  6 10  3 50 30.0000000  0  9G13G27G16G 1G20G31G 3G 8G 2
  20572023.948   -24234188.72349 -18732466.42648  20572023.844    20572028.655
  22369416.777   -16427219.43349 -12625058.46247  22369416.185    22369423.276
  23111559.923   -12378756.12849  -9636473.63646  23111559.370    23111565.067
  20506339.905   -26154570.65049 -19758287.58748  20506339.247    20506345.468
  23262351.806   -10060708.18949  -7831231.58146  23262350.989    23262358.416
  23719185.268    -8221212.20949  -6220874.11545  23719184.480    23719192.336
  23166316.818   -11277313.09249  -8774713.37746  23166316.323    23166323.437
  24049317.840    -7393730.67949  -5750570.99945  24049317.115    24049326.732
  22023913.474   -16353010.96749 -12586249.31547  22023912.613    22023919.395
 03  6 10  3 51  0.0000000  0  9G13G27G16G 1G20G31G 3G 8G 2
  20564793.251   -24272186.28849 -18762074.89148  20564793.150    20564797.944
  22359646.407   -16478562.64549 -12665066.10547  22359645.859    22359652.957
  23128501.123   -12289729.91849  -9567102.56746  23128500.522    23128506.204
  20509970.277   -26135492.97849 -19743421.85448  20509969.604    20509975.851
  23282777.442    -9953370.61649  -7747591.97746  23282776.619    23282784.038
  23701795.072    -8312597.70849  -6292083.49145  23701794.459    23701802.106
  23155746.611   -11332859.97349  -8817996.60446  23155746.111    23155753.184
  24033951.967    -7474478.01349  -5813490.82445  24033951.373    24033960.714
  22034811.600   -16295740.58849 -12541623.04647  22034810.768    22034817.607
 03  6 10  3 51 30.0000000  0  9G13G27G16G 1G20G31G 3G 8G 2
  20557626.959   -24309845.22749 -18791419.49248  20557626.851    20557631.649
  22349900.521   -16529777.76849 -12704973.93447  22349899.936    22349906.979
  23145492.674   -12200438.83349  -9497525.10246  23145492.109    23145497.817
  20513673.808   -26116030.74349 -19728256.46148  20513673.150    20513679.377
  23303230.295    -9845890.30649  -7663841.14546  23303229.530    23303236.874
  23684424.331    -8403881.25149  -6363213.43145  23684423.645    23684431.290
  23145245.789   -11388042.32649  -8860995.79346  23145245.201    23145252.332
  24018605.936    -7555122.04049  -5876330.17745  24018605.126    24018614.638
  22045769.077   -16238158.83949 -12496754.14447  22045768.222    22045775.041
 03  6 10  3 52  0.0000000  0  9G13G27G16G 1G20G31G 3G 8G 2
  20550525.539   -24347163.46749 -18820498.62048  20550525.427    20550530.219
  22340178.963   -16580864.77749 -12744781.93547  22340178.377    22340185.378
  23162534.140   -12110885.46849  -9427743.28346  23162533.532    23162539.291
  20517450.723   -26096182.85849 -19712790.56748  20517450.055    20517456.302
  23323709.755    -9738270.02649  -7579981.24046  23323709.012    23323716.370
  23667073.608    -8495059.34349  -6434261.19645  23667073.016    23667080.558
  23134814.739   -11442857.13949  -8903708.59146  23134814.221    23134821.324
  24003279.590    -7635662.55649  -5939088.85245  24003278.656    24003287.971
  22056785.433   -16180267.47149 -12451643.98647  22056784.576    22056791.402
 03  6 10  3 52 30.0000000  0  9G13G27G16G 1G20G31G 3G 8G 2
  20543489.141   -24384139.71649 -18849311.26048  20543489.058    20543493.856
  22330481.618   -16631824.39149 -12784490.67547  22330481.070    22330488.066
  23179624.941   -12021072.62149  -9357759.26446  23179624.310    23179630.142
  20521301.056   -26075949.23549 -19697024.09348  20521300.399    20521306.628
  23344215.300    -9630513.06749  -7496014.83146  23344214.527    23344221.914
  23649743.529    -8586129.21049  -6505224.64945  23649742.924    23649750.418
  23124454.166   -11497302.28649  -8946133.34346  23124453.644    23124460.766
  23987972.698    -7716099.62949  -6001766.94545  23987971.813    23987981.070
  22067860.288   -16122068.83749 -12406294.40447  22067859.419    22067866.251
 03  6 10  3 53  0.0000000  0  9G13G27G16G 1G20G31G 3G 8G 2
  20536518.253   -24420771.97549 -18877855.85948  20536518.154    20536522.939
  22320808.515   -16682656.58049 -12824100.11747  22320807.946    22320814.987
  23196764.706   -11931002.59149  -9287574.83846  23196764.124    23196769.977
  20525224.949   -26055328.92849 -19680956.31048  20525224.283    20525230.536
  23364746.514    -9522622.03749  -7411943.96446  23364745.563    23364752.963
  23632434.713    -8677087.33749  -6576101.02145  23632434.086    23632441.537
  23114164.422   -11551374.83849  -8988267.75146  23114163.897    23114171.044
  23972685.687    -7796433.19949  -6064364.36745  23972684.746    23972694.127
  22078993.315   -16063564.53449 -12360706.63647  22078992.441    22078999.229
 03  6 10  3 53 30.0000000  0  9G13G27G16G 1G20G31G 3G 8G 2
  20529613.106   -24457058.66749 -18906131.18848  20529612.985    20529617.775
  22311159.616   -16733361.57949 -12863610.45547  22311159.066    22311166.082
  23213952.908   -11840677.84049  -9217191.93446  23213952.365    23213958.224
  20529222.560   -26034321.31749 -19664586.73048  20529221.915    20529228.124
  23385302.344    -9414600.00249  -7327770.99746  23385301.572    23385308.973
  23615147.903    -8767930.56549  -6646887.86745  23615147.144    23615154.537
  23103946.188   -11605071.77549  -9030109.48546  23103945.641    23103952.790
  23957418.145    -7876662.96149  -6126880.91745  23957417.315    23957426.713
  22090184.111   -16004756.50149 -12314882.19947  22090183.214    22090190.024
 03  6 10  3 54  0.0000000  0  9G13G27G16G 1G20G31G 3G 8G 2
  20522774.196   -24492997.29949 -18934135.29848  20522774.099    20522778.888
  22301534.972   -16783939.29949 -12903021.61347  22301534.359    22301541.385
  23231189.173   -11750100.63649  -9146612.31146  23231188.583    23231194.477
  20533294.058   -26012925.34049 -19647914.52448  20533293.407    20533299.661
  23405882.679    -9306449.57949  -7243497.99945  23405881.945    23405889.334
  23597883.508    -8858655.27749  -6717582.36745  23597882.816    23597890.107
  23093799.942   -11658390.43049  -9071656.44146  23093799.406    23093806.510
  23942170.820    -7956788.35549  -6189316.13445  23942170.011    23942179.298
  22101432.381   -15945646.44349 -12268822.41547  22101431.517    22101438.287
 03  6 10  3 54 30.0000000  0  9G13G27G16G 1G20G31G 3G 8G 2
  20516001.649   -24528587.11649 -18961867.60648  20516001.528    20516006.311
  22291934.361   -16834390.42849 -12942334.13447  22291933.766    22291940.817
  23248472.840   -11659274.21349  -9075838.48946  23248472.248    23248478.177
  20537439.494   -25991140.79149 -19630939.54448  20537438.847    20537445.081
  23426486.880    -9198174.25349  -7159127.66245  23426486.101    23426493.516
  23580642.152    -8949258.73849  -6788182.39845  23580641.422    23580648.759
  23083726.172   -11711328.44149  -9112906.80046  23083725.600    23083732.639
  23926942.970    -8036809.94849  -6251670.49445  23926942.233    23926951.451
  22112737.680   -15886236.68649 -12222529.09547  22112736.801    22112743.541
